<?xml version="1.0" encoding="UTF-8"?>
<gpx version="1.1" creator="https://www.youtrack.es" xsi:schemaLocation="http://www.topografix.com/GPX/1/1 http://www.topografix.com/GPX/1/1/gpx.xsd http://www.garmin.com/xmlschemas/GpxExtensions/v3 http://www.garmin.com/xmlschemas/GpxExtensionsv3.xsd http://www.garmin.com/xmlschemas/TrackPointExtension/v1 http://www.garmin.com/xmlschemas/TrackPointExtensionv1.xsd" xmlns:gpxtpx="http://www.garmin.com/xmlschemas/TrackPointExtension/v1" xmlns:gpxx="http://www.garmin.com/xmlschemas/GpxExtensions/v3" xmlns:xsi="http://www.w3.org/2001/XMLSchema-instance">
  <metadata>
    <link href="https://www.youtrack.es">
      <text>YouTrack.es</text>
    </link>
    <time>2026-05-08T02:39:22Z</time>
  </metadata>
  <trk>
    <src>https://www.youtrack.es</src>
    <link href="https://www.youtrack.es/ruta/6479-intxurre-unida-ibiur">
      <text>YouTrack.es</text>
    </link>
    <trkseg>
      <trkpt lat="43.131343" lon="-2.066678">
        <ele>103.718</ele>
        <time>2016-06-09T15:20:24Z</time>
      </trkpt>
      <trkpt lat="43.131180" lon="-2.066625">
        <ele>109.398</ele>
        <time>2016-06-09T15:21:39Z</time>
      </trkpt>
      <trkpt lat="43.131372" lon="-2.066598">
        <ele>106.917</ele>
        <time>2016-06-09T15:21:57Z</time>
      </trkpt>
      <trkpt lat="43.131273" lon="-2.066583">
        <ele>105.908</ele>
        <time>2016-06-09T15:22:07Z</time>
      </trkpt>
      <trkpt lat="43.131572" lon="-2.067005">
        <ele>102.032</ele>
        <time>2016-06-09T15:22:30Z</time>
      </trkpt>
      <trkpt lat="43.131783" lon="-2.067087">
        <ele>95.884</ele>
        <time>2016-06-09T15:22:36Z</time>
      </trkpt>
      <trkpt lat="43.131873" lon="-2.067410">
        <ele>94.567</ele>
        <time>2016-06-09T15:22:42Z</time>
      </trkpt>
      <trkpt lat="43.131890" lon="-2.069488">
        <ele>84.533</ele>
        <time>2016-06-09T15:23:14Z</time>
      </trkpt>
      <trkpt lat="43.132135" lon="-2.070325">
        <ele>79.641</ele>
        <time>2016-06-09T15:23:24Z</time>
      </trkpt>
      <trkpt lat="43.132263" lon="-2.070573">
        <ele>77.586</ele>
        <time>2016-06-09T15:23:28Z</time>
      </trkpt>
      <trkpt lat="43.133243" lon="-2.071243">
        <ele>74.381</ele>
        <time>2016-06-09T15:23:44Z</time>
      </trkpt>
      <trkpt lat="43.133932" lon="-2.072720">
        <ele>77.927</ele>
        <time>2016-06-09T15:24:09Z</time>
      </trkpt>
      <trkpt lat="43.133830" lon="-2.073115">
        <ele>78.556</ele>
        <time>2016-06-09T15:24:15Z</time>
      </trkpt>
      <trkpt lat="43.132780" lon="-2.074733">
        <ele>76.559</ele>
        <time>2016-06-09T15:24:43Z</time>
      </trkpt>
      <trkpt lat="43.132485" lon="-2.075640">
        <ele>77.614</ele>
        <time>2016-06-09T15:24:57Z</time>
      </trkpt>
      <trkpt lat="43.132530" lon="-2.076978">
        <ele>83.608</ele>
        <time>2016-06-09T15:25:16Z</time>
      </trkpt>
      <trkpt lat="43.133173" lon="-2.078578">
        <ele>79.766</ele>
        <time>2016-06-09T15:25:43Z</time>
      </trkpt>
      <trkpt lat="43.133272" lon="-2.079335">
        <ele>78.678</ele>
        <time>2016-06-09T15:25:55Z</time>
      </trkpt>
      <trkpt lat="43.132603" lon="-2.082560">
        <ele>82.141</ele>
        <time>2016-06-09T15:26:45Z</time>
      </trkpt>
      <trkpt lat="43.131722" lon="-2.084382">
        <ele>80.547</ele>
        <time>2016-06-09T15:27:19Z</time>
      </trkpt>
      <trkpt lat="43.130075" lon="-2.086488">
        <ele>78.635</ele>
        <time>2016-06-09T15:27:53Z</time>
      </trkpt>
      <trkpt lat="43.129873" lon="-2.086445">
        <ele>79.230</ele>
        <time>2016-06-09T15:27:57Z</time>
      </trkpt>
      <trkpt lat="43.129545" lon="-2.085970">
        <ele>79.795</ele>
        <time>2016-06-09T15:28:05Z</time>
      </trkpt>
      <trkpt lat="43.129242" lon="-2.085933">
        <ele>79.661</ele>
        <time>2016-06-09T15:28:11Z</time>
      </trkpt>
      <trkpt lat="43.129142" lon="-2.086048">
        <ele>80.191</ele>
        <time>2016-06-09T15:28:14Z</time>
      </trkpt>
      <trkpt lat="43.129230" lon="-2.086820">
        <ele>80.881</ele>
        <time>2016-06-09T15:28:28Z</time>
      </trkpt>
      <trkpt lat="43.129047" lon="-2.086898">
        <ele>80.219</ele>
        <time>2016-06-09T15:28:32Z</time>
      </trkpt>
      <trkpt lat="43.128082" lon="-2.086980">
        <ele>77.708</ele>
        <time>2016-06-09T15:28:50Z</time>
      </trkpt>
      <trkpt lat="43.126912" lon="-2.086368">
        <ele>76.970</ele>
        <time>2016-06-09T15:29:10Z</time>
      </trkpt>
      <trkpt lat="43.126055" lon="-2.086443">
        <ele>83.352</ele>
        <time>2016-06-09T15:29:24Z</time>
      </trkpt>
      <trkpt lat="43.124560" lon="-2.087243">
        <ele>90.485</ele>
        <time>2016-06-09T15:29:48Z</time>
      </trkpt>
      <trkpt lat="43.123515" lon="-2.088273">
        <ele>82.491</ele>
        <time>2016-06-09T15:30:14Z</time>
      </trkpt>
      <trkpt lat="43.123300" lon="-2.088180">
        <ele>81.799</ele>
        <time>2016-06-09T15:30:18Z</time>
      </trkpt>
      <trkpt lat="43.122933" lon="-2.087633">
        <ele>82.134</ele>
        <time>2016-06-09T15:30:28Z</time>
      </trkpt>
      <trkpt lat="43.121628" lon="-2.088883">
        <ele>89.289</ele>
        <time>2016-06-09T15:31:02Z</time>
      </trkpt>
      <trkpt lat="43.120568" lon="-2.089442">
        <ele>93.965</ele>
        <time>2016-06-09T15:31:20Z</time>
      </trkpt>
      <trkpt lat="43.120122" lon="-2.089488">
        <ele>95.366</ele>
        <time>2016-06-09T15:31:25Z</time>
      </trkpt>
      <trkpt lat="43.119278" lon="-2.089310">
        <ele>99.329</ele>
        <time>2016-06-09T15:31:37Z</time>
      </trkpt>
      <trkpt lat="43.118813" lon="-2.089413">
        <ele>101.421</ele>
        <time>2016-06-09T15:31:45Z</time>
      </trkpt>
      <trkpt lat="43.118097" lon="-2.090180">
        <ele>105.808</ele>
        <time>2016-06-09T15:31:59Z</time>
      </trkpt>
      <trkpt lat="43.116878" lon="-2.091038">
        <ele>102.927</ele>
        <time>2016-06-09T15:32:22Z</time>
      </trkpt>
      <trkpt lat="43.116483" lon="-2.091153">
        <ele>103.219</ele>
        <time>2016-06-09T15:32:30Z</time>
      </trkpt>
      <trkpt lat="43.115758" lon="-2.091120">
        <ele>105.332</ele>
        <time>2016-06-09T15:32:44Z</time>
      </trkpt>
      <trkpt lat="43.114962" lon="-2.090773">
        <ele>102.178</ele>
        <time>2016-06-09T15:32:56Z</time>
      </trkpt>
      <trkpt lat="43.113905" lon="-2.090168">
        <ele>100.656</ele>
        <time>2016-06-09T15:33:14Z</time>
      </trkpt>
      <trkpt lat="43.113132" lon="-2.089327">
        <ele>96.611</ele>
        <time>2016-06-09T15:33:30Z</time>
      </trkpt>
      <trkpt lat="43.112358" lon="-2.089285">
        <ele>99.486</ele>
        <time>2016-06-09T15:33:45Z</time>
      </trkpt>
      <trkpt lat="43.111837" lon="-2.089598">
        <ele>101.062</ele>
        <time>2016-06-09T15:33:55Z</time>
      </trkpt>
      <trkpt lat="43.111420" lon="-2.090152">
        <ele>101.587</ele>
        <time>2016-06-09T15:34:05Z</time>
      </trkpt>
      <trkpt lat="43.111328" lon="-2.090602">
        <ele>102.742</ele>
        <time>2016-06-09T15:34:11Z</time>
      </trkpt>
      <trkpt lat="43.111417" lon="-2.091545">
        <ele>106.326</ele>
        <time>2016-06-09T15:34:23Z</time>
      </trkpt>
      <trkpt lat="43.110788" lon="-2.093775">
        <ele>95.108</ele>
        <time>2016-06-09T15:34:51Z</time>
      </trkpt>
      <trkpt lat="43.110458" lon="-2.094292">
        <ele>94.419</ele>
        <time>2016-06-09T15:35:01Z</time>
      </trkpt>
      <trkpt lat="43.108907" lon="-2.095278">
        <ele>88.571</ele>
        <time>2016-06-09T15:35:30Z</time>
      </trkpt>
      <trkpt lat="43.108488" lon="-2.095403">
        <ele>89.394</ele>
        <time>2016-06-09T15:35:36Z</time>
      </trkpt>
      <trkpt lat="43.107727" lon="-2.095197">
        <ele>89.110</ele>
        <time>2016-06-09T15:35:50Z</time>
      </trkpt>
      <trkpt lat="43.106335" lon="-2.094495">
        <ele>94.998</ele>
        <time>2016-06-09T15:36:18Z</time>
      </trkpt>
      <trkpt lat="43.103130" lon="-2.095965">
        <ele>90.793</ele>
        <time>2016-06-09T15:37:14Z</time>
      </trkpt>
      <trkpt lat="43.103258" lon="-2.096320">
        <ele>92.048</ele>
        <time>2016-06-09T15:37:22Z</time>
      </trkpt>
      <trkpt lat="43.104953" lon="-2.096097">
        <ele>94.054</ele>
        <time>2016-06-09T15:37:59Z</time>
      </trkpt>
      <trkpt lat="43.106742" lon="-2.096888">
        <ele>82.454</ele>
        <time>2016-06-09T15:38:37Z</time>
      </trkpt>
      <trkpt lat="43.107085" lon="-2.096887">
        <ele>89.556</ele>
        <time>2016-06-09T15:38:46Z</time>
      </trkpt>
      <trkpt lat="43.107245" lon="-2.097053">
        <ele>94.511</ele>
        <time>2016-06-09T15:38:54Z</time>
      </trkpt>
      <trkpt lat="43.107230" lon="-2.098322">
        <ele>101.508</ele>
        <time>2016-06-09T15:39:15Z</time>
      </trkpt>
      <trkpt lat="43.107455" lon="-2.099108">
        <ele>103.326</ele>
        <time>2016-06-09T15:39:37Z</time>
      </trkpt>
      <trkpt lat="43.107223" lon="-2.100048">
        <ele>112.618</ele>
        <time>2016-06-09T15:40:08Z</time>
      </trkpt>
      <trkpt lat="43.107387" lon="-2.100398">
        <ele>120.531</ele>
        <time>2016-06-09T15:40:21Z</time>
      </trkpt>
      <trkpt lat="43.106997" lon="-2.102835">
        <ele>148.937</ele>
        <time>2016-06-09T15:42:34Z</time>
      </trkpt>
      <trkpt lat="43.107182" lon="-2.103298">
        <ele>143.395</ele>
        <time>2016-06-09T15:43:02Z</time>
      </trkpt>
      <trkpt lat="43.107115" lon="-2.103667">
        <ele>145.830</ele>
        <time>2016-06-09T15:43:27Z</time>
      </trkpt>
      <trkpt lat="43.107353" lon="-2.105540">
        <ele>168.355</ele>
        <time>2016-06-09T15:45:44Z</time>
      </trkpt>
      <trkpt lat="43.107625" lon="-2.106495">
        <ele>189.031</ele>
        <time>2016-06-09T15:47:03Z</time>
      </trkpt>
      <trkpt lat="43.107112" lon="-2.107385">
        <ele>188.969</ele>
        <time>2016-06-09T15:47:24Z</time>
      </trkpt>
      <trkpt lat="43.107042" lon="-2.107798">
        <ele>186.804</ele>
        <time>2016-06-09T15:47:27Z</time>
      </trkpt>
      <trkpt lat="43.107902" lon="-2.109840">
        <ele>200.624</ele>
        <time>2016-06-09T15:49:22Z</time>
      </trkpt>
      <trkpt lat="43.108180" lon="-2.110192">
        <ele>206.608</ele>
        <time>2016-06-09T15:49:52Z</time>
      </trkpt>
      <trkpt lat="43.108553" lon="-2.110362">
        <ele>212.387</ele>
        <time>2016-06-09T15:50:22Z</time>
      </trkpt>
      <trkpt lat="43.109118" lon="-2.111248">
        <ele>227.069</ele>
        <time>2016-06-09T15:51:34Z</time>
      </trkpt>
      <trkpt lat="43.108953" lon="-2.110292">
        <ele>234.972</ele>
        <time>2016-06-09T15:52:27Z</time>
      </trkpt>
      <trkpt lat="43.108627" lon="-2.109588">
        <ele>240.878</ele>
        <time>2016-06-09T15:53:03Z</time>
      </trkpt>
      <trkpt lat="43.108752" lon="-2.108475">
        <ele>240.936</ele>
        <time>2016-06-09T15:54:04Z</time>
      </trkpt>
      <trkpt lat="43.109162" lon="-2.108372">
        <ele>241.981</ele>
        <time>2016-06-09T15:54:22Z</time>
      </trkpt>
      <trkpt lat="43.110045" lon="-2.109217">
        <ele>244.336</ele>
        <time>2016-06-09T15:54:42Z</time>
      </trkpt>
      <trkpt lat="43.110263" lon="-2.109255">
        <ele>242.962</ele>
        <time>2016-06-09T15:54:46Z</time>
      </trkpt>
      <trkpt lat="43.110443" lon="-2.108638">
        <ele>241.852</ele>
        <time>2016-06-09T15:54:54Z</time>
      </trkpt>
      <trkpt lat="43.110213" lon="-2.108050">
        <ele>243.253</ele>
        <time>2016-06-09T15:55:14Z</time>
      </trkpt>
      <trkpt lat="43.110428" lon="-2.106660">
        <ele>242.108</ele>
        <time>2016-06-09T15:56:00Z</time>
      </trkpt>
      <trkpt lat="43.110622" lon="-2.106583">
        <ele>243.308</ele>
        <time>2016-06-09T15:56:10Z</time>
      </trkpt>
      <trkpt lat="43.111008" lon="-2.106822">
        <ele>243.326</ele>
        <time>2016-06-09T15:56:29Z</time>
      </trkpt>
      <trkpt lat="43.111697" lon="-2.106875">
        <ele>250.838</ele>
        <time>2016-06-09T15:57:03Z</time>
      </trkpt>
      <trkpt lat="43.112858" lon="-2.107808">
        <ele>259.121</ele>
        <time>2016-06-09T15:58:54Z</time>
      </trkpt>
      <trkpt lat="43.114008" lon="-2.108132">
        <ele>268.817</ele>
        <time>2016-06-09T16:00:14Z</time>
      </trkpt>
      <trkpt lat="43.114238" lon="-2.107710">
        <ele>281.315</ele>
        <time>2016-06-09T16:00:36Z</time>
      </trkpt>
      <trkpt lat="43.113567" lon="-2.106603">
        <ele>304.140</ele>
        <time>2016-06-09T16:01:56Z</time>
      </trkpt>
      <trkpt lat="43.113665" lon="-2.106228">
        <ele>307.815</ele>
        <time>2016-06-09T16:02:17Z</time>
      </trkpt>
      <trkpt lat="43.114325" lon="-2.105737">
        <ele>314.621</ele>
        <time>2016-06-09T16:03:11Z</time>
      </trkpt>
      <trkpt lat="43.114232" lon="-2.105150">
        <ele>313.099</ele>
        <time>2016-06-09T16:03:42Z</time>
      </trkpt>
      <trkpt lat="43.114358" lon="-2.105047">
        <ele>313.807</ele>
        <time>2016-06-09T16:03:59Z</time>
      </trkpt>
      <trkpt lat="43.114563" lon="-2.105490">
        <ele>315.827</ele>
        <time>2016-06-09T16:04:25Z</time>
      </trkpt>
      <trkpt lat="43.114407" lon="-2.106627">
        <ele>344.208</ele>
        <time>2016-06-09T16:05:17Z</time>
      </trkpt>
      <trkpt lat="43.114735" lon="-2.106905">
        <ele>342.730</ele>
        <time>2016-06-09T16:05:44Z</time>
      </trkpt>
      <trkpt lat="43.115495" lon="-2.107032">
        <ele>340.942</ele>
        <time>2016-06-09T16:06:40Z</time>
      </trkpt>
      <trkpt lat="43.115702" lon="-2.107290">
        <ele>342.275</ele>
        <time>2016-06-09T16:07:02Z</time>
      </trkpt>
      <trkpt lat="43.115488" lon="-2.107905">
        <ele>352.891</ele>
        <time>2016-06-09T16:07:33Z</time>
      </trkpt>
      <trkpt lat="43.115568" lon="-2.108275">
        <ele>364.689</ele>
        <time>2016-06-09T16:07:48Z</time>
      </trkpt>
      <trkpt lat="43.115168" lon="-2.108710">
        <ele>373.834</ele>
        <time>2016-06-09T16:08:08Z</time>
      </trkpt>
      <trkpt lat="43.114928" lon="-2.109473">
        <ele>375.029</ele>
        <time>2016-06-09T16:08:28Z</time>
      </trkpt>
      <trkpt lat="43.114720" lon="-2.109607">
        <ele>374.345</ele>
        <time>2016-06-09T16:08:34Z</time>
      </trkpt>
      <trkpt lat="43.114243" lon="-2.109543">
        <ele>374.535</ele>
        <time>2016-06-09T16:08:46Z</time>
      </trkpt>
      <trkpt lat="43.113840" lon="-2.109823">
        <ele>372.286</ele>
        <time>2016-06-09T16:08:58Z</time>
      </trkpt>
      <trkpt lat="43.113720" lon="-2.111493">
        <ele>379.014</ele>
        <time>2016-06-09T16:09:30Z</time>
      </trkpt>
      <trkpt lat="43.112790" lon="-2.112620">
        <ele>393.108</ele>
        <time>2016-06-09T16:10:35Z</time>
      </trkpt>
      <trkpt lat="43.112540" lon="-2.113500">
        <ele>399.274</ele>
        <time>2016-06-09T16:11:22Z</time>
      </trkpt>
      <trkpt lat="43.112880" lon="-2.113295">
        <ele>401.716</ele>
        <time>2016-06-09T16:11:57Z</time>
      </trkpt>
      <trkpt lat="43.113055" lon="-2.114205">
        <ele>414.529</ele>
        <time>2016-06-09T16:13:19Z</time>
      </trkpt>
      <trkpt lat="43.113475" lon="-2.113493">
        <ele>420.895</ele>
        <time>2016-06-09T16:14:24Z</time>
      </trkpt>
      <trkpt lat="43.113880" lon="-2.113123">
        <ele>429.333</ele>
        <time>2016-06-09T16:15:12Z</time>
      </trkpt>
      <trkpt lat="43.114892" lon="-2.113450">
        <ele>446.938</ele>
        <time>2016-06-09T16:16:54Z</time>
      </trkpt>
      <trkpt lat="43.115158" lon="-2.113082">
        <ele>454.383</ele>
        <time>2016-06-09T16:17:28Z</time>
      </trkpt>
      <trkpt lat="43.115418" lon="-2.111853">
        <ele>474.899</ele>
        <time>2016-06-09T16:19:08Z</time>
      </trkpt>
      <trkpt lat="43.115742" lon="-2.111592">
        <ele>486.045</ele>
        <time>2016-06-09T16:19:49Z</time>
      </trkpt>
      <trkpt lat="43.116285" lon="-2.111538">
        <ele>488.847</ele>
        <time>2016-06-09T16:20:36Z</time>
      </trkpt>
      <trkpt lat="43.116570" lon="-2.111185">
        <ele>491.611</ele>
        <time>2016-06-09T16:21:10Z</time>
      </trkpt>
      <trkpt lat="43.116128" lon="-2.112838">
        <ele>529.608</ele>
        <time>2016-06-09T16:23:32Z</time>
      </trkpt>
      <trkpt lat="43.115872" lon="-2.114802">
        <ele>542.045</ele>
        <time>2016-06-09T16:25:09Z</time>
      </trkpt>
      <trkpt lat="43.115302" lon="-2.115532">
        <ele>543.167</ele>
        <time>2016-06-09T16:26:17Z</time>
      </trkpt>
      <trkpt lat="43.115598" lon="-2.117057">
        <ele>551.790</ele>
        <time>2016-06-09T16:27:57Z</time>
      </trkpt>
      <trkpt lat="43.115355" lon="-2.117778">
        <ele>555.636</ele>
        <time>2016-06-09T16:28:46Z</time>
      </trkpt>
      <trkpt lat="43.115228" lon="-2.119225">
        <ele>556.514</ele>
        <time>2016-06-09T16:30:05Z</time>
      </trkpt>
      <trkpt lat="43.115345" lon="-2.119575">
        <ele>557.099</ele>
        <time>2016-06-09T16:30:23Z</time>
      </trkpt>
      <trkpt lat="43.115608" lon="-2.125200">
        <ele>621.784</ele>
        <time>2016-06-09T16:34:59Z</time>
      </trkpt>
      <trkpt lat="43.116198" lon="-2.131037">
        <ele>633.140</ele>
        <time>2016-06-09T16:36:41Z</time>
      </trkpt>
      <trkpt lat="43.116138" lon="-2.131688">
        <ele>624.475</ele>
        <time>2016-06-09T16:37:24Z</time>
      </trkpt>
      <trkpt lat="43.116408" lon="-2.132040">
        <ele>618.428</ele>
        <time>2016-06-09T16:38:03Z</time>
      </trkpt>
      <trkpt lat="43.117202" lon="-2.132425">
        <ele>618.020</ele>
        <time>2016-06-09T16:39:44Z</time>
      </trkpt>
      <trkpt lat="43.117993" lon="-2.133122">
        <ele>626.708</ele>
        <time>2016-06-09T16:41:38Z</time>
      </trkpt>
      <trkpt lat="43.117552" lon="-2.135773">
        <ele>632.818</ele>
        <time>2016-06-09T16:44:17Z</time>
      </trkpt>
      <trkpt lat="43.117795" lon="-2.139352">
        <ele>679.950</ele>
        <time>2016-06-09T16:47:52Z</time>
      </trkpt>
      <trkpt lat="43.117572" lon="-2.141518">
        <ele>685.793</ele>
        <time>2016-06-09T16:49:33Z</time>
      </trkpt>
      <trkpt lat="43.116825" lon="-2.143000">
        <ele>690.629</ele>
        <time>2016-06-09T16:52:37Z</time>
      </trkpt>
      <trkpt lat="43.116528" lon="-2.144288">
        <ele>719.237</ele>
        <time>2016-06-09T16:57:20Z</time>
      </trkpt>
      <trkpt lat="43.115697" lon="-2.146252">
        <ele>717.122</ele>
        <time>2016-06-09T16:57:58Z</time>
      </trkpt>
      <trkpt lat="43.116008" lon="-2.148637">
        <ele>695.957</ele>
        <time>2016-06-09T16:58:31Z</time>
      </trkpt>
      <trkpt lat="43.115848" lon="-2.150375">
        <ele>675.433</ele>
        <time>2016-06-09T16:58:45Z</time>
      </trkpt>
      <trkpt lat="43.116053" lon="-2.150837">
        <ele>665.876</ele>
        <time>2016-06-09T16:58:51Z</time>
      </trkpt>
      <trkpt lat="43.116450" lon="-2.151225">
        <ele>654.990</ele>
        <time>2016-06-09T16:58:59Z</time>
      </trkpt>
      <trkpt lat="43.116477" lon="-2.151562">
        <ele>650.319</ele>
        <time>2016-06-09T16:59:03Z</time>
      </trkpt>
      <trkpt lat="43.116273" lon="-2.151760">
        <ele>647.208</ele>
        <time>2016-06-09T16:59:07Z</time>
      </trkpt>
      <trkpt lat="43.115578" lon="-2.151460">
        <ele>637.088</ele>
        <time>2016-06-09T16:59:17Z</time>
      </trkpt>
      <trkpt lat="43.114908" lon="-2.151805">
        <ele>629.020</ele>
        <time>2016-06-09T16:59:25Z</time>
      </trkpt>
      <trkpt lat="43.114682" lon="-2.152305">
        <ele>621.723</ele>
        <time>2016-06-09T16:59:31Z</time>
      </trkpt>
      <trkpt lat="43.113972" lon="-2.152937">
        <ele>612.399</ele>
        <time>2016-06-09T16:59:40Z</time>
      </trkpt>
      <trkpt lat="43.113733" lon="-2.153750">
        <ele>605.867</ele>
        <time>2016-06-09T16:59:49Z</time>
      </trkpt>
      <trkpt lat="43.113377" lon="-2.153908">
        <ele>600.752</ele>
        <time>2016-06-09T16:59:55Z</time>
      </trkpt>
      <trkpt lat="43.112882" lon="-2.153810">
        <ele>593.037</ele>
        <time>2016-06-09T17:00:01Z</time>
      </trkpt>
      <trkpt lat="43.112572" lon="-2.154003">
        <ele>588.893</ele>
        <time>2016-06-09T17:00:05Z</time>
      </trkpt>
      <trkpt lat="43.111645" lon="-2.155585">
        <ele>581.849</ele>
        <time>2016-06-09T17:00:17Z</time>
      </trkpt>
      <trkpt lat="43.111763" lon="-2.156193">
        <ele>582.002</ele>
        <time>2016-06-09T17:00:23Z</time>
      </trkpt>
      <trkpt lat="43.111592" lon="-2.156805">
        <ele>577.522</ele>
        <time>2016-06-09T17:00:32Z</time>
      </trkpt>
      <trkpt lat="43.111960" lon="-2.156543">
        <ele>571.808</ele>
        <time>2016-06-09T17:00:41Z</time>
      </trkpt>
      <trkpt lat="43.112287" lon="-2.155670">
        <ele>563.695</ele>
        <time>2016-06-09T17:00:53Z</time>
      </trkpt>
      <trkpt lat="43.112825" lon="-2.155352">
        <ele>557.737</ele>
        <time>2016-06-09T17:01:02Z</time>
      </trkpt>
      <trkpt lat="43.114228" lon="-2.155642">
        <ele>545.720</ele>
        <time>2016-06-09T17:01:19Z</time>
      </trkpt>
      <trkpt lat="43.113265" lon="-2.155955">
        <ele>530.546</ele>
        <time>2016-06-09T17:01:35Z</time>
      </trkpt>
      <trkpt lat="43.113043" lon="-2.156118">
        <ele>526.174</ele>
        <time>2016-06-09T17:01:39Z</time>
      </trkpt>
      <trkpt lat="43.113098" lon="-2.156240">
        <ele>523.089</ele>
        <time>2016-06-09T17:01:42Z</time>
      </trkpt>
      <trkpt lat="43.113748" lon="-2.156255">
        <ele>514.554</ele>
        <time>2016-06-09T17:01:52Z</time>
      </trkpt>
      <trkpt lat="43.115085" lon="-2.156917">
        <ele>499.250</ele>
        <time>2016-06-09T17:02:10Z</time>
      </trkpt>
      <trkpt lat="43.115993" lon="-2.159197">
        <ele>457.895</ele>
        <time>2016-06-09T17:02:39Z</time>
      </trkpt>
      <trkpt lat="43.115573" lon="-2.159250">
        <ele>445.049</ele>
        <time>2016-06-09T17:03:26Z</time>
      </trkpt>
      <trkpt lat="43.115052" lon="-2.159680">
        <ele>443.923</ele>
        <time>2016-06-09T17:03:54Z</time>
      </trkpt>
      <trkpt lat="43.114685" lon="-2.160138">
        <ele>443.408</ele>
        <time>2016-06-09T17:04:16Z</time>
      </trkpt>
      <trkpt lat="43.114180" lon="-2.161228">
        <ele>459.120</ele>
        <time>2016-06-09T17:04:53Z</time>
      </trkpt>
      <trkpt lat="43.112747" lon="-2.162830">
        <ele>475.732</ele>
        <time>2016-06-09T17:06:19Z</time>
      </trkpt>
      <trkpt lat="43.112187" lon="-2.162987">
        <ele>475.095</ele>
        <time>2016-06-09T17:06:49Z</time>
      </trkpt>
      <trkpt lat="43.111777" lon="-2.162587">
        <ele>477.411</ele>
        <time>2016-06-09T17:07:13Z</time>
      </trkpt>
      <trkpt lat="43.111083" lon="-2.163130">
        <ele>486.439</ele>
        <time>2016-06-09T17:07:51Z</time>
      </trkpt>
      <trkpt lat="43.110620" lon="-2.163187">
        <ele>494.834</ele>
        <time>2016-06-09T17:08:18Z</time>
      </trkpt>
      <trkpt lat="43.108967" lon="-2.162950">
        <ele>515.139</ele>
        <time>2016-06-09T17:09:46Z</time>
      </trkpt>
      <trkpt lat="43.108795" lon="-2.163085">
        <ele>515.325</ele>
        <time>2016-06-09T17:09:56Z</time>
      </trkpt>
      <trkpt lat="43.108638" lon="-2.163595">
        <ele>516.335</ele>
        <time>2016-06-09T17:10:13Z</time>
      </trkpt>
      <trkpt lat="43.107980" lon="-2.164273">
        <ele>520.586</ele>
        <time>2016-06-09T17:10:46Z</time>
      </trkpt>
      <trkpt lat="43.108148" lon="-2.165003">
        <ele>520.914</ele>
        <time>2016-06-09T17:11:07Z</time>
      </trkpt>
      <trkpt lat="43.108682" lon="-2.165865">
        <ele>520.508</ele>
        <time>2016-06-09T17:11:36Z</time>
      </trkpt>
      <trkpt lat="43.108647" lon="-2.166538">
        <ele>529.514</ele>
        <time>2016-06-09T17:11:58Z</time>
      </trkpt>
      <trkpt lat="43.107778" lon="-2.167937">
        <ele>531.126</ele>
        <time>2016-06-09T17:12:51Z</time>
      </trkpt>
      <trkpt lat="43.107243" lon="-2.168420">
        <ele>536.079</ele>
        <time>2016-06-09T17:13:09Z</time>
      </trkpt>
      <trkpt lat="43.107003" lon="-2.169278">
        <ele>536.685</ele>
        <time>2016-06-09T17:13:23Z</time>
      </trkpt>
      <trkpt lat="43.106977" lon="-2.170158">
        <ele>538.053</ele>
        <time>2016-06-09T17:13:36Z</time>
      </trkpt>
      <trkpt lat="43.106803" lon="-2.170362">
        <ele>538.618</ele>
        <time>2016-06-09T17:13:40Z</time>
      </trkpt>
      <trkpt lat="43.106200" lon="-2.170522">
        <ele>538.983</ele>
        <time>2016-06-09T17:13:50Z</time>
      </trkpt>
      <trkpt lat="43.105663" lon="-2.171020">
        <ele>539.219</ele>
        <time>2016-06-09T17:13:58Z</time>
      </trkpt>
      <trkpt lat="43.105372" lon="-2.172012">
        <ele>537.815</ele>
        <time>2016-06-09T17:14:08Z</time>
      </trkpt>
      <trkpt lat="43.105573" lon="-2.172258">
        <ele>537.865</ele>
        <time>2016-06-09T17:14:12Z</time>
      </trkpt>
      <trkpt lat="43.106700" lon="-2.172513">
        <ele>527.611</ele>
        <time>2016-06-09T17:14:25Z</time>
      </trkpt>
      <trkpt lat="43.107133" lon="-2.172777">
        <ele>524.108</ele>
        <time>2016-06-09T17:14:30Z</time>
      </trkpt>
      <trkpt lat="43.107298" lon="-2.173052">
        <ele>520.812</ele>
        <time>2016-06-09T17:14:34Z</time>
      </trkpt>
      <trkpt lat="43.106383" lon="-2.175062">
        <ele>514.744</ele>
        <time>2016-06-09T17:14:55Z</time>
      </trkpt>
      <trkpt lat="43.105502" lon="-2.175610">
        <ele>522.037</ele>
        <time>2016-06-09T17:15:19Z</time>
      </trkpt>
      <trkpt lat="43.105610" lon="-2.175595">
        <ele>520.543</ele>
        <time>2016-06-09T17:15:30Z</time>
      </trkpt>
      <trkpt lat="43.105387" lon="-2.175358">
        <ele>523.351</ele>
        <time>2016-06-09T17:15:48Z</time>
      </trkpt>
      <trkpt lat="43.105613" lon="-2.175612">
        <ele>525.456</ele>
        <time>2016-06-09T17:17:51Z</time>
      </trkpt>
      <trkpt lat="43.106052" lon="-2.175310">
        <ele>522.871</ele>
        <time>2016-06-09T17:18:02Z</time>
      </trkpt>
      <trkpt lat="43.105803" lon="-2.175783">
        <ele>518.567</ele>
        <time>2016-06-09T17:18:12Z</time>
      </trkpt>
      <trkpt lat="43.105020" lon="-2.175970">
        <ele>511.576</ele>
        <time>2016-06-09T17:18:22Z</time>
      </trkpt>
      <trkpt lat="43.104572" lon="-2.175813">
        <ele>505.890</ele>
        <time>2016-06-09T17:18:28Z</time>
      </trkpt>
      <trkpt lat="43.104418" lon="-2.175563">
        <ele>500.619</ele>
        <time>2016-06-09T17:18:32Z</time>
      </trkpt>
      <trkpt lat="43.104538" lon="-2.174833">
        <ele>489.408</ele>
        <time>2016-06-09T17:18:40Z</time>
      </trkpt>
      <trkpt lat="43.104445" lon="-2.174818">
        <ele>483.898</ele>
        <time>2016-06-09T17:18:46Z</time>
      </trkpt>
      <trkpt lat="43.103982" lon="-2.175945">
        <ele>472.060</ele>
        <time>2016-06-09T17:19:00Z</time>
      </trkpt>
      <trkpt lat="43.103787" lon="-2.176038">
        <ele>467.963</ele>
        <time>2016-06-09T17:19:04Z</time>
      </trkpt>
      <trkpt lat="43.104553" lon="-2.176910">
        <ele>449.119</ele>
        <time>2016-06-09T17:19:26Z</time>
      </trkpt>
      <trkpt lat="43.105548" lon="-2.177678">
        <ele>429.787</ele>
        <time>2016-06-09T17:19:44Z</time>
      </trkpt>
      <trkpt lat="43.106205" lon="-2.177798">
        <ele>416.552</ele>
        <time>2016-06-09T17:19:55Z</time>
      </trkpt>
      <trkpt lat="43.106030" lon="-2.179370">
        <ele>397.197</ele>
        <time>2016-06-09T17:20:30Z</time>
      </trkpt>
      <trkpt lat="43.105652" lon="-2.180075">
        <ele>387.233</ele>
        <time>2016-06-09T17:20:45Z</time>
      </trkpt>
      <trkpt lat="43.104603" lon="-2.180145">
        <ele>384.979</ele>
        <time>2016-06-09T17:21:07Z</time>
      </trkpt>
      <trkpt lat="43.104448" lon="-2.180278">
        <ele>379.605</ele>
        <time>2016-06-09T17:21:14Z</time>
      </trkpt>
      <trkpt lat="43.104622" lon="-2.180685">
        <ele>376.825</ele>
        <time>2016-06-09T17:21:21Z</time>
      </trkpt>
      <trkpt lat="43.106275" lon="-2.181923">
        <ele>340.208</ele>
        <time>2016-06-09T17:22:14Z</time>
      </trkpt>
      <trkpt lat="43.104030" lon="-2.182407">
        <ele>322.058</ele>
        <time>2016-06-09T17:23:10Z</time>
      </trkpt>
      <trkpt lat="43.103823" lon="-2.182328">
        <ele>320.130</ele>
        <time>2016-06-09T17:23:14Z</time>
      </trkpt>
      <trkpt lat="43.103143" lon="-2.181438">
        <ele>317.933</ele>
        <time>2016-06-09T17:23:35Z</time>
      </trkpt>
      <trkpt lat="43.102695" lon="-2.181193">
        <ele>316.339</ele>
        <time>2016-06-09T17:23:43Z</time>
      </trkpt>
      <trkpt lat="43.102492" lon="-2.180847">
        <ele>313.167</ele>
        <time>2016-06-09T17:23:52Z</time>
      </trkpt>
      <trkpt lat="43.101875" lon="-2.181088">
        <ele>301.212</ele>
        <time>2016-06-09T17:24:28Z</time>
      </trkpt>
      <trkpt lat="43.101247" lon="-2.180570">
        <ele>293.327</ele>
        <time>2016-06-09T17:24:41Z</time>
      </trkpt>
      <trkpt lat="43.099993" lon="-2.180785">
        <ele>281.883</ele>
        <time>2016-06-09T17:25:06Z</time>
      </trkpt>
      <trkpt lat="43.099297" lon="-2.180338">
        <ele>265.022</ele>
        <time>2016-06-09T17:25:30Z</time>
      </trkpt>
      <trkpt lat="43.098542" lon="-2.180592">
        <ele>259.162</ele>
        <time>2016-06-09T17:25:39Z</time>
      </trkpt>
      <trkpt lat="43.097543" lon="-2.180158">
        <ele>243.708</ele>
        <time>2016-06-09T17:25:57Z</time>
      </trkpt>
      <trkpt lat="43.097132" lon="-2.179330">
        <ele>232.708</ele>
        <time>2016-06-09T17:26:10Z</time>
      </trkpt>
      <trkpt lat="43.096150" lon="-2.178595">
        <ele>222.343</ele>
        <time>2016-06-09T17:26:25Z</time>
      </trkpt>
      <trkpt lat="43.095595" lon="-2.177308">
        <ele>214.255</ele>
        <time>2016-06-09T17:26:36Z</time>
      </trkpt>
      <trkpt lat="43.094485" lon="-2.176328">
        <ele>206.658</ele>
        <time>2016-06-09T17:26:50Z</time>
      </trkpt>
      <trkpt lat="43.094087" lon="-2.175325">
        <ele>204.714</ele>
        <time>2016-06-09T17:26:59Z</time>
      </trkpt>
      <trkpt lat="43.093678" lon="-2.174777">
        <ele>201.822</ele>
        <time>2016-06-09T17:27:05Z</time>
      </trkpt>
      <trkpt lat="43.092157" lon="-2.171855">
        <ele>193.927</ele>
        <time>2016-06-09T17:27:33Z</time>
      </trkpt>
      <trkpt lat="43.091365" lon="-2.170757">
        <ele>190.072</ele>
        <time>2016-06-09T17:27:45Z</time>
      </trkpt>
      <trkpt lat="43.091523" lon="-2.170302">
        <ele>191.088</ele>
        <time>2016-06-09T17:27:47Z</time>
      </trkpt>
      <trkpt lat="43.090780" lon="-2.169882">
        <ele>188.178</ele>
        <time>2016-06-09T17:27:56Z</time>
      </trkpt>
      <trkpt lat="43.090637" lon="-2.169625">
        <ele>187.133</ele>
        <time>2016-06-09T17:28:00Z</time>
      </trkpt>
      <trkpt lat="43.090650" lon="-2.169110">
        <ele>185.726</ele>
        <time>2016-06-09T17:28:05Z</time>
      </trkpt>
      <trkpt lat="43.089738" lon="-2.168047">
        <ele>179.708</ele>
        <time>2016-06-09T17:28:18Z</time>
      </trkpt>
      <trkpt lat="43.088795" lon="-2.167565">
        <ele>175.088</ele>
        <time>2016-06-09T17:28:29Z</time>
      </trkpt>
      <trkpt lat="43.088315" lon="-2.168312">
        <ele>170.260</ele>
        <time>2016-06-09T17:28:38Z</time>
      </trkpt>
      <trkpt lat="43.087660" lon="-2.168095">
        <ele>165.393</ele>
        <time>2016-06-09T17:28:46Z</time>
      </trkpt>
      <trkpt lat="43.087072" lon="-2.168252">
        <ele>162.999</ele>
        <time>2016-06-09T17:28:53Z</time>
      </trkpt>
      <trkpt lat="43.086787" lon="-2.167997">
        <ele>160.897</ele>
        <time>2016-06-09T17:28:57Z</time>
      </trkpt>
      <trkpt lat="43.086478" lon="-2.167212">
        <ele>157.332</ele>
        <time>2016-06-09T17:29:04Z</time>
      </trkpt>
      <trkpt lat="43.086242" lon="-2.167102">
        <ele>156.497</ele>
        <time>2016-06-09T17:29:07Z</time>
      </trkpt>
      <trkpt lat="43.085360" lon="-2.167998">
        <ele>151.583</ele>
        <time>2016-06-09T17:29:20Z</time>
      </trkpt>
      <trkpt lat="43.084397" lon="-2.167743">
        <ele>145.986</ele>
        <time>2016-06-09T17:29:32Z</time>
      </trkpt>
      <trkpt lat="43.083628" lon="-2.167930">
        <ele>146.160</ele>
        <time>2016-06-09T17:29:42Z</time>
      </trkpt>
      <trkpt lat="43.083230" lon="-2.167670">
        <ele>142.926</ele>
        <time>2016-06-09T17:29:48Z</time>
      </trkpt>
      <trkpt lat="43.082835" lon="-2.167085">
        <ele>139.608</ele>
        <time>2016-06-09T17:29:56Z</time>
      </trkpt>
      <trkpt lat="43.081545" lon="-2.167067">
        <ele>138.819</ele>
        <time>2016-06-09T17:30:14Z</time>
      </trkpt>
      <trkpt lat="43.081127" lon="-2.166515">
        <ele>138.221</ele>
        <time>2016-06-09T17:30:22Z</time>
      </trkpt>
      <trkpt lat="43.080845" lon="-2.165580">
        <ele>137.534</ele>
        <time>2016-06-09T17:30:32Z</time>
      </trkpt>
      <trkpt lat="43.080153" lon="-2.165297">
        <ele>138.080</ele>
        <time>2016-06-09T17:30:44Z</time>
      </trkpt>
      <trkpt lat="43.079480" lon="-2.164780">
        <ele>140.168</ele>
        <time>2016-06-09T17:31:00Z</time>
      </trkpt>
      <trkpt lat="43.078953" lon="-2.164805">
        <ele>143.933</ele>
        <time>2016-06-09T17:31:10Z</time>
      </trkpt>
      <trkpt lat="43.078770" lon="-2.164680">
        <ele>143.918</ele>
        <time>2016-06-09T17:31:14Z</time>
      </trkpt>
      <trkpt lat="43.078062" lon="-2.163422">
        <ele>140.674</ele>
        <time>2016-06-09T17:31:32Z</time>
      </trkpt>
      <trkpt lat="43.077713" lon="-2.163117">
        <ele>137.093</ele>
        <time>2016-06-09T17:31:38Z</time>
      </trkpt>
      <trkpt lat="43.077560" lon="-2.161968">
        <ele>133.365</ele>
        <time>2016-06-09T17:31:48Z</time>
      </trkpt>
      <trkpt lat="43.076740" lon="-2.160748">
        <ele>128.121</ele>
        <time>2016-06-09T17:32:01Z</time>
      </trkpt>
      <trkpt lat="43.076967" lon="-2.159820">
        <ele>126.408</ele>
        <time>2016-06-09T17:32:13Z</time>
      </trkpt>
      <trkpt lat="43.079620" lon="-2.159095">
        <ele>128.360</ele>
        <time>2016-06-09T17:32:57Z</time>
      </trkpt>
      <trkpt lat="43.080015" lon="-2.158808">
        <ele>131.292</ele>
        <time>2016-06-09T17:33:05Z</time>
      </trkpt>
      <trkpt lat="43.080442" lon="-2.157725">
        <ele>127.585</ele>
        <time>2016-06-09T17:33:19Z</time>
      </trkpt>
      <trkpt lat="43.080447" lon="-2.154738">
        <ele>127.961</ele>
        <time>2016-06-09T17:33:55Z</time>
      </trkpt>
      <trkpt lat="43.080672" lon="-2.154033">
        <ele>128.449</ele>
        <time>2016-06-09T17:34:05Z</time>
      </trkpt>
      <trkpt lat="43.081217" lon="-2.153620">
        <ele>126.074</ele>
        <time>2016-06-09T17:34:15Z</time>
      </trkpt>
      <trkpt lat="43.082988" lon="-2.153755">
        <ele>137.799</ele>
        <time>2016-06-09T17:34:41Z</time>
      </trkpt>
      <trkpt lat="43.083385" lon="-2.153640">
        <ele>136.055</ele>
        <time>2016-06-09T17:34:47Z</time>
      </trkpt>
      <trkpt lat="43.085595" lon="-2.151368">
        <ele>127.334</ele>
        <time>2016-06-09T17:35:30Z</time>
      </trkpt>
      <trkpt lat="43.086320" lon="-2.148802">
        <ele>124.455</ele>
        <time>2016-06-09T17:36:04Z</time>
      </trkpt>
      <trkpt lat="43.086185" lon="-2.147625">
        <ele>121.910</ele>
        <time>2016-06-09T17:36:21Z</time>
      </trkpt>
      <trkpt lat="43.084477" lon="-2.143838">
        <ele>126.208</ele>
        <time>2016-06-09T17:37:36Z</time>
      </trkpt>
      <trkpt lat="43.084373" lon="-2.143198">
        <ele>125.824</ele>
        <time>2016-06-09T17:37:46Z</time>
      </trkpt>
      <trkpt lat="43.085377" lon="-2.141112">
        <ele>117.536</ele>
        <time>2016-06-09T17:38:08Z</time>
      </trkpt>
      <trkpt lat="43.085467" lon="-2.140385">
        <ele>118.629</ele>
        <time>2016-06-09T17:38:16Z</time>
      </trkpt>
      <trkpt lat="43.085910" lon="-2.140117">
        <ele>115.985</ele>
        <time>2016-06-09T17:38:24Z</time>
      </trkpt>
      <trkpt lat="43.086778" lon="-2.138043">
        <ele>117.253</ele>
        <time>2016-06-09T17:38:52Z</time>
      </trkpt>
      <trkpt lat="43.088460" lon="-2.133408">
        <ele>126.968</ele>
        <time>2016-06-09T17:39:52Z</time>
      </trkpt>
      <trkpt lat="43.088668" lon="-2.132020">
        <ele>120.913</ele>
        <time>2016-06-09T17:40:08Z</time>
      </trkpt>
      <trkpt lat="43.088472" lon="-2.131205">
        <ele>118.919</ele>
        <time>2016-06-09T17:40:18Z</time>
      </trkpt>
      <trkpt lat="43.088008" lon="-2.130442">
        <ele>117.694</ele>
        <time>2016-06-09T17:40:30Z</time>
      </trkpt>
      <trkpt lat="43.084835" lon="-2.127902">
        <ele>115.757</ele>
        <time>2016-06-09T17:41:33Z</time>
      </trkpt>
      <trkpt lat="43.084635" lon="-2.127307">
        <ele>114.522</ele>
        <time>2016-06-09T17:41:41Z</time>
      </trkpt>
      <trkpt lat="43.084625" lon="-2.125848">
        <ele>114.808</ele>
        <time>2016-06-09T17:41:59Z</time>
      </trkpt>
      <trkpt lat="43.085230" lon="-2.124565">
        <ele>113.630</ele>
        <time>2016-06-09T17:42:17Z</time>
      </trkpt>
      <trkpt lat="43.086777" lon="-2.123407">
        <ele>107.362</ele>
        <time>2016-06-09T17:42:45Z</time>
      </trkpt>
      <trkpt lat="43.087305" lon="-2.123422">
        <ele>106.765</ele>
        <time>2016-06-09T17:42:53Z</time>
      </trkpt>
      <trkpt lat="43.087968" lon="-2.123648">
        <ele>103.251</ele>
        <time>2016-06-09T17:43:03Z</time>
      </trkpt>
      <trkpt lat="43.093105" lon="-2.125712">
        <ele>104.549</ele>
        <time>2016-06-09T17:44:35Z</time>
      </trkpt>
      <trkpt lat="43.093792" lon="-2.125417">
        <ele>110.064</ele>
        <time>2016-06-09T17:44:53Z</time>
      </trkpt>
      <trkpt lat="43.094632" lon="-2.124247">
        <ele>118.099</ele>
        <time>2016-06-09T17:45:23Z</time>
      </trkpt>
      <trkpt lat="43.095047" lon="-2.123345">
        <ele>127.575</ele>
        <time>2016-06-09T17:45:40Z</time>
      </trkpt>
      <trkpt lat="43.095595" lon="-2.121450">
        <ele>118.217</ele>
        <time>2016-06-09T17:46:02Z</time>
      </trkpt>
      <trkpt lat="43.096293" lon="-2.116070">
        <ele>105.187</ele>
        <time>2016-06-09T17:46:58Z</time>
      </trkpt>
      <trkpt lat="43.099518" lon="-2.108735">
        <ele>101.815</ele>
        <time>2016-06-09T17:48:40Z</time>
      </trkpt>
      <trkpt lat="43.100007" lon="-2.107320">
        <ele>99.508</ele>
        <time>2016-06-09T17:48:58Z</time>
      </trkpt>
      <trkpt lat="43.100277" lon="-2.100923">
        <ele>100.732</ele>
        <time>2016-06-09T17:50:18Z</time>
      </trkpt>
      <trkpt lat="43.100713" lon="-2.098908">
        <ele>102.594</ele>
        <time>2016-06-09T17:50:46Z</time>
      </trkpt>
      <trkpt lat="43.101412" lon="-2.097287">
        <ele>107.887</ele>
        <time>2016-06-09T17:51:12Z</time>
      </trkpt>
      <trkpt lat="43.102508" lon="-2.096205">
        <ele>105.173</ele>
        <time>2016-06-09T17:51:35Z</time>
      </trkpt>
      <trkpt lat="43.103463" lon="-2.095613">
        <ele>98.811</ele>
        <time>2016-06-09T17:51:53Z</time>
      </trkpt>
      <trkpt lat="43.106317" lon="-2.094428">
        <ele>93.086</ele>
        <time>2016-06-09T17:52:52Z</time>
      </trkpt>
      <trkpt lat="43.108500" lon="-2.095188">
        <ele>74.311</ele>
        <time>2016-06-09T17:53:29Z</time>
      </trkpt>
      <trkpt lat="43.109040" lon="-2.095147">
        <ele>75.997</ele>
        <time>2016-06-09T17:53:39Z</time>
      </trkpt>
      <trkpt lat="43.110492" lon="-2.094252">
        <ele>85.399</ele>
        <time>2016-06-09T17:54:11Z</time>
      </trkpt>
      <trkpt lat="43.110692" lon="-2.093890">
        <ele>88.007</ele>
        <time>2016-06-09T17:54:17Z</time>
      </trkpt>
      <trkpt lat="43.111213" lon="-2.091757">
        <ele>99.927</ele>
        <time>2016-06-09T17:54:46Z</time>
      </trkpt>
      <trkpt lat="43.111278" lon="-2.090195">
        <ele>109.108</ele>
        <time>2016-06-09T17:55:08Z</time>
      </trkpt>
      <trkpt lat="43.111628" lon="-2.089627">
        <ele>113.620</ele>
        <time>2016-06-09T17:55:18Z</time>
      </trkpt>
      <trkpt lat="43.112160" lon="-2.089340">
        <ele>114.712</ele>
        <time>2016-06-09T17:55:26Z</time>
      </trkpt>
      <trkpt lat="43.112653" lon="-2.089258">
        <ele>114.795</ele>
        <time>2016-06-09T17:55:34Z</time>
      </trkpt>
      <trkpt lat="43.113132" lon="-2.089398">
        <ele>112.621</ele>
        <time>2016-06-09T17:55:42Z</time>
      </trkpt>
      <trkpt lat="43.113795" lon="-2.090060">
        <ele>105.299</ele>
        <time>2016-06-09T17:55:56Z</time>
      </trkpt>
      <trkpt lat="43.114810" lon="-2.090685">
        <ele>97.284</ele>
        <time>2016-06-09T17:56:14Z</time>
      </trkpt>
      <trkpt lat="43.115773" lon="-2.091045">
        <ele>88.529</ele>
        <time>2016-06-09T17:56:32Z</time>
      </trkpt>
      <trkpt lat="43.116763" lon="-2.091077">
        <ele>82.545</ele>
        <time>2016-06-09T17:56:52Z</time>
      </trkpt>
      <trkpt lat="43.118597" lon="-2.089423">
        <ele>70.536</ele>
        <time>2016-06-09T17:57:29Z</time>
      </trkpt>
      <trkpt lat="43.119148" lon="-2.089392">
        <ele>67.517</ele>
        <time>2016-06-09T17:57:40Z</time>
      </trkpt>
      <trkpt lat="43.119237" lon="-2.089260">
        <ele>66.718</ele>
        <time>2016-06-09T17:57:42Z</time>
      </trkpt>
      <trkpt lat="43.120427" lon="-2.089335">
        <ele>69.308</ele>
        <time>2016-06-09T17:58:00Z</time>
      </trkpt>
      <trkpt lat="43.121718" lon="-2.088645">
        <ele>83.474</ele>
        <time>2016-06-09T17:58:36Z</time>
      </trkpt>
      <trkpt lat="43.122860" lon="-2.087593">
        <ele>89.666</ele>
        <time>2016-06-09T17:58:59Z</time>
      </trkpt>
      <trkpt lat="43.123353" lon="-2.088283">
        <ele>89.179</ele>
        <time>2016-06-09T17:59:13Z</time>
      </trkpt>
      <trkpt lat="43.123560" lon="-2.088258">
        <ele>88.385</ele>
        <time>2016-06-09T17:59:18Z</time>
      </trkpt>
      <trkpt lat="43.124567" lon="-2.087190">
        <ele>84.223</ele>
        <time>2016-06-09T17:59:42Z</time>
      </trkpt>
      <trkpt lat="43.126092" lon="-2.086377">
        <ele>82.538</ele>
        <time>2016-06-09T18:00:07Z</time>
      </trkpt>
      <trkpt lat="43.126793" lon="-2.086343">
        <ele>82.093</ele>
        <time>2016-06-09T18:00:21Z</time>
      </trkpt>
      <trkpt lat="43.128018" lon="-2.086933">
        <ele>80.879</ele>
        <time>2016-06-09T18:00:44Z</time>
      </trkpt>
      <trkpt lat="43.129128" lon="-2.086830">
        <ele>79.945</ele>
        <time>2016-06-09T18:01:06Z</time>
      </trkpt>
      <trkpt lat="43.129085" lon="-2.085013">
        <ele>79.947</ele>
        <time>2016-06-09T18:01:30Z</time>
      </trkpt>
      <trkpt lat="43.128485" lon="-2.083390">
        <ele>79.211</ele>
        <time>2016-06-09T18:05:19Z</time>
      </trkpt>
      <trkpt lat="43.128453" lon="-2.083090">
        <ele>81.708</ele>
        <time>2016-06-09T18:05:26Z</time>
      </trkpt>
      <trkpt lat="43.128567" lon="-2.083035">
        <ele>84.265</ele>
        <time>2016-06-09T18:05:31Z</time>
      </trkpt>
      <trkpt lat="43.128760" lon="-2.083042">
        <ele>83.747</ele>
        <time>2016-06-09T18:05:37Z</time>
      </trkpt>
      <trkpt lat="43.130050" lon="-2.084322">
        <ele>83.570</ele>
        <time>2016-06-09T18:06:10Z</time>
      </trkpt>
      <trkpt lat="43.130497" lon="-2.084483">
        <ele>88.186</ele>
        <time>2016-06-09T18:06:24Z</time>
      </trkpt>
      <trkpt lat="43.130873" lon="-2.085173">
        <ele>88.794</ele>
        <time>2016-06-09T18:06:34Z</time>
      </trkpt>
      <trkpt lat="43.131127" lon="-2.085115">
        <ele>87.219</ele>
        <time>2016-06-09T18:06:40Z</time>
      </trkpt>
      <trkpt lat="43.132193" lon="-2.083502">
        <ele>91.684</ele>
        <time>2016-06-09T18:07:09Z</time>
      </trkpt>
      <trkpt lat="43.132628" lon="-2.082272">
        <ele>90.340</ele>
        <time>2016-06-09T18:07:27Z</time>
      </trkpt>
      <trkpt lat="43.133153" lon="-2.079745">
        <ele>92.513</ele>
        <time>2016-06-09T18:08:07Z</time>
      </trkpt>
      <trkpt lat="43.133182" lon="-2.079043">
        <ele>90.843</ele>
        <time>2016-06-09T18:08:16Z</time>
      </trkpt>
      <trkpt lat="43.132583" lon="-2.077260">
        <ele>81.107</ele>
        <time>2016-06-09T18:08:47Z</time>
      </trkpt>
      <trkpt lat="43.132513" lon="-2.075900">
        <ele>88.608</ele>
        <time>2016-06-09T18:09:09Z</time>
      </trkpt>
      <trkpt lat="43.132863" lon="-2.074758">
        <ele>98.012</ele>
        <time>2016-06-09T18:09:28Z</time>
      </trkpt>
      <trkpt lat="43.133425" lon="-2.073715">
        <ele>101.924</ele>
        <time>2016-06-09T18:09:47Z</time>
      </trkpt>
      <trkpt lat="43.133878" lon="-2.073188">
        <ele>104.827</ele>
        <time>2016-06-09T18:09:59Z</time>
      </trkpt>
      <trkpt lat="43.133968" lon="-2.072802">
        <ele>103.623</ele>
        <time>2016-06-09T18:10:07Z</time>
      </trkpt>
      <trkpt lat="43.133423" lon="-2.071315">
        <ele>95.021</ele>
        <time>2016-06-09T18:10:31Z</time>
      </trkpt>
      <trkpt lat="43.132302" lon="-2.070342">
        <ele>89.396</ele>
        <time>2016-06-09T18:10:53Z</time>
      </trkpt>
      <trkpt lat="43.131962" lon="-2.069753">
        <ele>85.821</ele>
        <time>2016-06-09T18:11:03Z</time>
      </trkpt>
      <trkpt lat="43.131733" lon="-2.067742">
        <ele>87.067</ele>
        <time>2016-06-09T18:11:39Z</time>
      </trkpt>
      <trkpt lat="43.131275" lon="-2.067268">
        <ele>103.654</ele>
        <time>2016-06-09T18:11:57Z</time>
      </trkpt>
      <trkpt lat="43.131162" lon="-2.066308">
        <ele>119.556</ele>
        <time>2016-06-09T18:12:23Z</time>
      </trkpt>
      <trkpt lat="43.131243" lon="-2.065920">
        <ele>97.411</ele>
        <time>2016-06-09T18:13:14Z</time>
      </trkpt>
      <trkpt lat="43.131225" lon="-2.066578">
        <ele>89.708</ele>
        <time>2016-06-09T18:13:33Z</time>
      </trkpt>
      <trkpt lat="43.1313866190612316131591796875" lon="-2.0634275861084461212158203125">
        <ele>89</ele>
        <time>2019-05-21T13:14:30.000Z</time>
      </trkpt>
      <trkpt lat="43.1313841044902801513671875" lon="-2.0634295977652072906494140625">
        <ele>89</ele>
        <time>2019-05-21T13:14:31.000Z</time>
      </trkpt>
      <trkpt lat="43.13130958937108516693115234375" lon="-2.06348030827939510345458984375">
        <ele>89.40000152587890625</ele>
        <time>2019-05-21T13:14:35.000Z</time>
      </trkpt>
      <trkpt lat="43.131272792816162109375" lon="-2.06349036656320095062255859375">
        <ele>89.59999847412109375</ele>
        <time>2019-05-21T13:14:37.000Z</time>
      </trkpt>
      <trkpt lat="43.1312002055346965789794921875" lon="-2.06384425051510334014892578125">
        <ele>91.8000030517578125</ele>
        <time>2019-05-21T13:14:45.000Z</time>
      </trkpt>
      <trkpt lat="43.13117832876741886138916015625" lon="-2.06393242813646793365478515625">
        <ele>91.8000030517578125</ele>
        <time>2019-05-21T13:14:47.000Z</time>
      </trkpt>
      <trkpt lat="43.13113105483353137969970703125" lon="-2.06396545283496379852294921875">
        <ele>92.1999969482421875</ele>
        <time>2019-05-21T13:14:49.000Z</time>
      </trkpt>
      <trkpt lat="43.13104757107794284820556640625" lon="-2.06399126909673213958740234375">
        <ele>93</ele>
        <time>2019-05-21T13:14:53.000Z</time>
      </trkpt>
      <trkpt lat="43.13104371540248394012451171875" lon="-2.064082212746143341064453125">
        <ele>92.8000030517578125</ele>
        <time>2019-05-21T13:14:55.000Z</time>
      </trkpt>
      <trkpt lat="43.1310543604195117950439453125" lon="-2.0642429776489734649658203125">
        <ele>92.59999847412109375</ele>
        <time>2019-05-21T13:14:58.000Z</time>
      </trkpt>
      <trkpt lat="43.13113960437476634979248046875" lon="-2.0645976997911930084228515625">
        <ele>91.1999969482421875</ele>
        <time>2019-05-21T13:15:04.000Z</time>
      </trkpt>
      <trkpt lat="43.13115653581917285919189453125" lon="-2.06466257572174072265625">
        <ele>91</ele>
        <time>2019-05-21T13:15:05.000Z</time>
      </trkpt>
      <trkpt lat="43.13122116029262542724609375" lon="-2.06486818380653858184814453125">
        <ele>89.8000030517578125</ele>
        <time>2019-05-21T13:15:08.000Z</time>
      </trkpt>
      <trkpt lat="43.1312665902078151702880859375" lon="-2.065004222095012664794921875">
        <ele>88.8000030517578125</ele>
        <time>2019-05-21T13:15:10.000Z</time>
      </trkpt>
      <trkpt lat="43.13130967319011688232421875" lon="-2.06513556651771068572998046875">
        <ele>88</ele>
        <time>2019-05-21T13:15:12.000Z</time>
      </trkpt>
      <trkpt lat="43.13133171759545803070068359375" lon="-2.06520102918148040771484375">
        <ele>87.59999847412109375</ele>
        <time>2019-05-21T13:15:13.000Z</time>
      </trkpt>
      <trkpt lat="43.13135485164821147918701171875" lon="-2.06526649184525012969970703125">
        <ele>87.1999969482421875</ele>
        <time>2019-05-21T13:15:14.000Z</time>
      </trkpt>
      <trkpt lat="43.13137949444353580474853515625" lon="-2.06533354707062244415283203125">
        <ele>86.8000030517578125</ele>
        <time>2019-05-21T13:15:15.000Z</time>
      </trkpt>
      <trkpt lat="43.13140564598143100738525390625" lon="-2.06540429033339023590087890625">
        <ele>86.59999847412109375</ele>
        <time>2019-05-21T13:15:16.000Z</time>
      </trkpt>
      <trkpt lat="43.13150773756206035614013671875" lon="-2.0656709186732769012451171875">
        <ele>86.1999969482421875</ele>
        <time>2019-05-21T13:15:20.000Z</time>
      </trkpt>
      <trkpt lat="43.13157496042549610137939453125" lon="-2.06578851677477359771728515625">
        <ele>85.59999847412109375</ele>
        <time>2019-05-21T13:15:22.000Z</time>
      </trkpt>
      <trkpt lat="43.13163262791931629180908203125" lon="-2.0659082941710948944091796875">
        <ele>84.59999847412109375</ele>
        <time>2019-05-21T13:15:24.000Z</time>
      </trkpt>
      <trkpt lat="43.1316340528428554534912109375" lon="-2.06597995944321155548095703125">
        <ele>84.59999847412109375</ele>
        <time>2019-05-21T13:15:25.000Z</time>
      </trkpt>
      <trkpt lat="43.13165140338242053985595703125" lon="-2.06612111069262027740478515625">
        <ele>84.8000030517578125</ele>
        <time>2019-05-21T13:15:27.000Z</time>
      </trkpt>
      <trkpt lat="43.1317373178899288177490234375" lon="-2.06629939377307891845703125">
        <ele>84.8000030517578125</ele>
        <time>2019-05-21T13:15:30.000Z</time>
      </trkpt>
      <trkpt lat="43.13174511305987834930419921875" lon="-2.0663639344274997711181640625">
        <ele>84.8000030517578125</ele>
        <time>2019-05-21T13:15:31.000Z</time>
      </trkpt>
      <trkpt lat="43.131700940430164337158203125" lon="-2.06654976122081279754638671875">
        <ele>85.1999969482421875</ele>
        <time>2019-05-21T13:15:34.000Z</time>
      </trkpt>
      <trkpt lat="43.131700269877910614013671875" lon="-2.06662318669259548187255859375">
        <ele>85.1999969482421875</ele>
        <time>2019-05-21T13:15:35.000Z</time>
      </trkpt>
      <trkpt lat="43.131715022027492523193359375" lon="-2.0666911639273166656494140625">
        <ele>85.1999969482421875</ele>
        <time>2019-05-21T13:15:36.000Z</time>
      </trkpt>
      <trkpt lat="43.13173790462315082550048828125" lon="-2.0669211633503437042236328125">
        <ele>84.40000152587890625</ele>
        <time>2019-05-21T13:15:39.000Z</time>
      </trkpt>
      <trkpt lat="43.13173974864184856414794921875" lon="-2.06700121052563190460205078125">
        <ele>84.1999969482421875</ele>
        <time>2019-05-21T13:15:40.000Z</time>
      </trkpt>
      <trkpt lat="43.1317410059273242950439453125" lon="-2.06708234734833240509033203125">
        <ele>84</ele>
        <time>2019-05-21T13:15:41.000Z</time>
      </trkpt>
      <trkpt lat="43.1317359767854213714599609375" lon="-2.06724143587052822113037109375">
        <ele>83.59999847412109375</ele>
        <time>2019-05-21T13:15:43.000Z</time>
      </trkpt>
      <trkpt lat="43.13172985799610614776611328125" lon="-2.06739909946918487548828125">
        <ele>83.40000152587890625</ele>
        <time>2019-05-21T13:15:45.000Z</time>
      </trkpt>
      <trkpt lat="43.131693564355373382568359375" lon="-2.06756003201007843017578125">
        <ele>85.59999847412109375</ele>
        <time>2019-05-21T13:15:47.000Z</time>
      </trkpt>
      <trkpt lat="43.13167420215904712677001953125" lon="-2.0678810589015483856201171875">
        <ele>86.1999969482421875</ele>
        <time>2019-05-21T13:15:51.000Z</time>
      </trkpt>
      <trkpt lat="43.13170923851430416107177734375" lon="-2.06821742467582225799560546875">
        <ele>85.1999969482421875</ele>
        <time>2019-05-21T13:15:55.000Z</time>
      </trkpt>
      <trkpt lat="43.13171577639877796173095703125" lon="-2.06852168776094913482666015625">
        <ele>88.8000030517578125</ele>
        <time>2019-05-21T13:15:59.000Z</time>
      </trkpt>
      <trkpt lat="43.131719045341014862060546875" lon="-2.0686595700681209564208984375">
        <ele>90.1999969482421875</ele>
        <time>2019-05-21T13:16:01.000Z</time>
      </trkpt>
      <trkpt lat="43.13171979971230030059814453125" lon="-2.068786807358264923095703125">
        <ele>91.59999847412109375</ele>
        <time>2019-05-21T13:16:02.000Z</time>
      </trkpt>
      <trkpt lat="43.13171979971230030059814453125" lon="-2.068786807358264923095703125">
        <ele>91.59999847412109375</ele>
        <time>2019-05-21T13:16:03.000Z</time>
      </trkpt>
      <trkpt lat="43.13172851689159870147705078125" lon="-2.06890021450817584991455078125">
        <ele>92.59999847412109375</ele>
        <time>2019-05-21T13:16:05.000Z</time>
      </trkpt>
      <trkpt lat="43.13173639588057994842529296875" lon="-2.06895612180233001708984375">
        <ele>93</ele>
        <time>2019-05-21T13:16:06.000Z</time>
      </trkpt>
      <trkpt lat="43.13175148330628871917724609375" lon="-2.0691252686083316802978515625">
        <ele>94.1999969482421875</ele>
        <time>2019-05-21T13:16:09.000Z</time>
      </trkpt>
      <trkpt lat="43.13177880831062793731689453125" lon="-2.0695151947438716888427734375">
        <ele>100.40000152587890625</ele>
        <time>2019-05-21T13:16:15.000Z</time>
      </trkpt>
      <trkpt lat="43.13185726292431354522705078125" lon="-2.0698692463338375091552734375">
        <ele>105.59999847412109375</ele>
        <time>2019-05-21T13:16:19.000Z</time>
      </trkpt>
      <trkpt lat="43.132024817168712615966796875" lon="-2.070256657898426055908203125">
        <ele>106</ele>
        <time>2019-05-21T13:16:24.000Z</time>
      </trkpt>
      <trkpt lat="43.13206295482814311981201171875" lon="-2.0703260600566864013671875">
        <ele>106</ele>
        <time>2019-05-21T13:16:25.000Z</time>
      </trkpt>
      <trkpt lat="43.13223277218639850616455078125" lon="-2.07058581523597240447998046875">
        <ele>105.40000152587890625</ele>
        <time>2019-05-21T13:16:29.000Z</time>
      </trkpt>
      <trkpt lat="43.13239370472729206085205078125" lon="-2.07072244025766849517822265625">
        <ele>103</ele>
        <time>2019-05-21T13:16:32.000Z</time>
      </trkpt>
      <trkpt lat="43.1325651146471500396728515625" lon="-2.07084833644330501556396484375">
        <ele>99.1999969482421875</ele>
        <time>2019-05-21T13:16:35.000Z</time>
      </trkpt>
      <trkpt lat="43.13290282152593135833740234375" lon="-2.07108847796916961669921875">
        <ele>96</ele>
        <time>2019-05-21T13:16:41.000Z</time>
      </trkpt>
      <trkpt lat="43.1329593993723392486572265625" lon="-2.07112896256148815155029296875">
        <ele>95.59999847412109375</ele>
        <time>2019-05-21T13:16:42.000Z</time>
      </trkpt>
      <trkpt lat="43.13311639241874217987060546875" lon="-2.07124630920588970184326171875">
        <ele>93.40000152587890625</ele>
        <time>2019-05-21T13:16:45.000Z</time>
      </trkpt>
      <trkpt lat="43.13316232524812221527099609375" lon="-2.0712945051491260528564453125">
        <ele>92.59999847412109375</ele>
        <time>2019-05-21T13:16:46.000Z</time>
      </trkpt>
      <trkpt lat="43.13323927111923694610595703125" lon="-2.07141009159386157989501953125">
        <ele>91.40000152587890625</ele>
        <time>2019-05-21T13:16:48.000Z</time>
      </trkpt>
      <trkpt lat="43.133294843137264251708984375" lon="-2.071556858718395233154296875">
        <ele>90.59999847412109375</ele>
        <time>2019-05-21T13:16:50.000Z</time>
      </trkpt>
      <trkpt lat="43.1333627365529537200927734375" lon="-2.07177973352372646331787109375">
        <ele>88.40000152587890625</ele>
        <time>2019-05-21T13:16:53.000Z</time>
      </trkpt>
      <trkpt lat="43.13341696746647357940673828125" lon="-2.07191233523190021514892578125">
        <ele>87.1999969482421875</ele>
        <time>2019-05-21T13:16:55.000Z</time>
      </trkpt>
      <trkpt lat="43.13354118727147579193115234375" lon="-2.0721471123397350311279296875">
        <ele>85.40000152587890625</ele>
        <time>2019-05-21T13:16:59.000Z</time>
      </trkpt>
      <trkpt lat="43.13366088084876537322998046875" lon="-2.0723752677440643310546875">
        <ele>84</ele>
        <time>2019-05-21T13:17:03.000Z</time>
      </trkpt>
      <trkpt lat="43.133692480623722076416015625" lon="-2.07251952029764652252197265625">
        <ele>83.40000152587890625</ele>
        <time>2019-05-21T13:17:05.000Z</time>
      </trkpt>
      <trkpt lat="43.13365065492689609527587890625" lon="-2.073030062019824981689453125">
        <ele>81.8000030517578125</ele>
        <time>2019-05-21T13:17:14.000Z</time>
      </trkpt>
      <trkpt lat="43.1336024589836597442626953125" lon="-2.07306417636573314666748046875">
        <ele>82</ele>
        <time>2019-05-21T13:17:15.000Z</time>
      </trkpt>
      <trkpt lat="43.13332694582641124725341796875" lon="-2.073136009275913238525390625">
        <ele>83.59999847412109375</ele>
        <time>2019-05-21T13:17:21.000Z</time>
      </trkpt>
      <trkpt lat="43.1332225911319255828857421875" lon="-2.07331395708024501800537109375">
        <ele>84</ele>
        <time>2019-05-21T13:17:25.000Z</time>
      </trkpt>
      <trkpt lat="43.1328383646905422210693359375" lon="-2.07379373721778392791748046875">
        <ele>86</ele>
        <time>2019-05-21T13:17:35.000Z</time>
      </trkpt>
      <trkpt lat="43.1325302459299564361572265625" lon="-2.07415147684514522552490234375">
        <ele>87.40000152587890625</ele>
        <time>2019-05-21T13:17:45.000Z</time>
      </trkpt>
      <trkpt lat="43.1323619373142719268798828125" lon="-2.07439564168453216552734375">
        <ele>88</ele>
        <time>2019-05-21T13:17:51.000Z</time>
      </trkpt>
      <trkpt lat="43.1322504580020904541015625" lon="-2.07454576157033443450927734375">
        <ele>88.40000152587890625</ele>
        <time>2019-05-21T13:17:55.000Z</time>
      </trkpt>
      <trkpt lat="43.1320561654865741729736328125" lon="-2.07481280900537967681884765625">
        <ele>89.1999969482421875</ele>
        <time>2019-05-21T13:18:05.000Z</time>
      </trkpt>
      <trkpt lat="43.13194979913532733917236328125" lon="-2.07499100826680660247802734375">
        <ele>89.59999847412109375</ele>
        <time>2019-05-21T13:18:11.000Z</time>
      </trkpt>
      <trkpt lat="43.1318181194365024566650390625" lon="-2.0752175711095333099365234375">
        <ele>90.40000152587890625</ele>
        <time>2019-05-21T13:18:16.000Z</time>
      </trkpt>
      <trkpt lat="43.1317068077623844146728515625" lon="-2.0753161422908306121826171875">
        <ele>90.8000030517578125</ele>
        <time>2019-05-21T13:18:18.000Z</time>
      </trkpt>
      <trkpt lat="43.1317068077623844146728515625" lon="-2.0753161422908306121826171875">
        <ele>90.8000030517578125</ele>
        <time>2019-05-21T13:18:19.000Z</time>
      </trkpt>
      <trkpt lat="43.1316608749330043792724609375" lon="-2.0753337442874908447265625">
        <ele>91</ele>
        <time>2019-05-21T13:18:20.000Z</time>
      </trkpt>
      <trkpt lat="43.13162189908325672149658203125" lon="-2.075362242758274078369140625">
        <ele>91.1999969482421875</ele>
        <time>2019-05-21T13:18:21.000Z</time>
      </trkpt>
      <trkpt lat="43.13158619217574596405029296875" lon="-2.075398452579975128173828125">
        <ele>91.40000152587890625</ele>
        <time>2019-05-21T13:18:22.000Z</time>
      </trkpt>
      <trkpt lat="43.131554089486598968505859375" lon="-2.07544178701937198638916015625">
        <ele>91.40000152587890625</ele>
        <time>2019-05-21T13:18:23.000Z</time>
      </trkpt>
      <trkpt lat="43.13152198679745197296142578125" lon="-2.07548386417329311370849609375">
        <ele>91.59999847412109375</ele>
        <time>2019-05-21T13:18:24.000Z</time>
      </trkpt>
      <trkpt lat="43.131456859409809112548828125" lon="-2.0755659230053424835205078125">
        <ele>91.8000030517578125</ele>
        <time>2019-05-21T13:18:26.000Z</time>
      </trkpt>
      <trkpt lat="43.13124052248895168304443359375" lon="-2.07587395794689655303955078125">
        <ele>92.1999969482421875</ele>
        <time>2019-05-21T13:18:33.000Z</time>
      </trkpt>
      <trkpt lat="43.13121051527559757232666015625" lon="-2.0759337209165096282958984375">
        <ele>92</ele>
        <time>2019-05-21T13:18:34.000Z</time>
      </trkpt>
      <trkpt lat="43.1311834417283535003662109375" lon="-2.07599968649446964263916015625">
        <ele>92</ele>
        <time>2019-05-21T13:18:35.000Z</time>
      </trkpt>
      <trkpt lat="43.13115150667726993560791015625" lon="-2.0760601200163364410400390625">
        <ele>92</ele>
        <time>2019-05-21T13:18:36.000Z</time>
      </trkpt>
      <trkpt lat="43.1311204098165035247802734375" lon="-2.07612742669880390167236328125">
        <ele>91.8000030517578125</ele>
        <time>2019-05-21T13:18:37.000Z</time>
      </trkpt>
      <trkpt lat="43.131082020699977874755859375" lon="-2.0761875249445438385009765625">
        <ele>91.8000030517578125</ele>
        <time>2019-05-21T13:18:38.000Z</time>
      </trkpt>
      <trkpt lat="43.1310407817363739013671875" lon="-2.0762483775615692138671875">
        <ele>91.8000030517578125</ele>
        <time>2019-05-21T13:18:39.000Z</time>
      </trkpt>
      <trkpt lat="43.1309987045824527740478515625" lon="-2.07631015218794345855712890625">
        <ele>91.8000030517578125</ele>
        <time>2019-05-21T13:18:40.000Z</time>
      </trkpt>
      <trkpt lat="43.13095788471400737762451171875" lon="-2.07637301646173000335693359375">
        <ele>91.8000030517578125</ele>
        <time>2019-05-21T13:18:41.000Z</time>
      </trkpt>
      <trkpt lat="43.13073970377445220947265625" lon="-2.07669789902865886688232421875">
        <ele>92</ele>
        <time>2019-05-21T13:18:46.000Z</time>
      </trkpt>
      <trkpt lat="43.130597881972789764404296875" lon="-2.07693058066070079803466796875">
        <ele>92.59999847412109375</ele>
        <time>2019-05-21T13:18:49.000Z</time>
      </trkpt>
      <trkpt lat="43.13052655197679996490478515625" lon="-2.0771125517785549163818359375">
        <ele>92.1999969482421875</ele>
        <time>2019-05-21T13:18:51.000Z</time>
      </trkpt>
      <trkpt lat="43.13050291500985622406005859375" lon="-2.077212631702423095703125">
        <ele>91.8000030517578125</ele>
        <time>2019-05-21T13:18:52.000Z</time>
      </trkpt>
      <trkpt lat="43.13047927804291248321533203125" lon="-2.07730810157954692840576171875">
        <ele>91.40000152587890625</ele>
        <time>2019-05-21T13:18:53.000Z</time>
      </trkpt>
      <trkpt lat="43.13045983202755451202392578125" lon="-2.0774052478373050689697265625">
        <ele>91</ele>
        <time>2019-05-21T13:18:54.000Z</time>
      </trkpt>
      <trkpt lat="43.13044290058314800262451171875" lon="-2.07749870605766773223876953125">
        <ele>91.1999969482421875</ele>
        <time>2019-05-21T13:18:55.000Z</time>
      </trkpt>
      <trkpt lat="43.13042814843356609344482421875" lon="-2.07758738659322261810302734375">
        <ele>91.8000030517578125</ele>
        <time>2019-05-21T13:18:56.000Z</time>
      </trkpt>
      <trkpt lat="43.13041171990334987640380859375" lon="-2.07792811095714569091796875">
        <ele>93.8000030517578125</ele>
        <time>2019-05-21T13:19:00.000Z</time>
      </trkpt>
      <trkpt lat="43.13043200410902500152587890625" lon="-2.0781686715781688690185546875">
        <ele>93.59999847412109375</ele>
        <time>2019-05-21T13:19:03.000Z</time>
      </trkpt>
      <trkpt lat="43.13043921254575252532958984375" lon="-2.07824519835412502288818359375">
        <ele>93.40000152587890625</ele>
        <time>2019-05-21T13:19:04.000Z</time>
      </trkpt>
      <trkpt lat="43.1304434873163700103759765625" lon="-2.0783899538218975067138671875">
        <ele>92.59999847412109375</ele>
        <time>2019-05-21T13:19:06.000Z</time>
      </trkpt>
      <trkpt lat="43.130432926118373870849609375" lon="-2.07853051833808422088623046875">
        <ele>91.8000030517578125</ele>
        <time>2019-05-21T13:19:08.000Z</time>
      </trkpt>
      <trkpt lat="43.13041691668331623077392578125" lon="-2.07867099903523921966552734375">
        <ele>91.40000152587890625</ele>
        <time>2019-05-21T13:19:10.000Z</time>
      </trkpt>
      <trkpt lat="43.1303727440536022186279296875" lon="-2.0788824744522571563720703125">
        <ele>91</ele>
        <time>2019-05-21T13:19:13.000Z</time>
      </trkpt>
      <trkpt lat="43.13031851314008235931396484375" lon="-2.079016752541065216064453125">
        <ele>91.40000152587890625</ele>
        <time>2019-05-21T13:19:15.000Z</time>
      </trkpt>
      <trkpt lat="43.13028129749000072479248046875" lon="-2.0790812931954860687255859375">
        <ele>91.8000030517578125</ele>
        <time>2019-05-21T13:19:16.000Z</time>
      </trkpt>
      <trkpt lat="43.13007158227264881134033203125" lon="-2.07932713441550731658935546875">
        <ele>93.1999969482421875</ele>
        <time>2019-05-21T13:19:20.000Z</time>
      </trkpt>
      <trkpt lat="43.12993361614644527435302734375" lon="-2.0794202573597431182861328125">
        <ele>92.40000152587890625</ele>
        <time>2019-05-21T13:19:22.000Z</time>
      </trkpt>
      <trkpt lat="43.12961049377918243408203125" lon="-2.07953031174838542938232421875">
        <ele>90.59999847412109375</ele>
        <time>2019-05-21T13:19:26.000Z</time>
      </trkpt>
      <trkpt lat="43.12952466309070587158203125" lon="-2.07953986711800098419189453125">
        <ele>90.40000152587890625</ele>
        <time>2019-05-21T13:19:27.000Z</time>
      </trkpt>
      <trkpt lat="43.12924864701926708221435546875" lon="-2.079549841582775115966796875">
        <ele>89.40000152587890625</ele>
        <time>2019-05-21T13:19:30.000Z</time>
      </trkpt>
      <trkpt lat="43.1290948390960693359375" lon="-2.07968085072934627532958984375">
        <ele>88.40000152587890625</ele>
        <time>2019-05-21T13:19:32.000Z</time>
      </trkpt>
      <trkpt lat="43.1290269456803798675537109375" lon="-2.07989425398409366607666015625">
        <ele>87.59999847412109375</ele>
        <time>2019-05-21T13:19:34.000Z</time>
      </trkpt>
      <trkpt lat="43.12901772558689117431640625" lon="-2.08011218346655368804931640625">
        <ele>87.40000152587890625</ele>
        <time>2019-05-21T13:19:36.000Z</time>
      </trkpt>
      <trkpt lat="43.1290007941424846649169921875" lon="-2.08032458089292049407958984375">
        <ele>87.8000030517578125</ele>
        <time>2019-05-21T13:19:38.000Z</time>
      </trkpt>
      <trkpt lat="43.1289763189852237701416015625" lon="-2.08052792586386203765869140625">
        <ele>88.40000152587890625</ele>
        <time>2019-05-21T13:19:40.000Z</time>
      </trkpt>
      <trkpt lat="43.12893851660192012786865234375" lon="-2.0808287523686885833740234375">
        <ele>88.8000030517578125</ele>
        <time>2019-05-21T13:19:43.000Z</time>
      </trkpt>
      <trkpt lat="43.12891286797821521759033203125" lon="-2.081033773720264434814453125">
        <ele>88.1999969482421875</ele>
        <time>2019-05-21T13:19:45.000Z</time>
      </trkpt>
      <trkpt lat="43.12889962457120418548583984375" lon="-2.0811385475099086761474609375">
        <ele>88</ele>
        <time>2019-05-21T13:19:46.000Z</time>
      </trkpt>
      <trkpt lat="43.12883726321160793304443359375" lon="-2.081902138888835906982421875">
        <ele>89.8000030517578125</ele>
        <time>2019-05-21T13:19:53.000Z</time>
      </trkpt>
      <trkpt lat="43.12882184050977230072021484375" lon="-2.08225845359265804290771484375">
        <ele>88.59999847412109375</ele>
        <time>2019-05-21T13:19:56.000Z</time>
      </trkpt>
      <trkpt lat="43.1288438849151134490966796875" lon="-2.0828611962497234344482421875">
        <ele>87.8000030517578125</ele>
        <time>2019-05-21T13:20:02.000Z</time>
      </trkpt>
      <trkpt lat="43.128851763904094696044921875" lon="-2.08300427533686161041259765625">
        <ele>86.59999847412109375</ele>
        <time>2019-05-21T13:20:04.000Z</time>
      </trkpt>
      <trkpt lat="43.1287944316864013671875" lon="-2.08309798501431941986083984375">
        <ele>85.59999847412109375</ele>
        <time>2019-05-21T13:20:06.000Z</time>
      </trkpt>
      <trkpt lat="43.12872142530977725982666015625" lon="-2.08315934054553508758544921875">
        <ele>84.59999847412109375</ele>
        <time>2019-05-21T13:20:08.000Z</time>
      </trkpt>
      <trkpt lat="43.12846158631145954132080078125" lon="-2.0832454226911067962646484375">
        <ele>82.1999969482421875</ele>
        <time>2019-05-21T13:20:14.000Z</time>
      </trkpt>
      <trkpt lat="43.12843157909810543060302734375" lon="-2.083359919488430023193359375">
        <ele>81.8000030517578125</ele>
        <time>2019-05-21T13:20:16.000Z</time>
      </trkpt>
      <trkpt lat="43.1284744106233119964599609375" lon="-2.08349394612014293670654296875">
        <ele>81.59999847412109375</ele>
        <time>2019-05-21T13:20:18.000Z</time>
      </trkpt>
      <trkpt lat="43.128753192722797393798828125" lon="-2.0840071700513362884521484375">
        <ele>80.8000030517578125</ele>
        <time>2019-05-21T13:20:26.000Z</time>
      </trkpt>
      <trkpt lat="43.12902635894715785980224609375" lon="-2.0846633054316043853759765625">
        <ele>78.8000030517578125</ele>
        <time>2019-05-21T13:20:35.000Z</time>
      </trkpt>
      <trkpt lat="43.12904982827603816986083984375" lon="-2.08474268205463886260986328125">
        <ele>78.40000152587890625</ele>
        <time>2019-05-21T13:20:36.000Z</time>
      </trkpt>
      <trkpt lat="43.12910028733313083648681640625" lon="-2.08498810417950153350830078125">
        <ele>77.59999847412109375</ele>
        <time>2019-05-21T13:20:39.000Z</time>
      </trkpt>
      <trkpt lat="43.12910280190408229827880859375" lon="-2.0851568318903446197509765625">
        <ele>77.59999847412109375</ele>
        <time>2019-05-21T13:20:41.000Z</time>
      </trkpt>
      <trkpt lat="43.12907296232879161834716796875" lon="-2.0855879969894886016845703125">
        <ele>78.1999969482421875</ele>
        <time>2019-05-21T13:20:46.000Z</time>
      </trkpt>
      <trkpt lat="43.129056952893733978271484375" lon="-2.0860386081039905548095703125">
        <ele>77.59999847412109375</ele>
        <time>2019-05-21T13:20:52.000Z</time>
      </trkpt>
      <trkpt lat="43.1290748901665210723876953125" lon="-2.0861445553600788116455078125">
        <ele>77.59999847412109375</ele>
        <time>2019-05-21T13:20:54.000Z</time>
      </trkpt>
      <trkpt lat="43.129081428050994873046875" lon="-2.0861951820552349090576171875">
        <ele>77.40000152587890625</ele>
        <time>2019-05-21T13:20:55.000Z</time>
      </trkpt>
      <trkpt lat="43.12908704392611980438232421875" lon="-2.08624823950231075286865234375">
        <ele>77.40000152587890625</ele>
        <time>2019-05-21T13:20:56.000Z</time>
      </trkpt>
      <trkpt lat="43.12910095788538455963134765625" lon="-2.08636768162250518798828125">
        <ele>77.1999969482421875</ele>
        <time>2019-05-21T13:20:58.000Z</time>
      </trkpt>
      <trkpt lat="43.12911118380725383758544921875" lon="-2.08642861805856227874755859375">
        <ele>77.1999969482421875</ele>
        <time>2019-05-21T13:20:59.000Z</time>
      </trkpt>
      <trkpt lat="43.1291734613478183746337890625" lon="-2.08672433160245418548583984375">
        <ele>77.1999969482421875</ele>
        <time>2019-05-21T13:21:04.000Z</time>
      </trkpt>
      <trkpt lat="43.129167594015598297119140625" lon="-2.0867862738668918609619140625">
        <ele>77.1999969482421875</ele>
        <time>2019-05-21T13:21:05.000Z</time>
      </trkpt>
      <trkpt lat="43.1291484832763671875" lon="-2.0868342183530330657958984375">
        <ele>77.1999969482421875</ele>
        <time>2019-05-21T13:21:06.000Z</time>
      </trkpt>
      <trkpt lat="43.129109255969524383544921875" lon="-2.08687034435570240020751953125">
        <ele>77.40000152587890625</ele>
        <time>2019-05-21T13:21:07.000Z</time>
      </trkpt>
      <trkpt lat="43.129062652587890625" lon="-2.08689247258007526397705078125">
        <ele>77.40000152587890625</ele>
        <time>2019-05-21T13:21:08.000Z</time>
      </trkpt>
      <trkpt lat="43.12901244498789310455322265625" lon="-2.08690403960645198822021484375">
        <ele>77.40000152587890625</ele>
        <time>2019-05-21T13:21:09.000Z</time>
      </trkpt>
      <trkpt lat="43.12862922437489032745361328125" lon="-2.08690638653934001922607421875">
        <ele>77.40000152587890625</ele>
        <time>2019-05-21T13:21:16.000Z</time>
      </trkpt>
      <trkpt lat="43.12845856882631778717041015625" lon="-2.086873948574066162109375">
        <ele>77.40000152587890625</ele>
        <time>2019-05-21T13:21:19.000Z</time>
      </trkpt>
      <trkpt lat="43.12809479422867298126220703125" lon="-2.08695114590227603912353515625">
        <ele>78.59999847412109375</ele>
        <time>2019-05-21T13:21:25.000Z</time>
      </trkpt>
      <trkpt lat="43.12803109176456928253173828125" lon="-2.08694729022681713104248046875">
        <ele>79</ele>
        <time>2019-05-21T13:21:26.000Z</time>
      </trkpt>
      <trkpt lat="43.1274937279522418975830078125" lon="-2.08672047592699527740478515625">
        <ele>83</ele>
        <time>2019-05-21T13:21:34.000Z</time>
      </trkpt>
      <trkpt lat="43.127362467348575592041015625" lon="-2.08665912039577960968017578125">
        <ele>83</ele>
        <time>2019-05-21T13:21:36.000Z</time>
      </trkpt>
      <trkpt lat="43.1268369220197200775146484375" lon="-2.08637832663953304290771484375">
        <ele>85.40000152587890625</ele>
        <time>2019-05-21T13:21:46.000Z</time>
      </trkpt>
      <trkpt lat="43.12652905471622943878173828125" lon="-2.0863081701099872589111328125">
        <ele>86</ele>
        <time>2019-05-21T13:21:53.000Z</time>
      </trkpt>
      <trkpt lat="43.12635035254061222076416015625" lon="-2.08632946014404296875">
        <ele>86</ele>
        <time>2019-05-21T13:21:56.000Z</time>
      </trkpt>
      <trkpt lat="43.12601633369922637939453125" lon="-2.0863946713507175445556640625">
        <ele>87</ele>
        <time>2019-05-21T13:22:01.000Z</time>
      </trkpt>
      <trkpt lat="43.12567611224949359893798828125" lon="-2.08654881455004215240478515625">
        <ele>87.8000030517578125</ele>
        <time>2019-05-21T13:22:06.000Z</time>
      </trkpt>
      <trkpt lat="43.12532826326787471771240234375" lon="-2.08669432438910007476806640625">
        <ele>89.40000152587890625</ele>
        <time>2019-05-21T13:22:11.000Z</time>
      </trkpt>
      <trkpt lat="43.12500706873834133148193359375" lon="-2.08687327802181243896484375">
        <ele>89.8000030517578125</ele>
        <time>2019-05-21T13:22:16.000Z</time>
      </trkpt>
      <trkpt lat="43.12449149787425994873046875" lon="-2.08720109425485134124755859375">
        <ele>86.59999847412109375</ele>
        <time>2019-05-21T13:22:26.000Z</time>
      </trkpt>
      <trkpt lat="43.1240765936672687530517578125" lon="-2.0875553973019123077392578125">
        <ele>85</ele>
        <time>2019-05-21T13:22:35.000Z</time>
      </trkpt>
      <trkpt lat="43.12403242103755474090576171875" lon="-2.08759873174130916595458984375">
        <ele>84.8000030517578125</ele>
        <time>2019-05-21T13:22:36.000Z</time>
      </trkpt>
      <trkpt lat="43.12394541688263416290283203125" lon="-2.0876958779990673065185546875">
        <ele>84.59999847412109375</ele>
        <time>2019-05-21T13:22:38.000Z</time>
      </trkpt>
      <trkpt lat="43.12390015460550785064697265625" lon="-2.08774625323712825775146484375">
        <ele>84.40000152587890625</ele>
        <time>2019-05-21T13:22:39.000Z</time>
      </trkpt>
      <trkpt lat="43.12381532974541187286376953125" lon="-2.08785488270223140716552734375">
        <ele>84</ele>
        <time>2019-05-21T13:22:41.000Z</time>
      </trkpt>
      <trkpt lat="43.12360293231904506683349609375" lon="-2.08812746219336986541748046875">
        <ele>83.1999969482421875</ele>
        <time>2019-05-21T13:22:46.000Z</time>
      </trkpt>
      <trkpt lat="43.12352280132472515106201171875" lon="-2.08822770975530147552490234375">
        <ele>83.1999969482421875</ele>
        <time>2019-05-21T13:22:48.000Z</time>
      </trkpt>
      <trkpt lat="43.1234187819063663482666015625" lon="-2.0882673561573028564453125">
        <ele>83</ele>
        <time>2019-05-21T13:22:50.000Z</time>
      </trkpt>
      <trkpt lat="43.1233151815831661224365234375" lon="-2.0882350020110607147216796875">
        <ele>83.8000030517578125</ele>
        <time>2019-05-21T13:22:52.000Z</time>
      </trkpt>
      <trkpt lat="43.12322725541889667510986328125" lon="-2.08811706863343715667724609375">
        <ele>86</ele>
        <time>2019-05-21T13:22:54.000Z</time>
      </trkpt>
      <trkpt lat="43.1231586076319217681884765625" lon="-2.08798413164913654327392578125">
        <ele>88.40000152587890625</ele>
        <time>2019-05-21T13:22:56.000Z</time>
      </trkpt>
      <trkpt lat="43.12296557240188121795654296875" lon="-2.08767886273562908172607421875">
        <ele>95.8000030517578125</ele>
        <time>2019-05-21T13:23:01.000Z</time>
      </trkpt>
      <trkpt lat="43.1228702701628208160400390625" lon="-2.08760292269289493560791015625">
        <ele>98.8000030517578125</ele>
        <time>2019-05-21T13:23:03.000Z</time>
      </trkpt>
      <trkpt lat="43.1227527558803558349609375" lon="-2.08757559768855571746826171875">
        <ele>100.8000030517578125</ele>
        <time>2019-05-21T13:23:05.000Z</time>
      </trkpt>
      <trkpt lat="43.1226939149200916290283203125" lon="-2.08759219385683536529541015625">
        <ele>101</ele>
        <time>2019-05-21T13:23:06.000Z</time>
      </trkpt>
      <trkpt lat="43.12264504842460155487060546875" lon="-2.08763594739139080047607421875">
        <ele>100.40000152587890625</ele>
        <time>2019-05-21T13:23:07.000Z</time>
      </trkpt>
      <trkpt lat="43.12258637510240077972412109375" lon="-2.0877562277019023895263671875">
        <ele>98.40000152587890625</ele>
        <time>2019-05-21T13:23:09.000Z</time>
      </trkpt>
      <trkpt lat="43.12253725714981555938720703125" lon="-2.08788757212460041046142578125">
        <ele>96.8000030517578125</ele>
        <time>2019-05-21T13:23:11.000Z</time>
      </trkpt>
      <trkpt lat="43.12245511449873447418212890625" lon="-2.087989747524261474609375">
        <ele>97</ele>
        <time>2019-05-21T13:23:13.000Z</time>
      </trkpt>
      <trkpt lat="43.1223110295832157135009765625" lon="-2.08812310360372066497802734375">
        <ele>98.40000152587890625</ele>
        <time>2019-05-21T13:23:16.000Z</time>
      </trkpt>
      <trkpt lat="43.1218312494456768035888671875" lon="-2.08854136057198047637939453125">
        <ele>102.40000152587890625</ele>
        <time>2019-05-21T13:23:26.000Z</time>
      </trkpt>
      <trkpt lat="43.1213068775832653045654296875" lon="-2.088917456567287445068359375">
        <ele>102.59999847412109375</ele>
        <time>2019-05-21T13:23:36.000Z</time>
      </trkpt>
      <trkpt lat="43.1207563541829586029052734375" lon="-2.08918006159365177154541015625">
        <ele>103</ele>
        <time>2019-05-21T13:23:45.000Z</time>
      </trkpt>
      <trkpt lat="43.12068016268312931060791015625" lon="-2.0892141759395599365234375">
        <ele>102.1999969482421875</ele>
        <time>2019-05-21T13:23:46.000Z</time>
      </trkpt>
      <trkpt lat="43.1200941838324069976806640625" lon="-2.08942003548145294189453125">
        <ele>97.1999969482421875</ele>
        <time>2019-05-21T13:23:53.000Z</time>
      </trkpt>
      <trkpt lat="43.11992294155061244964599609375" lon="-2.08939254283905029296875">
        <ele>98</ele>
        <time>2019-05-21T13:23:55.000Z</time>
      </trkpt>
      <trkpt lat="43.1198398768901824951171875" lon="-2.08936907351016998291015625">
        <ele>98.40000152587890625</ele>
        <time>2019-05-21T13:23:56.000Z</time>
      </trkpt>
      <trkpt lat="43.1192647106945514678955078125" lon="-2.08921174518764019012451171875">
        <ele>91.59999847412109375</ele>
        <time>2019-05-21T13:24:04.000Z</time>
      </trkpt>
      <trkpt lat="43.11920662410557270050048828125" lon="-2.08921023644506931304931640625">
        <ele>91.40000152587890625</ele>
        <time>2019-05-21T13:24:05.000Z</time>
      </trkpt>
      <trkpt lat="43.119153566658496856689453125" lon="-2.08921191282570362091064453125">
        <ele>91.40000152587890625</ele>
        <time>2019-05-21T13:24:06.000Z</time>
      </trkpt>
      <trkpt lat="43.118800185620784759521484375" lon="-2.0893080532550811767578125">
        <ele>94.1999969482421875</ele>
        <time>2019-05-21T13:24:13.000Z</time>
      </trkpt>
      <trkpt lat="43.11870018951594829559326171875" lon="-2.08936530165374279022216796875">
        <ele>94.40000152587890625</ele>
        <time>2019-05-21T13:24:15.000Z</time>
      </trkpt>
      <trkpt lat="43.1186488084495067596435546875" lon="-2.0893947221338748931884765625">
        <ele>94.40000152587890625</ele>
        <time>2019-05-21T13:24:16.000Z</time>
      </trkpt>
      <trkpt lat="43.11807992868125438690185546875" lon="-2.0897460915148258209228515625">
        <ele>96.1999969482421875</ele>
        <time>2019-05-21T13:24:25.000Z</time>
      </trkpt>
      <trkpt lat="43.1179960258305072784423828125" lon="-2.08979730494320392608642578125">
        <ele>96.40000152587890625</ele>
        <time>2019-05-21T13:24:26.000Z</time>
      </trkpt>
      <trkpt lat="43.11752722598612308502197265625" lon="-2.09032125771045684814453125">
        <ele>95.1999969482421875</ele>
        <time>2019-05-21T13:24:35.000Z</time>
      </trkpt>
      <trkpt lat="43.1174699775874614715576171875" lon="-2.09037230350077152252197265625">
        <ele>95.1999969482421875</ele>
        <time>2019-05-21T13:24:36.000Z</time>
      </trkpt>
      <trkpt lat="43.1173036806285381317138671875" lon="-2.0905242674052715301513671875">
        <ele>95</ele>
        <time>2019-05-21T13:24:39.000Z</time>
      </trkpt>
      <trkpt lat="43.116918615996837615966796875" lon="-2.0908944122493267059326171875">
        <ele>94.40000152587890625</ele>
        <time>2019-05-21T13:24:46.000Z</time>
      </trkpt>
      <trkpt lat="43.11675198376178741455078125" lon="-2.09101318381726741790771484375">
        <ele>94.59999847412109375</ele>
        <time>2019-05-21T13:24:49.000Z</time>
      </trkpt>
      <trkpt lat="43.11664880253374576568603515625" lon="-2.09105878137052059173583984375">
        <ele>94.40000152587890625</ele>
        <time>2019-05-21T13:24:51.000Z</time>
      </trkpt>
      <trkpt lat="43.1163927353918552398681640625" lon="-2.09110848605632781982421875">
        <ele>95</ele>
        <time>2019-05-21T13:24:56.000Z</time>
      </trkpt>
      <trkpt lat="43.11583676375448703765869140625" lon="-2.091066576540470123291015625">
        <ele>99.8000030517578125</ele>
        <time>2019-05-21T13:25:06.000Z</time>
      </trkpt>
      <trkpt lat="43.1153158284723758697509765625" lon="-2.09083397872745990753173828125">
        <ele>101.1999969482421875</ele>
        <time>2019-05-21T13:25:14.000Z</time>
      </trkpt>
      <trkpt lat="43.11518012546002864837646484375" lon="-2.0907733775675296783447265625">
        <ele>101.1999969482421875</ele>
        <time>2019-05-21T13:25:16.000Z</time>
      </trkpt>
      <trkpt lat="43.1146466173231601715087890625" lon="-2.0905284583568572998046875">
        <ele>103.59999847412109375</ele>
        <time>2019-05-21T13:25:24.000Z</time>
      </trkpt>
      <trkpt lat="43.11451862566173076629638671875" lon="-2.09045880474150180816650390625">
        <ele>103.59999847412109375</ele>
        <time>2019-05-21T13:25:26.000Z</time>
      </trkpt>
      <trkpt lat="43.11420497484505176544189453125" lon="-2.0902816951274871826171875">
        <ele>100.40000152587890625</ele>
        <time>2019-05-21T13:25:31.000Z</time>
      </trkpt>
      <trkpt lat="43.11414445750415325164794921875" lon="-2.09024523384869098663330078125">
        <ele>101.1999969482421875</ele>
        <time>2019-05-21T13:25:32.000Z</time>
      </trkpt>
      <trkpt lat="43.114082515239715576171875" lon="-2.09020852111279964447021484375">
        <ele>101.8000030517578125</ele>
        <time>2019-05-21T13:25:33.000Z</time>
      </trkpt>
      <trkpt lat="43.11396290548145771026611328125" lon="-2.090119086205959320068359375">
        <ele>101.1999969482421875</ele>
        <time>2019-05-21T13:25:35.000Z</time>
      </trkpt>
      <trkpt lat="43.11390322633087635040283203125" lon="-2.0900706388056278228759765625">
        <ele>100.1999969482421875</ele>
        <time>2019-05-21T13:25:36.000Z</time>
      </trkpt>
      <trkpt lat="43.1134128011763095855712890625" lon="-2.08963771350681781768798828125">
        <ele>99.1999969482421875</ele>
        <time>2019-05-21T13:25:45.000Z</time>
      </trkpt>
      <trkpt lat="43.11337332241237163543701171875" lon="-2.08956378512084484100341796875">
        <ele>101.40000152587890625</ele>
        <time>2019-05-21T13:25:46.000Z</time>
      </trkpt>
      <trkpt lat="43.1132471747696399688720703125" lon="-2.08935457281768321990966796875">
        <ele>107.8000030517578125</ele>
        <time>2019-05-21T13:25:49.000Z</time>
      </trkpt>
      <trkpt lat="43.11319428496062755584716796875" lon="-2.0893021859228610992431640625">
        <ele>109.1999969482421875</ele>
        <time>2019-05-21T13:25:50.000Z</time>
      </trkpt>
      <trkpt lat="43.11307727359235286712646484375" lon="-2.08922088146209716796875">
        <ele>111.40000152587890625</ele>
        <time>2019-05-21T13:25:52.000Z</time>
      </trkpt>
      <trkpt lat="43.1128357909619808197021484375" lon="-2.0891134254634380340576171875">
        <ele>114</ele>
        <time>2019-05-21T13:25:56.000Z</time>
      </trkpt>
      <trkpt lat="43.1125793047249317169189453125" lon="-2.08908769302070140838623046875">
        <ele>115.1999969482421875</ele>
        <time>2019-05-21T13:26:00.000Z</time>
      </trkpt>
      <trkpt lat="43.112203292548656463623046875" lon="-2.0891482941806316375732421875">
        <ele>122</ele>
        <time>2019-05-21T13:26:06.000Z</time>
      </trkpt>
      <trkpt lat="43.11168805696070194244384765625" lon="-2.0894936285912990570068359375">
        <ele>122.1999969482421875</ele>
        <time>2019-05-21T13:26:15.000Z</time>
      </trkpt>
      <trkpt lat="43.11163525097072124481201171875" lon="-2.08954953588545322418212890625">
        <ele>122</ele>
        <time>2019-05-21T13:26:16.000Z</time>
      </trkpt>
      <trkpt lat="43.11137415468692779541015625" lon="-2.08994465880095958709716796875">
        <ele>116.59999847412109375</ele>
        <time>2019-05-21T13:26:21.000Z</time>
      </trkpt>
      <trkpt lat="43.111306093633174896240234375" lon="-2.09010458551347255706787109375">
        <ele>114</ele>
        <time>2019-05-21T13:26:23.000Z</time>
      </trkpt>
      <trkpt lat="43.11124884523451328277587890625" lon="-2.0903522707521915435791015625">
        <ele>108</ele>
        <time>2019-05-21T13:26:26.000Z</time>
      </trkpt>
      <trkpt lat="43.11123996041715145111083984375" lon="-2.09052233956754207611083984375">
        <ele>104</ele>
        <time>2019-05-21T13:26:28.000Z</time>
      </trkpt>
      <trkpt lat="43.11125722713768482208251953125" lon="-2.09085912443697452545166015625">
        <ele>100</ele>
        <time>2019-05-21T13:26:32.000Z</time>
      </trkpt>
      <trkpt lat="43.1112697161734104156494140625" lon="-2.09103933535516262054443359375">
        <ele>98</ele>
        <time>2019-05-21T13:26:34.000Z</time>
      </trkpt>
      <trkpt lat="43.11126292683184146881103515625" lon="-2.0912280119955539703369140625">
        <ele>96.1999969482421875</ele>
        <time>2019-05-21T13:26:36.000Z</time>
      </trkpt>
      <trkpt lat="43.11116226017475128173828125" lon="-2.09197215735912322998046875">
        <ele>95.40000152587890625</ele>
        <time>2019-05-21T13:26:44.000Z</time>
      </trkpt>
      <trkpt lat="43.11112076975405216217041015625" lon="-2.09216251038014888763427734375">
        <ele>96.1999969482421875</ele>
        <time>2019-05-21T13:26:46.000Z</time>
      </trkpt>
      <trkpt lat="43.11089982278645038604736328125" lon="-2.09287262521684169769287109375">
        <ele>97.59999847412109375</ele>
        <time>2019-05-21T13:26:54.000Z</time>
      </trkpt>
      <trkpt lat="43.1108590029180049896240234375" lon="-2.09305970929563045501708984375">
        <ele>97.8000030517578125</ele>
        <time>2019-05-21T13:26:56.000Z</time>
      </trkpt>
      <trkpt lat="43.1106823123991489410400390625" lon="-2.09381089545786380767822265625">
        <ele>93.8000030517578125</ele>
        <time>2019-05-21T13:27:04.000Z</time>
      </trkpt>
      <trkpt lat="43.11062506400048732757568359375" lon="-2.09396730177104473114013671875">
        <ele>93.40000152587890625</ele>
        <time>2019-05-21T13:27:06.000Z</time>
      </trkpt>
      <trkpt lat="43.1105093099176883697509765625" lon="-2.09415136836469173431396484375">
        <ele>93.1999969482421875</ele>
        <time>2019-05-21T13:27:09.000Z</time>
      </trkpt>
      <trkpt lat="43.1104040332138538360595703125" lon="-2.0942404679954051971435546875">
        <ele>93.1999969482421875</ele>
        <time>2019-05-21T13:27:11.000Z</time>
      </trkpt>
      <trkpt lat="43.11022960580885410308837890625" lon="-2.0943259634077548980712890625">
        <ele>94</ele>
        <time>2019-05-21T13:27:14.000Z</time>
      </trkpt>
      <trkpt lat="43.11011527664959430694580078125" lon="-2.094399891793727874755859375">
        <ele>94.40000152587890625</ele>
        <time>2019-05-21T13:27:16.000Z</time>
      </trkpt>
      <trkpt lat="43.1098283641040325164794921875" lon="-2.09457498975098133087158203125">
        <ele>94</ele>
        <time>2019-05-21T13:27:21.000Z</time>
      </trkpt>
      <trkpt lat="43.10966148041188716888427734375" lon="-2.094698287546634674072265625">
        <ele>93.59999847412109375</ele>
        <time>2019-05-21T13:27:24.000Z</time>
      </trkpt>
      <trkpt lat="43.1096104346215724945068359375" lon="-2.094744555652141571044921875">
        <ele>93.40000152587890625</ele>
        <time>2019-05-21T13:27:25.000Z</time>
      </trkpt>
      <trkpt lat="43.109558634459972381591796875" lon="-2.0947842858731746673583984375">
        <ele>93.1999969482421875</ele>
        <time>2019-05-21T13:27:26.000Z</time>
      </trkpt>
      <trkpt lat="43.1095034815371036529541015625" lon="-2.0948171429336071014404296875">
        <ele>93.1999969482421875</ele>
        <time>2019-05-21T13:27:27.000Z</time>
      </trkpt>
      <trkpt lat="43.109125457704067230224609375" lon="-2.09503616206347942352294921875">
        <ele>92.8000030517578125</ele>
        <time>2019-05-21T13:27:34.000Z</time>
      </trkpt>
      <trkpt lat="43.10904021374881267547607421875" lon="-2.09509416483342647552490234375">
        <ele>92.59999847412109375</ele>
        <time>2019-05-21T13:27:36.000Z</time>
      </trkpt>
      <trkpt lat="43.10893359594047069549560546875" lon="-2.0951879583299160003662109375">
        <ele>92.40000152587890625</ele>
        <time>2019-05-21T13:27:39.000Z</time>
      </trkpt>
      <trkpt lat="43.108837790787220001220703125" lon="-2.09520715288817882537841796875">
        <ele>92.8000030517578125</ele>
        <time>2019-05-21T13:27:41.000Z</time>
      </trkpt>
      <trkpt lat="43.1087212823331356048583984375" lon="-2.0952261798083782196044921875">
        <ele>93.40000152587890625</ele>
        <time>2019-05-21T13:27:43.000Z</time>
      </trkpt>
      <trkpt lat="43.10853512026369571685791015625" lon="-2.09528275765478610992431640625">
        <ele>94</ele>
        <time>2019-05-21T13:27:46.000Z</time>
      </trkpt>
      <trkpt lat="43.1079940684139728546142578125" lon="-2.095236070454120635986328125">
        <ele>94.59999847412109375</ele>
        <time>2019-05-21T13:27:54.000Z</time>
      </trkpt>
      <trkpt lat="43.10786607675254344940185546875" lon="-2.0951842702925205230712890625">
        <ele>94</ele>
        <time>2019-05-21T13:27:56.000Z</time>
      </trkpt>
      <trkpt lat="43.1073381006717681884765625" lon="-2.09489836357533931732177734375">
        <ele>94.40000152587890625</ele>
        <time>2019-05-21T13:28:04.000Z</time>
      </trkpt>
      <trkpt lat="43.1072782538831233978271484375" lon="-2.0948647521436214447021484375">
        <ele>95.40000152587890625</ele>
        <time>2019-05-21T13:28:05.000Z</time>
      </trkpt>
      <trkpt lat="43.1072174012660980224609375" lon="-2.094830386340618133544921875">
        <ele>96.40000152587890625</ele>
        <time>2019-05-21T13:28:06.000Z</time>
      </trkpt>
      <trkpt lat="43.106850273907184600830078125" lon="-2.0946320705115795135498046875">
        <ele>100.8000030517578125</ele>
        <time>2019-05-21T13:28:12.000Z</time>
      </trkpt>
      <trkpt lat="43.1066757626831531524658203125" lon="-2.0945465750992298126220703125">
        <ele>102.8000030517578125</ele>
        <time>2019-05-21T13:28:15.000Z</time>
      </trkpt>
      <trkpt lat="43.10661750845611095428466796875" lon="-2.09451950155198574066162109375">
        <ele>103.8000030517578125</ele>
        <time>2019-05-21T13:28:16.000Z</time>
      </trkpt>
      <trkpt lat="43.1062533147633075714111328125" lon="-2.09445797838270664215087890625">
        <ele>102.59999847412109375</ele>
        <time>2019-05-21T13:28:22.000Z</time>
      </trkpt>
      <trkpt lat="43.10619271360337734222412109375" lon="-2.0944734849035739898681640625">
        <ele>101</ele>
        <time>2019-05-21T13:28:23.000Z</time>
      </trkpt>
      <trkpt lat="43.10613119043409824371337890625" lon="-2.09450324065983295440673828125">
        <ele>99.59999847412109375</ele>
        <time>2019-05-21T13:28:24.000Z</time>
      </trkpt>
      <trkpt lat="43.10600579716265201568603515625" lon="-2.0945584774017333984375">
        <ele>96.40000152587890625</ele>
        <time>2019-05-21T13:28:26.000Z</time>
      </trkpt>
      <trkpt lat="43.1054523400962352752685546875" lon="-2.0948248542845249176025390625">
        <ele>93.59999847412109375</ele>
        <time>2019-05-21T13:28:35.000Z</time>
      </trkpt>
      <trkpt lat="43.10538955964148044586181640625" lon="-2.0948493294417858123779296875">
        <ele>93.40000152587890625</ele>
        <time>2019-05-21T13:28:36.000Z</time>
      </trkpt>
      <trkpt lat="43.10495738871395587921142578125" lon="-2.09505544044077396392822265625">
        <ele>94</ele>
        <time>2019-05-21T13:28:43.000Z</time>
      </trkpt>
      <trkpt lat="43.1047697179019451141357421875" lon="-2.09514227695763111114501953125">
        <ele>94.59999847412109375</ele>
        <time>2019-05-21T13:28:46.000Z</time>
      </trkpt>
      <trkpt lat="43.1042450107634067535400390625" lon="-2.09535685367882251739501953125">
        <ele>96.40000152587890625</ele>
        <time>2019-05-21T13:28:54.000Z</time>
      </trkpt>
      <trkpt lat="43.10410712845623493194580078125" lon="-2.09541016258299350738525390625">
        <ele>96.40000152587890625</ele>
        <time>2019-05-21T13:28:56.000Z</time>
      </trkpt>
      <trkpt lat="43.103535734117031097412109375" lon="-2.09562775678932666778564453125">
        <ele>96.8000030517578125</ele>
        <time>2019-05-21T13:29:04.000Z</time>
      </trkpt>
      <trkpt lat="43.10339366085827350616455078125" lon="-2.09569179452955722808837890625">
        <ele>97.1999969482421875</ele>
        <time>2019-05-21T13:29:06.000Z</time>
      </trkpt>
      <trkpt lat="43.10285554267466068267822265625" lon="-2.09601114504039287567138671875">
        <ele>98</ele>
        <time>2019-05-21T13:29:14.000Z</time>
      </trkpt>
      <trkpt lat="43.102727048099040985107421875" lon="-2.0961019210517406463623046875">
        <ele>98.59999847412109375</ele>
        <time>2019-05-21T13:29:16.000Z</time>
      </trkpt>
      <trkpt lat="43.1022189371287822723388671875" lon="-2.09646485745906829833984375">
        <ele>99.1999969482421875</ele>
        <time>2019-05-21T13:29:24.000Z</time>
      </trkpt>
      <trkpt lat="43.1020938791334629058837890625" lon="-2.09655043669044971466064453125">
        <ele>99.1999969482421875</ele>
        <time>2019-05-21T13:29:26.000Z</time>
      </trkpt>
      <trkpt lat="43.10169246979057788848876953125" lon="-2.09686676971614360809326171875">
        <ele>98.8000030517578125</ele>
        <time>2019-05-21T13:29:33.000Z</time>
      </trkpt>
      <trkpt lat="43.1015389971435070037841796875" lon="-2.09701714105904102325439453125">
        <ele>98.59999847412109375</ele>
        <time>2019-05-21T13:29:36.000Z</time>
      </trkpt>
      <trkpt lat="43.10139834880828857421875" lon="-2.0971825160086154937744140625">
        <ele>98.59999847412109375</ele>
        <time>2019-05-21T13:29:39.000Z</time>
      </trkpt>
      <trkpt lat="43.10135451145470142364501953125" lon="-2.0972420275211334228515625">
        <ele>98.59999847412109375</ele>
        <time>2019-05-21T13:29:40.000Z</time>
      </trkpt>
      <trkpt lat="43.1013136915862560272216796875" lon="-2.09730497561395168304443359375">
        <ele>98.59999847412109375</ele>
        <time>2019-05-21T13:29:41.000Z</time>
      </trkpt>
      <trkpt lat="43.10112333856523036956787109375" lon="-2.09765575826168060302734375">
        <ele>99</ele>
        <time>2019-05-21T13:29:46.000Z</time>
      </trkpt>
      <trkpt lat="43.10087188147008419036865234375" lon="-2.0982389710843563079833984375">
        <ele>99.8000030517578125</ele>
        <time>2019-05-21T13:29:56.000Z</time>
      </trkpt>
      <trkpt lat="43.10057952068746089935302734375" lon="-2.09806806407868862152099609375">
        <ele>98.8000030517578125</ele>
        <time>2019-05-21T13:30:04.000Z</time>
      </trkpt>
      <trkpt lat="43.10048011131584644317626953125" lon="-2.0979878492653369903564453125">
        <ele>98.40000152587890625</ele>
        <time>2019-05-21T13:30:06.000Z</time>
      </trkpt>
      <trkpt lat="43.10028313659131526947021484375" lon="-2.097854912281036376953125">
        <ele>98</ele>
        <time>2019-05-21T13:30:10.000Z</time>
      </trkpt>
      <trkpt lat="43.1000795401632785797119140625" lon="-2.09769624285399913787841796875">
        <ele>98.59999847412109375</ele>
        <time>2019-05-21T13:30:15.000Z</time>
      </trkpt>
      <trkpt lat="43.100034780800342559814453125" lon="-2.09766556508839130401611328125">
        <ele>100.59999847412109375</ele>
        <time>2019-05-21T13:30:16.000Z</time>
      </trkpt>
      <trkpt lat="43.09998742304742336273193359375" lon="-2.09764209575951099395751953125">
        <ele>102.8000030517578125</ele>
        <time>2019-05-21T13:30:17.000Z</time>
      </trkpt>
      <trkpt lat="43.0998730100691318511962890625" lon="-2.09777721203863620758056640625">
        <ele>108.40000152587890625</ele>
        <time>2019-05-21T13:30:20.000Z</time>
      </trkpt>
      <trkpt lat="43.0998143367469310760498046875" lon="-2.098215334117412567138671875">
        <ele>112.1999969482421875</ele>
        <time>2019-05-21T13:30:26.000Z</time>
      </trkpt>
      <trkpt lat="43.099730014801025390625" lon="-2.09866787306964397430419921875">
        <ele>116</ele>
        <time>2019-05-21T13:30:33.000Z</time>
      </trkpt>
      <trkpt lat="43.0996973253786563873291015625" lon="-2.09883433766663074493408203125">
        <ele>117.8000030517578125</ele>
        <time>2019-05-21T13:30:36.000Z</time>
      </trkpt>
      <trkpt lat="43.09965834952890872955322265625" lon="-2.09911848418414592742919921875">
        <ele>120</ele>
        <time>2019-05-21T13:30:41.000Z</time>
      </trkpt>
      <trkpt lat="43.09964041225612163543701171875" lon="-2.09940128959715366363525390625">
        <ele>119.8000030517578125</ele>
        <time>2019-05-21T13:30:46.000Z</time>
      </trkpt>
      <trkpt lat="43.0996011011302471160888671875" lon="-2.09996757097542285919189453125">
        <ele>121</ele>
        <time>2019-05-21T13:30:56.000Z</time>
      </trkpt>
      <trkpt lat="43.0995893664658069610595703125" lon="-2.100188098847866058349609375">
        <ele>121</ele>
        <time>2019-05-21T13:31:00.000Z</time>
      </trkpt>
      <trkpt lat="43.09958073310554027557373046875" lon="-2.10039571858942508697509765625">
        <ele>120.8000030517578125</ele>
        <time>2019-05-21T13:31:04.000Z</time>
      </trkpt>
      <trkpt lat="43.09957754798233509063720703125" lon="-2.100450955331325531005859375">
        <ele>120.8000030517578125</ele>
        <time>2019-05-21T13:31:05.000Z</time>
      </trkpt>
      <trkpt lat="43.09957000426948070526123046875" lon="-2.1005044318735599517822265625">
        <ele>121</ele>
        <time>2019-05-21T13:31:06.000Z</time>
      </trkpt>
      <trkpt lat="43.099468834698200225830078125" lon="-2.1009181626141071319580078125">
        <ele>120.8000030517578125</ele>
        <time>2019-05-21T13:31:14.000Z</time>
      </trkpt>
      <trkpt lat="43.09944930486381053924560546875" lon="-2.101022265851497650146484375">
        <ele>119.59999847412109375</ele>
        <time>2019-05-21T13:31:16.000Z</time>
      </trkpt>
      <trkpt lat="43.09931871481239795684814453125" lon="-2.10136659443378448486328125">
        <ele>117.59999847412109375</ele>
        <time>2019-05-21T13:31:23.000Z</time>
      </trkpt>
      <trkpt lat="43.0992349795997142791748046875" lon="-2.10147396661341190338134765625">
        <ele>118.59999847412109375</ele>
        <time>2019-05-21T13:31:26.000Z</time>
      </trkpt>
      <trkpt lat="43.09889844618737697601318359375" lon="-2.10164696909487247467041015625">
        <ele>126.40000152587890625</ele>
        <time>2019-05-21T13:31:35.000Z</time>
      </trkpt>
      <trkpt lat="43.09886240400373935699462890625" lon="-2.10166322998702526092529296875">
        <ele>127.1999969482421875</ele>
        <time>2019-05-21T13:31:36.000Z</time>
      </trkpt>
      <trkpt lat="43.09846761636435985565185546875" lon="-2.1018710173666477203369140625">
        <ele>136</ele>
        <time>2019-05-21T13:31:46.000Z</time>
      </trkpt>
      <trkpt lat="43.09812177903950214385986328125" lon="-2.10216715000569820404052734375">
        <ele>136.399993896484375</ele>
        <time>2019-05-21T13:31:56.000Z</time>
      </trkpt>
      <trkpt lat="43.09773419983685016632080078125" lon="-2.10239664651453495025634765625">
        <ele>138.399993896484375</ele>
        <time>2019-05-21T13:32:06.000Z</time>
      </trkpt>
      <trkpt lat="43.09735852293670177459716796875" lon="-2.10250024683773517608642578125">
        <ele>141.8000030517578125</ele>
        <time>2019-05-21T13:32:16.000Z</time>
      </trkpt>
      <trkpt lat="43.09698485769331455230712890625" lon="-2.10260351188480854034423828125">
        <ele>144.399993896484375</ele>
        <time>2019-05-21T13:32:26.000Z</time>
      </trkpt>
      <trkpt lat="43.096696436405181884765625" lon="-2.10269831120967864990234375">
        <ele>147.1999969482421875</ele>
        <time>2019-05-21T13:32:33.000Z</time>
      </trkpt>
      <trkpt lat="43.09661504812538623809814453125" lon="-2.10275790654122829437255859375">
        <ele>148.600006103515625</ele>
        <time>2019-05-21T13:32:35.000Z</time>
      </trkpt>
      <trkpt lat="43.0965809337794780731201171875" lon="-2.1027968823909759521484375">
        <ele>149.1999969482421875</ele>
        <time>2019-05-21T13:32:36.000Z</time>
      </trkpt>
      <trkpt lat="43.096462078392505645751953125" lon="-2.10296628065407276153564453125">
        <ele>151.1999969482421875</ele>
        <time>2019-05-21T13:32:40.000Z</time>
      </trkpt>
      <trkpt lat="43.09629418887197971343994140625" lon="-2.10323047824203968048095703125">
        <ele>154</ele>
        <time>2019-05-21T13:32:46.000Z</time>
      </trkpt>
      <trkpt lat="43.09603904373943805694580078125" lon="-2.103678993880748748779296875">
        <ele>157.8000030517578125</ele>
        <time>2019-05-21T13:32:56.000Z</time>
      </trkpt>
      <trkpt lat="43.0959771014750003814697265625" lon="-2.10376591421663761138916015625">
        <ele>158.600006103515625</ele>
        <time>2019-05-21T13:32:58.000Z</time>
      </trkpt>
      <trkpt lat="43.095892779529094696044921875" lon="-2.10377764888107776641845703125">
        <ele>159.600006103515625</ele>
        <time>2019-05-21T13:33:00.000Z</time>
      </trkpt>
      <trkpt lat="43.0958386324346065521240234375" lon="-2.1036302112042903900146484375">
        <ele>160.1999969482421875</ele>
        <time>2019-05-21T13:33:04.000Z</time>
      </trkpt>
      <trkpt lat="43.09591314755380153656005859375" lon="-2.10354295559227466583251953125">
        <ele>159.8000030517578125</ele>
        <time>2019-05-21T13:33:06.000Z</time>
      </trkpt>
      <trkpt lat="43.09616980142891407012939453125" lon="-2.1031122095882892608642578125">
        <ele>156</ele>
        <time>2019-05-21T13:33:16.000Z</time>
      </trkpt>
      <trkpt lat="43.09630525298416614532470703125" lon="-2.10260116495192050933837890625">
        <ele>161.1999969482421875</ele>
        <time>2019-05-21T13:33:26.000Z</time>
      </trkpt>
      <trkpt lat="43.09633190743625164031982421875" lon="-2.10235389880836009979248046875">
        <ele>166</ele>
        <time>2019-05-21T13:33:30.000Z</time>
      </trkpt>
      <trkpt lat="43.09638605453073978424072265625" lon="-2.10224342532455921173095703125">
        <ele>166.1999969482421875</ele>
        <time>2019-05-21T13:33:32.000Z</time>
      </trkpt>
      <trkpt lat="43.0964595638215541839599609375" lon="-2.1021653898060321807861328125">
        <ele>165</ele>
        <time>2019-05-21T13:33:34.000Z</time>
      </trkpt>
      <trkpt lat="43.09654480777680873870849609375" lon="-2.10211099125444889068603515625">
        <ele>162.600006103515625</ele>
        <time>2019-05-21T13:33:36.000Z</time>
      </trkpt>
      <trkpt lat="43.0968394316732883453369140625" lon="-2.10198811255395412445068359375">
        <ele>156.1999969482421875</ele>
        <time>2019-05-21T13:33:43.000Z</time>
      </trkpt>
      <trkpt lat="43.09695719741284847259521484375" lon="-2.10194620303809642791748046875">
        <ele>157.1999969482421875</ele>
        <time>2019-05-21T13:33:46.000Z</time>
      </trkpt>
      <trkpt lat="43.09734226204454898834228515625" lon="-2.101800441741943359375">
        <ele>160.399993896484375</ele>
        <time>2019-05-21T13:33:56.000Z</time>
      </trkpt>
      <trkpt lat="43.09769866056740283966064453125" lon="-2.10163624025881290435791015625">
        <ele>161.1999969482421875</ele>
        <time>2019-05-21T13:34:06.000Z</time>
      </trkpt>
      <trkpt lat="43.0977698229253292083740234375" lon="-2.10158259607851505279541015625">
        <ele>161</ele>
        <time>2019-05-21T13:34:08.000Z</time>
      </trkpt>
      <trkpt lat="43.098033852875232696533203125" lon="-2.10127715952694416046142578125">
        <ele>161.1999969482421875</ele>
        <time>2019-05-21T13:34:16.000Z</time>
      </trkpt>
      <trkpt lat="43.0982774309813976287841796875" lon="-2.100859992206096649169921875">
        <ele>164.8000030517578125</ele>
        <time>2019-05-21T13:34:26.000Z</time>
      </trkpt>
      <trkpt lat="43.09828153811395168304443359375" lon="-2.100804336369037628173828125">
        <ele>166</ele>
        <time>2019-05-21T13:34:27.000Z</time>
      </trkpt>
      <trkpt lat="43.0981597490608692169189453125" lon="-2.1003642864525318145751953125">
        <ele>171.1999969482421875</ele>
        <time>2019-05-21T13:34:36.000Z</time>
      </trkpt>
      <trkpt lat="43.09807349927723407745361328125" lon="-2.10014577023684978485107421875">
        <ele>176</ele>
        <time>2019-05-21T13:34:41.000Z</time>
      </trkpt>
      <trkpt lat="43.098053634166717529296875" lon="-2.09990370087325572967529296875">
        <ele>180.1999969482421875</ele>
        <time>2019-05-21T13:34:46.000Z</time>
      </trkpt>
      <trkpt lat="43.0980910174548625946044921875" lon="-2.09973271004855632781982421875">
        <ele>180</ele>
        <time>2019-05-21T13:34:49.000Z</time>
      </trkpt>
      <trkpt lat="43.09826561249792575836181640625" lon="-2.09939123131334781646728515625">
        <ele>175.600006103515625</ele>
        <time>2019-05-21T13:34:56.000Z</time>
      </trkpt>
      <trkpt lat="43.0984385311603546142578125" lon="-2.09901873953640460968017578125">
        <ele>170.1999969482421875</ele>
        <time>2019-05-21T13:35:04.000Z</time>
      </trkpt>
      <trkpt lat="43.09847650118172168731689453125" lon="-2.09892033599317073822021484375">
        <ele>168.399993896484375</ele>
        <time>2019-05-21T13:35:06.000Z</time>
      </trkpt>
      <trkpt lat="43.09852628968656063079833984375" lon="-2.0987583138048648834228515625">
        <ele>165.600006103515625</ele>
        <time>2019-05-21T13:35:09.000Z</time>
      </trkpt>
      <trkpt lat="43.09853768907487392425537109375" lon="-2.09864691831171512603759765625">
        <ele>164.399993896484375</ele>
        <time>2019-05-21T13:35:11.000Z</time>
      </trkpt>
      <trkpt lat="43.09843408875167369842529296875" lon="-2.0985232852399349212646484375">
        <ele>166.8000030517578125</ele>
        <time>2019-05-21T13:35:15.000Z</time>
      </trkpt>
      <trkpt lat="43.09840030968189239501953125" lon="-2.0985524542629718780517578125">
        <ele>168</ele>
        <time>2019-05-21T13:35:16.000Z</time>
      </trkpt>
      <trkpt lat="43.09837558306753635406494140625" lon="-2.09859511815011501312255859375">
        <ele>168.8000030517578125</ele>
        <time>2019-05-21T13:35:17.000Z</time>
      </trkpt>
      <trkpt lat="43.0982425622642040252685546875" lon="-2.099053524434566497802734375">
        <ele>175.8000030517578125</ele>
        <time>2019-05-21T13:35:26.000Z</time>
      </trkpt>
      <trkpt lat="43.09802169911563396453857421875" lon="-2.099464237689971923828125">
        <ele>184</ele>
        <time>2019-05-21T13:35:35.000Z</time>
      </trkpt>
      <trkpt lat="43.09797375462949275970458984375" lon="-2.09955878555774688720703125">
        <ele>185.8000030517578125</ele>
        <time>2019-05-21T13:35:36.000Z</time>
      </trkpt>
      <trkpt lat="43.09787769801914691925048828125" lon="-2.09980999119579792022705078125">
        <ele>187.8000030517578125</ele>
        <time>2019-05-21T13:35:42.000Z</time>
      </trkpt>
      <trkpt lat="43.0978201143443584442138671875" lon="-2.10001300089061260223388671875">
        <ele>188</ele>
        <time>2019-05-21T13:35:46.000Z</time>
      </trkpt>
      <trkpt lat="43.09765373356640338897705078125" lon="-2.10049085319042205810546875">
        <ele>187.1999969482421875</ele>
        <time>2019-05-21T13:35:56.000Z</time>
      </trkpt>
      <trkpt lat="43.09731761924922466278076171875" lon="-2.10077608935534954071044921875">
        <ele>184.8000030517578125</ele>
        <time>2019-05-21T13:36:06.000Z</time>
      </trkpt>
      <trkpt lat="43.09692752547562122344970703125" lon="-2.10073359310626983642578125">
        <ele>185.600006103515625</ele>
        <time>2019-05-21T13:36:16.000Z</time>
      </trkpt>
      <trkpt lat="43.09653474949300289154052734375" lon="-2.10050267167389392852783203125">
        <ele>193.1999969482421875</ele>
        <time>2019-05-21T13:36:26.000Z</time>
      </trkpt>
      <trkpt lat="43.0961366929113864898681640625" lon="-2.10042488761246204376220703125">
        <ele>198.600006103515625</ele>
        <time>2019-05-21T13:36:36.000Z</time>
      </trkpt>
      <trkpt lat="43.0957310087978839874267578125" lon="-2.10038415156304836273193359375">
        <ele>206</ele>
        <time>2019-05-21T13:36:46.000Z</time>
      </trkpt>
      <trkpt lat="43.0956066213548183441162109375" lon="-2.10041633807122707366943359375">
        <ele>209.600006103515625</ele>
        <time>2019-05-21T13:36:49.000Z</time>
      </trkpt>
      <trkpt lat="43.09554015286266803741455078125" lon="-2.10047584958374500274658203125">
        <ele>211</ele>
        <time>2019-05-21T13:36:51.000Z</time>
      </trkpt>
      <trkpt lat="43.0954922921955585479736328125" lon="-2.10055656731128692626953125">
        <ele>211.8000030517578125</ele>
        <time>2019-05-21T13:36:53.000Z</time>
      </trkpt>
      <trkpt lat="43.0954678170382976531982421875" lon="-2.1006656996905803680419921875">
        <ele>211.399993896484375</ele>
        <time>2019-05-21T13:36:55.000Z</time>
      </trkpt>
      <trkpt lat="43.095464296638965606689453125" lon="-2.1007190085947513580322265625">
        <ele>211</ele>
        <time>2019-05-21T13:36:56.000Z</time>
      </trkpt>
      <trkpt lat="43.09549019671976566314697265625" lon="-2.1012839488685131072998046875">
        <ele>208.8000030517578125</ele>
        <time>2019-05-21T13:37:06.000Z</time>
      </trkpt>
      <trkpt lat="43.09547175653278827667236328125" lon="-2.10164043121039867401123046875">
        <ele>208.600006103515625</ele>
        <time>2019-05-21T13:37:12.000Z</time>
      </trkpt>
      <trkpt lat="43.0954155139625072479248046875" lon="-2.10185450501739978790283203125">
        <ele>206.399993896484375</ele>
        <time>2019-05-21T13:37:16.000Z</time>
      </trkpt>
      <trkpt lat="43.0951184593141078948974609375" lon="-2.10225247777998447418212890625">
        <ele>207.8000030517578125</ele>
        <time>2019-05-21T13:37:26.000Z</time>
      </trkpt>
      <trkpt lat="43.0950795672833919525146484375" lon="-2.102278880774974822998046875">
        <ele>208</ele>
        <time>2019-05-21T13:37:27.000Z</time>
      </trkpt>
      <trkpt lat="43.09489960782229900360107421875" lon="-2.102377116680145263671875">
        <ele>208.1999969482421875</ele>
        <time>2019-05-21T13:37:32.000Z</time>
      </trkpt>
      <trkpt lat="43.0947432853281497955322265625" lon="-2.1024064533412456512451171875">
        <ele>209.399993896484375</ele>
        <time>2019-05-21T13:37:36.000Z</time>
      </trkpt>
      <trkpt lat="43.0943268723785877227783203125" lon="-2.10244140587747097015380859375">
        <ele>213.1999969482421875</ele>
        <time>2019-05-21T13:37:46.000Z</time>
      </trkpt>
      <trkpt lat="43.093914650380611419677734375" lon="-2.10253260098397731781005859375">
        <ele>215.8000030517578125</ele>
        <time>2019-05-21T13:37:56.000Z</time>
      </trkpt>
      <trkpt lat="43.09346345253288745880126953125" lon="-2.10259546525776386260986328125">
        <ele>219</ele>
        <time>2019-05-21T13:38:06.000Z</time>
      </trkpt>
      <trkpt lat="43.09325424022972583770751953125" lon="-2.102639973163604736328125">
        <ele>225</ele>
        <time>2019-05-21T13:38:11.000Z</time>
      </trkpt>
      <trkpt lat="43.09308509342372417449951171875" lon="-2.10268263705074787139892578125">
        <ele>229.1999969482421875</ele>
        <time>2019-05-21T13:38:15.000Z</time>
      </trkpt>
      <trkpt lat="43.093041591346263885498046875" lon="-2.1026984788477420806884765625">
        <ele>230.1999969482421875</ele>
        <time>2019-05-21T13:38:16.000Z</time>
      </trkpt>
      <trkpt lat="43.092918209731578826904296875" lon="-2.10276561789214611053466796875">
        <ele>233</ele>
        <time>2019-05-21T13:38:19.000Z</time>
      </trkpt>
      <trkpt lat="43.09284956194460391998291015625" lon="-2.1028356067836284637451171875">
        <ele>234.1999969482421875</ele>
        <time>2019-05-21T13:38:21.000Z</time>
      </trkpt>
      <trkpt lat="43.09271804988384246826171875" lon="-2.10306099615991115570068359375">
        <ele>236.1999969482421875</ele>
        <time>2019-05-21T13:38:26.000Z</time>
      </trkpt>
      <trkpt lat="43.0925247631967067718505859375" lon="-2.1035775728523731231689453125">
        <ele>232.600006103515625</ele>
        <time>2019-05-21T13:38:36.000Z</time>
      </trkpt>
      <trkpt lat="43.09225394390523433685302734375" lon="-2.10400295443832874298095703125">
        <ele>229.8000030517578125</ele>
        <time>2019-05-21T13:38:46.000Z</time>
      </trkpt>
      <trkpt lat="43.09185563586652278900146484375" lon="-2.1041616238653659820556640625">
        <ele>238.1999969482421875</ele>
        <time>2019-05-21T13:38:56.000Z</time>
      </trkpt>
      <trkpt lat="43.0916168354451656341552734375" lon="-2.1042005158960819244384765625">
        <ele>245.399993896484375</ele>
        <time>2019-05-21T13:39:02.000Z</time>
      </trkpt>
      <trkpt lat="43.0914565734565258026123046875" lon="-2.10424284450709819793701171875">
        <ele>249.1999969482421875</ele>
        <time>2019-05-21T13:39:06.000Z</time>
      </trkpt>
      <trkpt lat="43.0910991691052913665771484375" lon="-2.1044274978339672088623046875">
        <ele>259</ele>
        <time>2019-05-21T13:39:16.000Z</time>
      </trkpt>
      <trkpt lat="43.09110595844686031341552734375" lon="-2.10469764657318592071533203125">
        <ele>262.399993896484375</ele>
        <time>2019-05-21T13:39:21.000Z</time>
      </trkpt>
      <trkpt lat="43.09115457348525524139404296875" lon="-2.1047993190586566925048828125">
        <ele>261</ele>
        <time>2019-05-21T13:39:23.000Z</time>
      </trkpt>
      <trkpt lat="43.0912255682051181793212890625" lon="-2.10493083111941814422607421875">
        <ele>257.399993896484375</ele>
        <time>2019-05-21T13:39:26.000Z</time>
      </trkpt>
      <trkpt lat="43.09132724069058895111083984375" lon="-2.105122692883014678955078125">
        <ele>256.600006103515625</ele>
        <time>2019-05-21T13:39:30.000Z</time>
      </trkpt>
      <trkpt lat="43.09136847965419292449951171875" lon="-2.10522755049169063568115234375">
        <ele>256.600006103515625</ele>
        <time>2019-05-21T13:39:32.000Z</time>
      </trkpt>
      <trkpt lat="43.09146344661712646484375" lon="-2.105434499680995941162109375">
        <ele>255.600006103515625</ele>
        <time>2019-05-21T13:39:36.000Z</time>
      </trkpt>
      <trkpt lat="43.0916292406618595123291015625" lon="-2.10578192956745624542236328125">
        <ele>253</ele>
        <time>2019-05-21T13:39:43.000Z</time>
      </trkpt>
      <trkpt lat="43.09168246574699878692626953125" lon="-2.10594420321285724639892578125">
        <ele>252.1999969482421875</ele>
        <time>2019-05-21T13:39:46.000Z</time>
      </trkpt>
      <trkpt lat="43.09169453568756580352783203125" lon="-2.10605165921151638031005859375">
        <ele>252.8000030517578125</ele>
        <time>2019-05-21T13:39:48.000Z</time>
      </trkpt>
      <trkpt lat="43.09167793951928615570068359375" lon="-2.10645332001149654388427734375">
        <ele>257.399993896484375</ele>
        <time>2019-05-21T13:39:56.000Z</time>
      </trkpt>
      <trkpt lat="43.091653548181056976318359375" lon="-2.106858082115650177001953125">
        <ele>262.20001220703125</ele>
        <time>2019-05-21T13:40:04.000Z</time>
      </trkpt>
      <trkpt lat="43.09166134335100650787353515625" lon="-2.10694902576506137847900390625">
        <ele>263</ele>
        <time>2019-05-21T13:40:06.000Z</time>
      </trkpt>
      <trkpt lat="43.09166436083614826202392578125" lon="-2.1071626804769039154052734375">
        <ele>265.79998779296875</ele>
        <time>2019-05-21T13:40:10.000Z</time>
      </trkpt>
      <trkpt lat="43.0916855670511722564697265625" lon="-2.1074718050658702850341796875">
        <ele>268.79998779296875</ele>
        <time>2019-05-21T13:40:16.000Z</time>
      </trkpt>
      <trkpt lat="43.09173091314733028411865234375" lon="-2.10757582448422908782958984375">
        <ele>268.79998779296875</ele>
        <time>2019-05-21T13:40:18.000Z</time>
      </trkpt>
      <trkpt lat="43.0918357707560062408447265625" lon="-2.10768143646419048309326171875">
        <ele>267.600006103515625</ele>
        <time>2019-05-21T13:40:21.000Z</time>
      </trkpt>
      <trkpt lat="43.09195403940975666046142578125" lon="-2.10776022635400295257568359375">
        <ele>265.20001220703125</ele>
        <time>2019-05-21T13:40:24.000Z</time>
      </trkpt>
      <trkpt lat="43.09202671051025390625" lon="-2.10780548863112926483154296875">
        <ele>263.79998779296875</ele>
        <time>2019-05-21T13:40:26.000Z</time>
      </trkpt>
      <trkpt lat="43.09209653176367282867431640625" lon="-2.10785661824047565460205078125">
        <ele>262.600006103515625</ele>
        <time>2019-05-21T13:40:28.000Z</time>
      </trkpt>
      <trkpt lat="43.09213240630924701690673828125" lon="-2.1078979410231113433837890625">
        <ele>262.20001220703125</ele>
        <time>2019-05-21T13:40:29.000Z</time>
      </trkpt>
      <trkpt lat="43.09219560585916042327880859375" lon="-2.1079861186444759368896484375">
        <ele>261.79998779296875</ele>
        <time>2019-05-21T13:40:31.000Z</time>
      </trkpt>
      <trkpt lat="43.0922736413776874542236328125" lon="-2.1081611327826976776123046875">
        <ele>262.399993896484375</ele>
        <time>2019-05-21T13:40:34.000Z</time>
      </trkpt>
      <trkpt lat="43.0922937579452991485595703125" lon="-2.10828602313995361328125">
        <ele>263.399993896484375</ele>
        <time>2019-05-21T13:40:36.000Z</time>
      </trkpt>
      <trkpt lat="43.09233876876533031463623046875" lon="-2.10888591594994068145751953125">
        <ele>264.79998779296875</ele>
        <time>2019-05-21T13:40:46.000Z</time>
      </trkpt>
      <trkpt lat="43.09212938882410526275634765625" lon="-2.10934348404407501220703125">
        <ele>269.79998779296875</ele>
        <time>2019-05-21T13:40:56.000Z</time>
      </trkpt>
      <trkpt lat="43.0919219367206096649169921875" lon="-2.109517492353916168212890625">
        <ele>273.399993896484375</ele>
        <time>2019-05-21T13:41:02.000Z</time>
      </trkpt>
      <trkpt lat="43.0918300710618495941162109375" lon="-2.10969359613955020904541015625">
        <ele>274.600006103515625</ele>
        <time>2019-05-21T13:41:06.000Z</time>
      </trkpt>
      <trkpt lat="43.09165530838072299957275390625" lon="-2.11016817949712276458740234375">
        <ele>278.20001220703125</ele>
        <time>2019-05-21T13:41:16.000Z</time>
      </trkpt>
      <trkpt lat="43.0915175937116146087646484375" lon="-2.11056279949843883514404296875">
        <ele>281.399993896484375</ele>
        <time>2019-05-21T13:41:26.000Z</time>
      </trkpt>
      <trkpt lat="43.0914384685456752777099609375" lon="-2.1110741794109344482421875">
        <ele>281.600006103515625</ele>
        <time>2019-05-21T13:41:36.000Z</time>
      </trkpt>
      <trkpt lat="43.09131919406354427337646484375" lon="-2.11163140833377838134765625">
        <ele>286.20001220703125</ele>
        <time>2019-05-21T13:41:46.000Z</time>
      </trkpt>
      <trkpt lat="43.09108869172632694244384765625" lon="-2.1122008748352527618408203125">
        <ele>295</ele>
        <time>2019-05-21T13:41:56.000Z</time>
      </trkpt>
      <trkpt lat="43.09090311639010906219482421875" lon="-2.1127591095864772796630859375">
        <ele>295.600006103515625</ele>
        <time>2019-05-21T13:42:06.000Z</time>
      </trkpt>
      <trkpt lat="43.09064243920147418975830078125" lon="-2.11327468045055866241455078125">
        <ele>288.399993896484375</ele>
        <time>2019-05-21T13:42:16.000Z</time>
      </trkpt>
      <trkpt lat="43.090303726494312286376953125" lon="-2.1136801131069660186767578125">
        <ele>286</ele>
        <time>2019-05-21T13:42:26.000Z</time>
      </trkpt>
      <trkpt lat="43.09026089496910572052001953125" lon="-2.11370266042649745941162109375">
        <ele>286</ele>
        <time>2019-05-21T13:42:27.000Z</time>
      </trkpt>
      <trkpt lat="43.09016852639615535736083984375" lon="-2.11372210644185543060302734375">
        <ele>286.399993896484375</ele>
        <time>2019-05-21T13:42:29.000Z</time>
      </trkpt>
      <trkpt lat="43.09007330797612667083740234375" lon="-2.1137107908725738525390625">
        <ele>286.20001220703125</ele>
        <time>2019-05-21T13:42:31.000Z</time>
      </trkpt>
      <trkpt lat="43.0899840407073497772216796875" lon="-2.11367701180279254913330078125">
        <ele>285</ele>
        <time>2019-05-21T13:42:33.000Z</time>
      </trkpt>
      <trkpt lat="43.08990952558815479278564453125" lon="-2.11362521164119243621826171875">
        <ele>284.20001220703125</ele>
        <time>2019-05-21T13:42:35.000Z</time>
      </trkpt>
      <trkpt lat="43.089875914156436920166015625" lon="-2.11358883418142795562744140625">
        <ele>284</ele>
        <time>2019-05-21T13:42:36.000Z</time>
      </trkpt>
      <trkpt lat="43.08984548784792423248291015625" lon="-2.11354692466557025909423828125">
        <ele>283.79998779296875</ele>
        <time>2019-05-21T13:42:37.000Z</time>
      </trkpt>
      <trkpt lat="43.08980257250368595123291015625" lon="-2.1134524606168270111083984375">
        <ele>283.600006103515625</ele>
        <time>2019-05-21T13:42:39.000Z</time>
      </trkpt>
      <trkpt lat="43.08977994136512279510498046875" lon="-2.1133428253233432769775390625">
        <ele>283.600006103515625</ele>
        <time>2019-05-21T13:42:41.000Z</time>
      </trkpt>
      <trkpt lat="43.08977575041353702545166015625" lon="-2.1130608581006526947021484375">
        <ele>286</ele>
        <time>2019-05-21T13:42:46.000Z</time>
      </trkpt>
      <trkpt lat="43.08978949673473834991455078125" lon="-2.11294434964656829833984375">
        <ele>287.399993896484375</ele>
        <time>2019-05-21T13:42:48.000Z</time>
      </trkpt>
      <trkpt lat="43.08984833769500255584716796875" lon="-2.11253975518047809600830078125">
        <ele>293</ele>
        <time>2019-05-21T13:42:55.000Z</time>
      </trkpt>
      <trkpt lat="43.08985437266528606414794921875" lon="-2.112479992210865020751953125">
        <ele>293.79998779296875</ele>
        <time>2019-05-21T13:42:56.000Z</time>
      </trkpt>
      <trkpt lat="43.089856803417205810546875" lon="-2.1124204806983470916748046875">
        <ele>294.399993896484375</ele>
        <time>2019-05-21T13:42:57.000Z</time>
      </trkpt>
      <trkpt lat="43.08982637710869312286376953125" lon="-2.11218955926597118377685546875">
        <ele>295.600006103515625</ele>
        <time>2019-05-21T13:43:01.000Z</time>
      </trkpt>
      <trkpt lat="43.0897721461951732635498046875" lon="-2.1120308898389339447021484375">
        <ele>295.600006103515625</ele>
        <time>2019-05-21T13:43:04.000Z</time>
      </trkpt>
      <trkpt lat="43.08971238322556018829345703125" lon="-2.111944220960140228271484375">
        <ele>295.399993896484375</ele>
        <time>2019-05-21T13:43:06.000Z</time>
      </trkpt>
      <trkpt lat="43.089538626372814178466796875" lon="-2.111761830747127532958984375">
        <ele>295.399993896484375</ele>
        <time>2019-05-21T13:43:11.000Z</time>
      </trkpt>
      <trkpt lat="43.08937660418450832366943359375" lon="-2.11157198064029216766357421875">
        <ele>295.600006103515625</ele>
        <time>2019-05-21T13:43:16.000Z</time>
      </trkpt>
      <trkpt lat="43.0892303399741649627685546875" lon="-2.1112942881882190704345703125">
        <ele>297.600006103515625</ele>
        <time>2019-05-21T13:43:22.000Z</time>
      </trkpt>
      <trkpt lat="43.08918784372508525848388671875" lon="-2.1111903525888919830322265625">
        <ele>298.20001220703125</ele>
        <time>2019-05-21T13:43:24.000Z</time>
      </trkpt>
      <trkpt lat="43.0891441740095615386962890625" lon="-2.11109035648405551910400390625">
        <ele>298.79998779296875</ele>
        <time>2019-05-21T13:43:26.000Z</time>
      </trkpt>
      <trkpt lat="43.08903026394546031951904296875" lon="-2.1108507178723812103271484375">
        <ele>300.20001220703125</ele>
        <time>2019-05-21T13:43:31.000Z</time>
      </trkpt>
      <trkpt lat="43.08890855871140956878662109375" lon="-2.1106187067925930023193359375">
        <ele>301.399993896484375</ele>
        <time>2019-05-21T13:43:36.000Z</time>
      </trkpt>
      <trkpt lat="43.08867554180324077606201171875" lon="-2.11014219559729099273681640625">
        <ele>305</ele>
        <time>2019-05-21T13:43:46.000Z</time>
      </trkpt>
      <trkpt lat="43.0885584466159343719482421875" lon="-2.1099032275378704071044921875">
        <ele>307</ele>
        <time>2019-05-21T13:43:51.000Z</time>
      </trkpt>
      <trkpt lat="43.0884283594787120819091796875" lon="-2.10969275794923305511474609375">
        <ele>308.79998779296875</ele>
        <time>2019-05-21T13:43:56.000Z</time>
      </trkpt>
      <trkpt lat="43.0883185565471649169921875" lon="-2.10950416512787342071533203125">
        <ele>310</ele>
        <time>2019-05-21T13:44:00.000Z</time>
      </trkpt>
      <trkpt lat="43.088121749460697174072265625" lon="-2.109260670840740203857421875">
        <ele>311.399993896484375</ele>
        <time>2019-05-21T13:44:06.000Z</time>
      </trkpt>
      <trkpt lat="43.087895102798938751220703125" lon="-2.10900594480335712432861328125">
        <ele>313.79998779296875</ele>
        <time>2019-05-21T13:44:13.000Z</time>
      </trkpt>
      <trkpt lat="43.08780114166438579559326171875" lon="-2.1088829822838306427001953125">
        <ele>314.79998779296875</ele>
        <time>2019-05-21T13:44:16.000Z</time>
      </trkpt>
      <trkpt lat="43.08764062821865081787109375" lon="-2.10867770947515964508056640625">
        <ele>317</ele>
        <time>2019-05-21T13:44:21.000Z</time>
      </trkpt>
      <trkpt lat="43.087450526654720306396484375" lon="-2.1085289306938648223876953125">
        <ele>317.399993896484375</ele>
        <time>2019-05-21T13:44:26.000Z</time>
      </trkpt>
      <trkpt lat="43.08703939430415630340576171875" lon="-2.10834092460572719573974609375">
        <ele>318.79998779296875</ele>
        <time>2019-05-21T13:44:36.000Z</time>
      </trkpt>
      <trkpt lat="43.0866368114948272705078125" lon="-2.10808745585381984710693359375">
        <ele>323.600006103515625</ele>
        <time>2019-05-21T13:44:46.000Z</time>
      </trkpt>
      <trkpt lat="43.08623154647648334503173828125" lon="-2.107904143631458282470703125">
        <ele>328</ele>
        <time>2019-05-21T13:44:56.000Z</time>
      </trkpt>
      <trkpt lat="43.08610439300537109375" lon="-2.10785561241209506988525390625">
        <ele>329</ele>
        <time>2019-05-21T13:44:59.000Z</time>
      </trkpt>
      <trkpt lat="43.08601613156497478485107421875" lon="-2.10785754024982452392578125">
        <ele>329</ele>
        <time>2019-05-21T13:45:01.000Z</time>
      </trkpt>
      <trkpt lat="43.08593113906681537628173828125" lon="-2.1078902296721935272216796875">
        <ele>328</ele>
        <time>2019-05-21T13:45:03.000Z</time>
      </trkpt>
      <trkpt lat="43.0858085118234157562255859375" lon="-2.10795686580240726470947265625">
        <ele>326.399993896484375</ele>
        <time>2019-05-21T13:45:06.000Z</time>
      </trkpt>
      <trkpt lat="43.085723854601383209228515625" lon="-2.10798921994864940643310546875">
        <ele>325.600006103515625</ele>
        <time>2019-05-21T13:45:08.000Z</time>
      </trkpt>
      <trkpt lat="43.0856363475322723388671875" lon="-2.107991985976696014404296875">
        <ele>325.600006103515625</ele>
        <time>2019-05-21T13:45:10.000Z</time>
      </trkpt>
      <trkpt lat="43.08555697090923786163330078125" lon="-2.107963822782039642333984375">
        <ele>326.20001220703125</ele>
        <time>2019-05-21T13:45:12.000Z</time>
      </trkpt>
      <trkpt lat="43.08548547327518463134765625" lon="-2.10789978504180908203125">
        <ele>327.79998779296875</ele>
        <time>2019-05-21T13:45:14.000Z</time>
      </trkpt>
      <trkpt lat="43.0854293145239353179931640625" lon="-2.10781269706785678863525390625">
        <ele>330</ele>
        <time>2019-05-21T13:45:16.000Z</time>
      </trkpt>
      <trkpt lat="43.08533568866550922393798828125" lon="-2.10761052556335926055908203125">
        <ele>335.20001220703125</ele>
        <time>2019-05-21T13:45:20.000Z</time>
      </trkpt>
      <trkpt lat="43.08527357876300811767578125" lon="-2.1075336635112762451171875">
        <ele>337.20001220703125</ele>
        <time>2019-05-21T13:45:22.000Z</time>
      </trkpt>
      <trkpt lat="43.08519990183413028717041015625" lon="-2.10748127661645412445068359375">
        <ele>338.600006103515625</ele>
        <time>2019-05-21T13:45:24.000Z</time>
      </trkpt>
      <trkpt lat="43.085118345916271209716796875" lon="-2.107451856136322021484375">
        <ele>339.600006103515625</ele>
        <time>2019-05-21T13:45:26.000Z</time>
      </trkpt>
      <trkpt lat="43.0850296653807163238525390625" lon="-2.10745344869792461395263671875">
        <ele>340</ele>
        <time>2019-05-21T13:45:28.000Z</time>
      </trkpt>
      <trkpt lat="43.0847004242241382598876953125" lon="-2.10757180117070674896240234375">
        <ele>339.20001220703125</ele>
        <time>2019-05-21T13:45:36.000Z</time>
      </trkpt>
      <trkpt lat="43.08427713811397552490234375" lon="-2.107609771192073822021484375">
        <ele>341.600006103515625</ele>
        <time>2019-05-21T13:45:46.000Z</time>
      </trkpt>
      <trkpt lat="43.0838548578321933746337890625" lon="-2.1075797639787197113037109375">
        <ele>342.399993896484375</ele>
        <time>2019-05-21T13:45:56.000Z</time>
      </trkpt>
      <trkpt lat="43.083456717431545257568359375" lon="-2.10741355083882808685302734375">
        <ele>345.600006103515625</ele>
        <time>2019-05-21T13:46:06.000Z</time>
      </trkpt>
      <trkpt lat="43.08306586928665637969970703125" lon="-2.107180617749691009521484375">
        <ele>352.600006103515625</ele>
        <time>2019-05-21T13:46:16.000Z</time>
      </trkpt>
      <trkpt lat="43.08269287459552288055419921875" lon="-2.1070654504001140594482421875">
        <ele>354.600006103515625</ele>
        <time>2019-05-21T13:46:25.000Z</time>
      </trkpt>
      <trkpt lat="43.08265398256480693817138671875" lon="-2.107047848403453826904296875">
        <ele>354.600006103515625</ele>
        <time>2019-05-21T13:46:26.000Z</time>
      </trkpt>
      <trkpt lat="43.0824597738683223724365234375" lon="-2.10694299079477787017822265625">
        <ele>358.600006103515625</ele>
        <time>2019-05-21T13:46:31.000Z</time>
      </trkpt>
      <trkpt lat="43.08235106058418750762939453125" lon="-2.106890268623828887939453125">
        <ele>361.20001220703125</ele>
        <time>2019-05-21T13:46:34.000Z</time>
      </trkpt>
      <trkpt lat="43.0822767131030559539794921875" lon="-2.10685481317341327667236328125">
        <ele>361.79998779296875</ele>
        <time>2019-05-21T13:46:36.000Z</time>
      </trkpt>
      <trkpt lat="43.08197990991175174713134765625" lon="-2.106764204800128936767578125">
        <ele>360.20001220703125</ele>
        <time>2019-05-21T13:46:44.000Z</time>
      </trkpt>
      <trkpt lat="43.0819025449454784393310546875" lon="-2.10681592114269733428955078125">
        <ele>360</ele>
        <time>2019-05-21T13:46:46.000Z</time>
      </trkpt>
      <trkpt lat="43.0818385072052478790283203125" lon="-2.10689370520412921905517578125">
        <ele>359.79998779296875</ele>
        <time>2019-05-21T13:46:48.000Z</time>
      </trkpt>
      <trkpt lat="43.08171487413346767425537109375" lon="-2.10713334381580352783203125">
        <ele>360.399993896484375</ele>
        <time>2019-05-21T13:46:53.000Z</time>
      </trkpt>
      <trkpt lat="43.08168101124465465545654296875" lon="-2.107240967452526092529296875">
        <ele>361</ele>
        <time>2019-05-21T13:46:55.000Z</time>
      </trkpt>
      <trkpt lat="43.0816685222089290618896484375" lon="-2.10729570128023624420166015625">
        <ele>361.20001220703125</ele>
        <time>2019-05-21T13:46:56.000Z</time>
      </trkpt>
      <trkpt lat="43.08160171844065189361572265625" lon="-2.1078463084995746612548828125">
        <ele>363</ele>
        <time>2019-05-21T13:47:06.000Z</time>
      </trkpt>
      <trkpt lat="43.08147431351244449615478515625" lon="-2.108380235731601715087890625">
        <ele>364.600006103515625</ele>
        <time>2019-05-21T13:47:16.000Z</time>
      </trkpt>
      <trkpt lat="43.08145134709775447845458984375" lon="-2.1084283478558063507080078125">
        <ele>365.20001220703125</ele>
        <time>2019-05-21T13:47:17.000Z</time>
      </trkpt>
      <trkpt lat="43.08118262328207492828369140625" lon="-2.108806706964969635009765625">
        <ele>370.600006103515625</ele>
        <time>2019-05-21T13:47:26.000Z</time>
      </trkpt>
      <trkpt lat="43.08097039349377155303955078125" lon="-2.1090895123779773712158203125">
        <ele>374.79998779296875</ele>
        <time>2019-05-21T13:47:33.000Z</time>
      </trkpt>
      <trkpt lat="43.0808826349675655364990234375" lon="-2.109212391078472137451171875">
        <ele>375</ele>
        <time>2019-05-21T13:47:36.000Z</time>
      </trkpt>
      <trkpt lat="43.080577366054058074951171875" lon="-2.10959468968212604522705078125">
        <ele>375.20001220703125</ele>
        <time>2019-05-21T13:47:46.000Z</time>
      </trkpt>
      <trkpt lat="43.08024854399263858795166015625" lon="-2.10998587310314178466796875">
        <ele>376</ele>
        <time>2019-05-21T13:47:56.000Z</time>
      </trkpt>
      <trkpt lat="43.0801109969615936279296875" lon="-2.1101385913789272308349609375">
        <ele>377.399993896484375</ele>
        <time>2019-05-21T13:48:00.000Z</time>
      </trkpt>
      <trkpt lat="43.079916872084140777587890625" lon="-2.1103997714817523956298828125">
        <ele>376</ele>
        <time>2019-05-21T13:48:06.000Z</time>
      </trkpt>
      <trkpt lat="43.0798375792801380157470703125" lon="-2.1105550043284893035888671875">
        <ele>374.79998779296875</ele>
        <time>2019-05-21T13:48:09.000Z</time>
      </trkpt>
      <trkpt lat="43.07981385849416255950927734375" lon="-2.11060839705169200897216796875">
        <ele>374.399993896484375</ele>
        <time>2019-05-21T13:48:10.000Z</time>
      </trkpt>
      <trkpt lat="43.0797913111746311187744140625" lon="-2.11066287942230701446533203125">
        <ele>374</ele>
        <time>2019-05-21T13:48:11.000Z</time>
      </trkpt>
      <trkpt lat="43.07977077551186084747314453125" lon="-2.11072205565869808197021484375">
        <ele>373.399993896484375</ele>
        <time>2019-05-21T13:48:12.000Z</time>
      </trkpt>
      <trkpt lat="43.079701960086822509765625" lon="-2.1109561622142791748046875">
        <ele>373.399993896484375</ele>
        <time>2019-05-21T13:48:16.000Z</time>
      </trkpt>
      <trkpt lat="43.0796548537909984588623046875" lon="-2.111199237406253814697265625">
        <ele>373.600006103515625</ele>
        <time>2019-05-21T13:48:20.000Z</time>
      </trkpt>
      <trkpt lat="43.07964940555393695831298828125" lon="-2.11144742555916309356689453125">
        <ele>374.79998779296875</ele>
        <time>2019-05-21T13:48:24.000Z</time>
      </trkpt>
      <trkpt lat="43.079653345048427581787109375" lon="-2.11150626651942729949951171875">
        <ele>375</ele>
        <time>2019-05-21T13:48:25.000Z</time>
      </trkpt>
      <trkpt lat="43.079662062227725982666015625" lon="-2.11156644858419895172119140625">
        <ele>375.399993896484375</ele>
        <time>2019-05-21T13:48:26.000Z</time>
      </trkpt>
      <trkpt lat="43.079673461616039276123046875" lon="-2.1116255410015583038330078125">
        <ele>375.600006103515625</ele>
        <time>2019-05-21T13:48:27.000Z</time>
      </trkpt>
      <trkpt lat="43.0797188915312290191650390625" lon="-2.11178840138018131256103515625">
        <ele>376.600006103515625</ele>
        <time>2019-05-21T13:48:30.000Z</time>
      </trkpt>
      <trkpt lat="43.07980262674391269683837890625" lon="-2.11210347712039947509765625">
        <ele>378.79998779296875</ele>
        <time>2019-05-21T13:48:36.000Z</time>
      </trkpt>
      <trkpt lat="43.0798402614891529083251953125" lon="-2.11264394223690032958984375">
        <ele>383.20001220703125</ele>
        <time>2019-05-21T13:48:46.000Z</time>
      </trkpt>
      <trkpt lat="43.07969584129750728607177734375" lon="-2.11295901797711849212646484375">
        <ele>385</ele>
        <time>2019-05-21T13:48:53.000Z</time>
      </trkpt>
      <trkpt lat="43.07966918684542179107666015625" lon="-2.11299665272235870361328125">
        <ele>385.20001220703125</ele>
        <time>2019-05-21T13:48:54.000Z</time>
      </trkpt>
      <trkpt lat="43.0796414427459239959716796875" lon="-2.11303495801985263824462890625">
        <ele>385.399993896484375</ele>
        <time>2019-05-21T13:48:55.000Z</time>
      </trkpt>
      <trkpt lat="43.0796132795512676239013671875" lon="-2.11307485587894916534423828125">
        <ele>385.600006103515625</ele>
        <time>2019-05-21T13:48:56.000Z</time>
      </trkpt>
      <trkpt lat="43.079560138285160064697265625" lon="-2.1131580881774425506591796875">
        <ele>386.20001220703125</ele>
        <time>2019-05-21T13:48:58.000Z</time>
      </trkpt>
      <trkpt lat="43.07953507639467716217041015625" lon="-2.1131986565887928009033203125">
        <ele>386.399993896484375</ele>
        <time>2019-05-21T13:48:59.000Z</time>
      </trkpt>
      <trkpt lat="43.079511187970638275146484375" lon="-2.11324249394237995147705078125">
        <ele>386.600006103515625</ele>
        <time>2019-05-21T13:49:00.000Z</time>
      </trkpt>
      <trkpt lat="43.07948377914726734161376953125" lon="-2.1133471839129924774169921875">
        <ele>386.79998779296875</ele>
        <time>2019-05-21T13:49:02.000Z</time>
      </trkpt>
      <trkpt lat="43.07946466840803623199462890625" lon="-2.11355949752032756805419921875">
        <ele>386.79998779296875</ele>
        <time>2019-05-21T13:49:06.000Z</time>
      </trkpt>
      <trkpt lat="43.0794386006891727447509765625" lon="-2.11365689523518085479736328125">
        <ele>386.79998779296875</ele>
        <time>2019-05-21T13:49:08.000Z</time>
      </trkpt>
      <trkpt lat="43.07923802174627780914306640625" lon="-2.1140111982822418212890625">
        <ele>386.20001220703125</ele>
        <time>2019-05-21T13:49:16.000Z</time>
      </trkpt>
      <trkpt lat="43.07910793460905551910400390625" lon="-2.11419300176203250885009765625">
        <ele>382.399993896484375</ele>
        <time>2019-05-21T13:49:20.000Z</time>
      </trkpt>
      <trkpt lat="43.07904683053493499755859375" lon="-2.11429593153297901153564453125">
        <ele>380.600006103515625</ele>
        <time>2019-05-21T13:49:22.000Z</time>
      </trkpt>
      <trkpt lat="43.07898354716598987579345703125" lon="-2.11452609859406948089599609375">
        <ele>378</ele>
        <time>2019-05-21T13:49:25.000Z</time>
      </trkpt>
      <trkpt lat="43.07897130958735942840576171875" lon="-2.1146212331950664520263671875">
        <ele>377.399993896484375</ele>
        <time>2019-05-21T13:49:26.000Z</time>
      </trkpt>
      <trkpt lat="43.0788315832614898681640625" lon="-2.11536210961639881134033203125">
        <ele>369.600006103515625</ele>
        <time>2019-05-21T13:49:32.000Z</time>
      </trkpt>
      <trkpt lat="43.078733347356319427490234375" lon="-2.11582579649984836578369140625">
        <ele>365.20001220703125</ele>
        <time>2019-05-21T13:49:35.000Z</time>
      </trkpt>
      <trkpt lat="43.078689090907573699951171875" lon="-2.115984968841075897216796875">
        <ele>364.20001220703125</ele>
        <time>2019-05-21T13:49:36.000Z</time>
      </trkpt>
      <trkpt lat="43.07848867960274219512939453125" lon="-2.11673607118427753448486328125">
        <ele>357.79998779296875</ele>
        <time>2019-05-21T13:49:41.000Z</time>
      </trkpt>
      <trkpt lat="43.078449033200740814208984375" lon="-2.116992473602294921875">
        <ele>354.600006103515625</ele>
        <time>2019-05-21T13:49:43.000Z</time>
      </trkpt>
      <trkpt lat="43.0784743465483188629150390625" lon="-2.1172554977238178253173828125">
        <ele>352.600006103515625</ele>
        <time>2019-05-21T13:49:45.000Z</time>
      </trkpt>
      <trkpt lat="43.078509382903575897216796875" lon="-2.117381058633327484130859375">
        <ele>351.79998779296875</ele>
        <time>2019-05-21T13:49:46.000Z</time>
      </trkpt>
      <trkpt lat="43.07856294326484203338623046875" lon="-2.11748457513749599456787109375">
        <ele>350.399993896484375</ele>
        <time>2019-05-21T13:49:47.000Z</time>
      </trkpt>
      <trkpt lat="43.0786939524114131927490234375" lon="-2.11762136779725551605224609375">
        <ele>349</ele>
        <time>2019-05-21T13:49:49.000Z</time>
      </trkpt>
      <trkpt lat="43.07876444421708583831787109375" lon="-2.11767870001494884490966796875">
        <ele>348.600006103515625</ele>
        <time>2019-05-21T13:49:50.000Z</time>
      </trkpt>
      <trkpt lat="43.07884139008820056915283203125" lon="-2.1177319251000881195068359375">
        <ele>348.399993896484375</ele>
        <time>2019-05-21T13:49:51.000Z</time>
      </trkpt>
      <trkpt lat="43.07892185635864734649658203125" lon="-2.11778515018522739410400390625">
        <ele>348.20001220703125</ele>
        <time>2019-05-21T13:49:52.000Z</time>
      </trkpt>
      <trkpt lat="43.07920164428651332855224609375" lon="-2.11790098808705806732177734375">
        <ele>345</ele>
        <time>2019-05-21T13:49:55.000Z</time>
      </trkpt>
      <trkpt lat="43.07929485104978084564208984375" lon="-2.11791850626468658447265625">
        <ele>345</ele>
        <time>2019-05-21T13:49:56.000Z</time>
      </trkpt>
      <trkpt lat="43.07938210666179656982421875" lon="-2.11794356815516948699951171875">
        <ele>345.399993896484375</ele>
        <time>2019-05-21T13:49:57.000Z</time>
      </trkpt>
      <trkpt lat="43.07961269281804561614990234375" lon="-2.11807281710207462310791015625">
        <ele>346.399993896484375</ele>
        <time>2019-05-21T13:50:00.000Z</time>
      </trkpt>
      <trkpt lat="43.07974479161202907562255859375" lon="-2.11824112571775913238525390625">
        <ele>346.20001220703125</ele>
        <time>2019-05-21T13:50:02.000Z</time>
      </trkpt>
      <trkpt lat="43.07985425926744937896728515625" lon="-2.1186100132763385772705078125">
        <ele>337</ele>
        <time>2019-05-21T13:50:05.000Z</time>
      </trkpt>
      <trkpt lat="43.07987219654023647308349609375" lon="-2.1187451295554637908935546875">
        <ele>334.399993896484375</ele>
        <time>2019-05-21T13:50:06.000Z</time>
      </trkpt>
      <trkpt lat="43.08000680990517139434814453125" lon="-2.11955809034407138824462890625">
        <ele>320.20001220703125</ele>
        <time>2019-05-21T13:50:12.000Z</time>
      </trkpt>
      <trkpt lat="43.08005073107779026031494140625" lon="-2.119881212711334228515625">
        <ele>314.399993896484375</ele>
        <time>2019-05-21T13:50:15.000Z</time>
      </trkpt>
      <trkpt lat="43.0800840072333812713623046875" lon="-2.1199796162545680999755859375">
        <ele>313.600006103515625</ele>
        <time>2019-05-21T13:50:16.000Z</time>
      </trkpt>
      <trkpt lat="43.08017780072987079620361328125" lon="-2.12017885409295558929443359375">
        <ele>311</ele>
        <time>2019-05-21T13:50:18.000Z</time>
      </trkpt>
      <trkpt lat="43.08031995780766010284423828125" lon="-2.120379097759723663330078125">
        <ele>309.399993896484375</ele>
        <time>2019-05-21T13:50:20.000Z</time>
      </trkpt>
      <trkpt lat="43.08083427138626575469970703125" lon="-2.120831720530986785888671875">
        <ele>304.600006103515625</ele>
        <time>2019-05-21T13:50:26.000Z</time>
      </trkpt>
      <trkpt lat="43.08119134046137332916259765625" lon="-2.12107152678072452545166015625">
        <ele>298.399993896484375</ele>
        <time>2019-05-21T13:50:30.000Z</time>
      </trkpt>
      <trkpt lat="43.08128672651946544647216796875" lon="-2.121116705238819122314453125">
        <ele>297.20001220703125</ele>
        <time>2019-05-21T13:50:31.000Z</time>
      </trkpt>
      <trkpt lat="43.08169148862361907958984375" lon="-2.1212402544915676116943359375">
        <ele>295.399993896484375</ele>
        <time>2019-05-21T13:50:35.000Z</time>
      </trkpt>
      <trkpt lat="43.081799782812595367431640625" lon="-2.12124578654766082763671875">
        <ele>295</ele>
        <time>2019-05-21T13:50:36.000Z</time>
      </trkpt>
      <trkpt lat="43.08202684856951236724853515625" lon="-2.121219970285892486572265625">
        <ele>292.399993896484375</ele>
        <time>2019-05-21T13:50:38.000Z</time>
      </trkpt>
      <trkpt lat="43.0822435207664966583251953125" lon="-2.1211322955787181854248046875">
        <ele>291.79998779296875</ele>
        <time>2019-05-21T13:50:40.000Z</time>
      </trkpt>
      <trkpt lat="43.08267946355044841766357421875" lon="-2.12072166614234447479248046875">
        <ele>294.79998779296875</ele>
        <time>2019-05-21T13:50:46.000Z</time>
      </trkpt>
      <trkpt lat="43.08276236057281494140625" lon="-2.12060264311730861663818359375">
        <ele>291.79998779296875</ele>
        <time>2019-05-21T13:50:48.000Z</time>
      </trkpt>
      <trkpt lat="43.08283067308366298675537109375" lon="-2.1205707080662250518798828125">
        <ele>289.20001220703125</ele>
        <time>2019-05-21T13:50:50.000Z</time>
      </trkpt>
      <trkpt lat="43.082863949239253997802734375" lon="-2.1207138709723949432373046875">
        <ele>287</ele>
        <time>2019-05-21T13:50:53.000Z</time>
      </trkpt>
      <trkpt lat="43.0827766098082065582275390625" lon="-2.12097890675067901611328125">
        <ele>284.399993896484375</ele>
        <time>2019-05-21T13:50:56.000Z</time>
      </trkpt>
      <trkpt lat="43.08269991539418697357177734375" lon="-2.12117764167487621307373046875">
        <ele>282</ele>
        <time>2019-05-21T13:50:58.000Z</time>
      </trkpt>
      <trkpt lat="43.082463629543781280517578125" lon="-2.1215698309242725372314453125">
        <ele>276.600006103515625</ele>
        <time>2019-05-21T13:51:02.000Z</time>
      </trkpt>
      <trkpt lat="43.082171939313411712646484375" lon="-2.1218781173229217529296875">
        <ele>270.20001220703125</ele>
        <time>2019-05-21T13:51:06.000Z</time>
      </trkpt>
      <trkpt lat="43.08199885301291942596435546875" lon="-2.12200485169887542724609375">
        <ele>268.20001220703125</ele>
        <time>2019-05-21T13:51:08.000Z</time>
      </trkpt>
      <trkpt lat="43.081813193857669830322265625" lon="-2.12211658246815204620361328125">
        <ele>266.79998779296875</ele>
        <time>2019-05-21T13:51:10.000Z</time>
      </trkpt>
      <trkpt lat="43.081482946872711181640625" lon="-2.122285477817058563232421875">
        <ele>260.20001220703125</ele>
        <time>2019-05-21T13:51:14.000Z</time>
      </trkpt>
      <trkpt lat="43.08134037069976329803466796875" lon="-2.12231724523007869720458984375">
        <ele>258.399993896484375</ele>
        <time>2019-05-21T13:51:16.000Z</time>
      </trkpt>
      <trkpt lat="43.08123811148107051849365234375" lon="-2.1223423071205615997314453125">
        <ele>256.79998779296875</ele>
        <time>2019-05-21T13:51:18.000Z</time>
      </trkpt>
      <trkpt lat="43.08119569905102252960205078125" lon="-2.1224365197122097015380859375">
        <ele>253.600006103515625</ele>
        <time>2019-05-21T13:51:21.000Z</time>
      </trkpt>
      <trkpt lat="43.08124565519392490386962890625" lon="-2.1224831230938434600830078125">
        <ele>252</ele>
        <time>2019-05-21T13:51:23.000Z</time>
      </trkpt>
      <trkpt lat="43.08135260827839374542236328125" lon="-2.12246811948716640472412109375">
        <ele>253.1999969482421875</ele>
        <time>2019-05-21T13:51:25.000Z</time>
      </trkpt>
      <trkpt lat="43.08142553083598613739013671875" lon="-2.12246895767748355865478515625">
        <ele>253.600006103515625</ele>
        <time>2019-05-21T13:51:26.000Z</time>
      </trkpt>
      <trkpt lat="43.081703893840312957763671875" lon="-2.12246879003942012786865234375">
        <ele>255.1999969482421875</ele>
        <time>2019-05-21T13:51:30.000Z</time>
      </trkpt>
      <trkpt lat="43.08216514997184276580810546875" lon="-2.12248572148382663726806640625">
        <ele>251.8000030517578125</ele>
        <time>2019-05-21T13:51:36.000Z</time>
      </trkpt>
      <trkpt lat="43.082651384174823760986328125" lon="-2.122471220791339874267578125">
        <ele>248.399993896484375</ele>
        <time>2019-05-21T13:51:41.000Z</time>
      </trkpt>
      <trkpt lat="43.0829040147364139556884765625" lon="-2.1224368549883365631103515625">
        <ele>243.600006103515625</ele>
        <time>2019-05-21T13:51:44.000Z</time>
      </trkpt>
      <trkpt lat="43.0830659531056880950927734375" lon="-2.1223895810544490814208984375">
        <ele>240.600006103515625</ele>
        <time>2019-05-21T13:51:46.000Z</time>
      </trkpt>
      <trkpt lat="43.08342193253338336944580078125" lon="-2.12218858301639556884765625">
        <ele>236</ele>
        <time>2019-05-21T13:51:52.000Z</time>
      </trkpt>
      <trkpt lat="43.08346266858279705047607421875" lon="-2.12226594798266887664794921875">
        <ele>233</ele>
        <time>2019-05-21T13:51:56.000Z</time>
      </trkpt>
      <trkpt lat="43.08339963667094707489013671875" lon="-2.122384719550609588623046875">
        <ele>232.8000030517578125</ele>
        <time>2019-05-21T13:51:58.000Z</time>
      </trkpt>
      <trkpt lat="43.08314348571002483367919921875" lon="-2.12293960154056549072265625">
        <ele>220.399993896484375</ele>
        <time>2019-05-21T13:52:06.000Z</time>
      </trkpt>
      <trkpt lat="43.08289722539484500885009765625" lon="-2.12329306639730930328369140625">
        <ele>213</ele>
        <time>2019-05-21T13:52:11.000Z</time>
      </trkpt>
      <trkpt lat="43.08275506831705570220947265625" lon="-2.12339230813086032867431640625">
        <ele>210.1999969482421875</ele>
        <time>2019-05-21T13:52:13.000Z</time>
      </trkpt>
      <trkpt lat="43.0825995840132236480712890625" lon="-2.12348551489412784576416015625">
        <ele>207.8000030517578125</ele>
        <time>2019-05-21T13:52:15.000Z</time>
      </trkpt>
      <trkpt lat="43.08252624236047267913818359375" lon="-2.12353027425706386566162109375">
        <ele>206</ele>
        <time>2019-05-21T13:52:16.000Z</time>
      </trkpt>
      <trkpt lat="43.0823903717100620269775390625" lon="-2.12362088263034820556640625">
        <ele>201.8000030517578125</ele>
        <time>2019-05-21T13:52:18.000Z</time>
      </trkpt>
      <trkpt lat="43.0822619609534740447998046875" lon="-2.1236917935311794281005859375">
        <ele>198.600006103515625</ele>
        <time>2019-05-21T13:52:20.000Z</time>
      </trkpt>
      <trkpt lat="43.082206808030605316162109375" lon="-2.123705036938190460205078125">
        <ele>198.1999969482421875</ele>
        <time>2019-05-21T13:52:21.000Z</time>
      </trkpt>
      <trkpt lat="43.082135058939456939697265625" lon="-2.12369573302567005157470703125">
        <ele>198.600006103515625</ele>
        <time>2019-05-21T13:52:23.000Z</time>
      </trkpt>
      <trkpt lat="43.0820966698229312896728515625" lon="-2.123687267303466796875">
        <ele>199</ele>
        <time>2019-05-21T13:52:25.000Z</time>
      </trkpt>
      <trkpt lat="43.08208116330206394195556640625" lon="-2.12367720901966094970703125">
        <ele>199.600006103515625</ele>
        <time>2019-05-21T13:52:26.000Z</time>
      </trkpt>
      <trkpt lat="43.08205090463161468505859375" lon="-2.123654074966907501220703125">
        <ele>200.600006103515625</ele>
        <time>2019-05-21T13:52:28.000Z</time>
      </trkpt>
      <trkpt lat="43.0820245854556560516357421875" lon="-2.1236331202089786529541015625">
        <ele>201.600006103515625</ele>
        <time>2019-05-21T13:52:30.000Z</time>
      </trkpt>
      <trkpt lat="43.08201477862894535064697265625" lon="-2.123616524040699005126953125">
        <ele>202.399993896484375</ele>
        <time>2019-05-21T13:52:31.000Z</time>
      </trkpt>
      <trkpt lat="43.08198125101625919342041015625" lon="-2.1236059628427028656005859375">
        <ele>203</ele>
        <time>2019-05-21T13:52:33.000Z</time>
      </trkpt>
      <trkpt lat="43.08192241005599498748779296875" lon="-2.1236408315598964691162109375">
        <ele>201.399993896484375</ele>
        <time>2019-05-21T13:52:36.000Z</time>
      </trkpt>
      <trkpt lat="43.08186943642795085906982421875" lon="-2.1236026100814342498779296875">
        <ele>203.399993896484375</ele>
        <time>2019-05-21T13:52:42.000Z</time>
      </trkpt>
      <trkpt lat="43.08194403536617755889892578125" lon="-2.12348635308444499969482421875">
        <ele>208.600006103515625</ele>
        <time>2019-05-21T13:52:46.000Z</time>
      </trkpt>
      <trkpt lat="43.08200639672577381134033203125" lon="-2.123460285365581512451171875">
        <ele>209.8000030517578125</ele>
        <time>2019-05-21T13:52:49.000Z</time>
      </trkpt>
      <trkpt lat="43.08216230012476444244384765625" lon="-2.1235814876854419708251953125">
        <ele>204</ele>
        <time>2019-05-21T13:52:55.000Z</time>
      </trkpt>
      <trkpt lat="43.08218090794980525970458984375" lon="-2.123574949800968170166015625">
        <ele>204.1999969482421875</ele>
        <time>2019-05-21T13:52:56.000Z</time>
      </trkpt>
      <trkpt lat="43.08219574391841888427734375" lon="-2.12356011383235454559326171875">
        <ele>205</ele>
        <time>2019-05-21T13:52:57.000Z</time>
      </trkpt>
      <trkpt lat="43.0822066403925418853759765625" lon="-2.1235249936580657958984375">
        <ele>206.600006103515625</ele>
        <time>2019-05-21T13:53:01.000Z</time>
      </trkpt>
      <trkpt lat="43.08225533924996852874755859375" lon="-2.1235482953488826751708984375">
        <ele>205.399993896484375</ele>
        <time>2019-05-21T13:53:06.000Z</time>
      </trkpt>
      <trkpt lat="43.08236229233443737030029296875" lon="-2.1235462836921215057373046875">
        <ele>205.399993896484375</ele>
        <time>2019-05-21T13:53:09.000Z</time>
      </trkpt>
      <trkpt lat="43.08254736475646495819091796875" lon="-2.12340421043336391448974609375">
        <ele>211.8000030517578125</ele>
        <time>2019-05-21T13:53:16.000Z</time>
      </trkpt>
      <trkpt lat="43.0827192775905132293701171875" lon="-2.12343790568411350250244140625">
        <ele>208.600006103515625</ele>
        <time>2019-05-21T13:53:26.000Z</time>
      </trkpt>
      <trkpt lat="43.08305061422288417816162109375" lon="-2.12357671000063419342041015625">
        <ele>197.600006103515625</ele>
        <time>2019-05-21T13:53:36.000Z</time>
      </trkpt>
      <trkpt lat="43.08310409076511859893798828125" lon="-2.1235757879912853240966796875">
        <ele>197</ele>
        <time>2019-05-21T13:53:37.000Z</time>
      </trkpt>
      <trkpt lat="43.083362169563770294189453125" lon="-2.12357687763869762420654296875">
        <ele>193.8000030517578125</ele>
        <time>2019-05-21T13:53:44.000Z</time>
      </trkpt>
      <trkpt lat="43.08336309157311916351318359375" lon="-2.12360202334821224212646484375">
        <ele>192.600006103515625</ele>
        <time>2019-05-21T13:53:46.000Z</time>
      </trkpt>
      <trkpt lat="43.08333291672170162200927734375" lon="-2.1236269176006317138671875">
        <ele>192</ele>
        <time>2019-05-21T13:53:48.000Z</time>
      </trkpt>
      <trkpt lat="43.0832014046609401702880859375" lon="-2.12377720512449741363525390625">
        <ele>186.600006103515625</ele>
        <time>2019-05-21T13:53:53.000Z</time>
      </trkpt>
      <trkpt lat="43.083086907863616943359375" lon="-2.123893797397613525390625">
        <ele>182.600006103515625</ele>
        <time>2019-05-21T13:53:56.000Z</time>
      </trkpt>
      <trkpt lat="43.08305463753640651702880859375" lon="-2.1239355392754077911376953125">
        <ele>181.1999969482421875</ele>
        <time>2019-05-21T13:53:57.000Z</time>
      </trkpt>
      <trkpt lat="43.0830253846943378448486328125" lon="-2.12398122064769268035888671875">
        <ele>179.399993896484375</ele>
        <time>2019-05-21T13:53:58.000Z</time>
      </trkpt>
      <trkpt lat="43.08286118321120738983154296875" lon="-2.1242097951471805572509765625">
        <ele>171.399993896484375</ele>
        <time>2019-05-21T13:54:05.000Z</time>
      </trkpt>
      <trkpt lat="43.08283955790102481842041015625" lon="-2.124216668307781219482421875">
        <ele>171.399993896484375</ele>
        <time>2019-05-21T13:54:06.000Z</time>
      </trkpt>
      <trkpt lat="43.0827933736145496368408203125" lon="-2.12423552758991718292236328125">
        <ele>171.1999969482421875</ele>
        <time>2019-05-21T13:54:08.000Z</time>
      </trkpt>
      <trkpt lat="43.08270938694477081298828125" lon="-2.12425832636654376983642578125">
        <ele>171.399993896484375</ele>
        <time>2019-05-21T13:54:11.000Z</time>
      </trkpt>
      <trkpt lat="43.0826243944466114044189453125" lon="-2.12424776516854763031005859375">
        <ele>172.8000030517578125</ele>
        <time>2019-05-21T13:54:13.000Z</time>
      </trkpt>
      <trkpt lat="43.0824547447264194488525390625" lon="-2.12420962750911712646484375">
        <ele>174.399993896484375</ele>
        <time>2019-05-21T13:54:16.000Z</time>
      </trkpt>
      <trkpt lat="43.0821935646235942840576171875" lon="-2.12419210933148860931396484375">
        <ele>175.399993896484375</ele>
        <time>2019-05-21T13:54:21.000Z</time>
      </trkpt>
      <trkpt lat="43.0819555185735225677490234375" lon="-2.124134860932826995849609375">
        <ele>178.399993896484375</ele>
        <time>2019-05-21T13:54:26.000Z</time>
      </trkpt>
      <trkpt lat="43.081909753382205963134765625" lon="-2.124142237007617950439453125">
        <ele>178</ele>
        <time>2019-05-21T13:54:27.000Z</time>
      </trkpt>
      <trkpt lat="43.08183138258755207061767578125" lon="-2.12419621646404266357421875">
        <ele>175.600006103515625</ele>
        <time>2019-05-21T13:54:29.000Z</time>
      </trkpt>
      <trkpt lat="43.081713616847991943359375" lon="-2.1242939494550228118896484375">
        <ele>171</ele>
        <time>2019-05-21T13:54:32.000Z</time>
      </trkpt>
      <trkpt lat="43.08161906898021697998046875" lon="-2.12432705797255039215087890625">
        <ele>169</ele>
        <time>2019-05-21T13:54:34.000Z</time>
      </trkpt>
      <trkpt lat="43.08151991106569766998291015625" lon="-2.12433862499892711639404296875">
        <ele>167.8000030517578125</ele>
        <time>2019-05-21T13:54:36.000Z</time>
      </trkpt>
      <trkpt lat="43.08122285641729831695556640625" lon="-2.12426972575485706329345703125">
        <ele>166.399993896484375</ele>
        <time>2019-05-21T13:54:42.000Z</time>
      </trkpt>
      <trkpt lat="43.08102286420762538909912109375" lon="-2.1241930313408374786376953125">
        <ele>166.8000030517578125</ele>
        <time>2019-05-21T13:54:46.000Z</time>
      </trkpt>
      <trkpt lat="43.08092379011213779449462890625" lon="-2.12415405549108982086181640625">
        <ele>167</ele>
        <time>2019-05-21T13:54:48.000Z</time>
      </trkpt>
      <trkpt lat="43.08087232522666454315185546875" lon="-2.1241316758096218109130859375">
        <ele>167.1999969482421875</ele>
        <time>2019-05-21T13:54:49.000Z</time>
      </trkpt>
      <trkpt lat="43.0807735025882720947265625" lon="-2.12407995946705341339111328125">
        <ele>168</ele>
        <time>2019-05-21T13:54:51.000Z</time>
      </trkpt>
      <trkpt lat="43.0807233788073062896728515625" lon="-2.12405162863433361053466796875">
        <ele>169</ele>
        <time>2019-05-21T13:54:52.000Z</time>
      </trkpt>
      <trkpt lat="43.08067518286406993865966796875" lon="-2.12402262724936008453369140625">
        <ele>170</ele>
        <time>2019-05-21T13:54:53.000Z</time>
      </trkpt>
      <trkpt lat="43.0806301720440387725830078125" lon="-2.12399161420762538909912109375">
        <ele>171.1999969482421875</ele>
        <time>2019-05-21T13:54:54.000Z</time>
      </trkpt>
      <trkpt lat="43.08058784343302249908447265625" lon="-2.12396244518458843231201171875">
        <ele>172.1999969482421875</ele>
        <time>2019-05-21T13:54:55.000Z</time>
      </trkpt>
      <trkpt lat="43.08054878376424312591552734375" lon="-2.123936377465724945068359375">
        <ele>173.1999969482421875</ele>
        <time>2019-05-21T13:54:56.000Z</time>
      </trkpt>
      <trkpt lat="43.08022624813020229339599609375" lon="-2.12367578409612178802490234375">
        <ele>180.1999969482421875</ele>
        <time>2019-05-21T13:55:06.000Z</time>
      </trkpt>
      <trkpt lat="43.0800984241068363189697265625" lon="-2.12360856123268604278564453125">
        <ele>180.1999969482421875</ele>
        <time>2019-05-21T13:55:09.000Z</time>
      </trkpt>
      <trkpt lat="43.08004863560199737548828125" lon="-2.123584337532520294189453125">
        <ele>180.399993896484375</ele>
        <time>2019-05-21T13:55:10.000Z</time>
      </trkpt>
      <trkpt lat="43.07999557815492153167724609375" lon="-2.1235714294016361236572265625">
        <ele>180.1999969482421875</ele>
        <time>2019-05-21T13:55:11.000Z</time>
      </trkpt>
      <trkpt lat="43.07993925176560878753662109375" lon="-2.12356514297425746917724609375">
        <ele>179.600006103515625</ele>
        <time>2019-05-21T13:55:12.000Z</time>
      </trkpt>
      <trkpt lat="43.0798831768333911895751953125" lon="-2.12356883101165294647216796875">
        <ele>178.399993896484375</ele>
        <time>2019-05-21T13:55:13.000Z</time>
      </trkpt>
      <trkpt lat="43.07971612550318241119384765625" lon="-2.12359732948243618011474609375">
        <ele>174</ele>
        <time>2019-05-21T13:55:16.000Z</time>
      </trkpt>
      <trkpt lat="43.07961948215961456298828125" lon="-2.1235472895205020904541015625">
        <ele>174</ele>
        <time>2019-05-21T13:55:18.000Z</time>
      </trkpt>
      <trkpt lat="43.07941789738833904266357421875" lon="-2.12339079938828945159912109375">
        <ele>176.1999969482421875</ele>
        <time>2019-05-21T13:55:23.000Z</time>
      </trkpt>
      <trkpt lat="43.07928144000470638275146484375" lon="-2.123329527676105499267578125">
        <ele>175.8000030517578125</ele>
        <time>2019-05-21T13:55:26.000Z</time>
      </trkpt>
      <trkpt lat="43.07895370759069919586181640625" lon="-2.123129032552242279052734375">
        <ele>181.600006103515625</ele>
        <time>2019-05-21T13:55:33.000Z</time>
      </trkpt>
      <trkpt lat="43.07880115695297718048095703125" lon="-2.123069353401660919189453125">
        <ele>182.8000030517578125</ele>
        <time>2019-05-21T13:55:36.000Z</time>
      </trkpt>
      <trkpt lat="43.07856000959873199462890625" lon="-2.12298762984573841094970703125">
        <ele>180.1999969482421875</ele>
        <time>2019-05-21T13:55:41.000Z</time>
      </trkpt>
      <trkpt lat="43.07833512313663959503173828125" lon="-2.122911773622035980224609375">
        <ele>175.600006103515625</ele>
        <time>2019-05-21T13:55:46.000Z</time>
      </trkpt>
      <trkpt lat="43.07816631160676479339599609375" lon="-2.1227992884814739227294921875">
        <ele>176</ele>
        <time>2019-05-21T13:55:51.000Z</time>
      </trkpt>
      <trkpt lat="43.078119792044162750244140625" lon="-2.1225696243345737457275390625">
        <ele>185</ele>
        <time>2019-05-21T13:55:54.000Z</time>
      </trkpt>
      <trkpt lat="43.0780995078384876251220703125" lon="-2.12242285721004009246826171875">
        <ele>191.399993896484375</ele>
        <time>2019-05-21T13:55:56.000Z</time>
      </trkpt>
      <trkpt lat="43.07805215008556842803955078125" lon="-2.12217517197132110595703125">
        <ele>199.1999969482421875</ele>
        <time>2019-05-21T13:56:00.000Z</time>
      </trkpt>
      <trkpt lat="43.07800621725618839263916015625" lon="-2.122062854468822479248046875">
        <ele>202.399993896484375</ele>
        <time>2019-05-21T13:56:02.000Z</time>
      </trkpt>
      <trkpt lat="43.0779177881777286529541015625" lon="-2.12201147340238094329833984375">
        <ele>202.1999969482421875</ele>
        <time>2019-05-21T13:56:04.000Z</time>
      </trkpt>
      <trkpt lat="43.07782215066254138946533203125" lon="-2.12202890776097774505615234375">
        <ele>199.600006103515625</ele>
        <time>2019-05-21T13:56:06.000Z</time>
      </trkpt>
      <trkpt lat="43.07774302549660205841064453125" lon="-2.12206461466848850250244140625">
        <ele>196.8000030517578125</ele>
        <time>2019-05-21T13:56:08.000Z</time>
      </trkpt>
      <trkpt lat="43.07770731858909130096435546875" lon="-2.12208942510187625885009765625">
        <ele>195.399993896484375</ele>
        <time>2019-05-21T13:56:09.000Z</time>
      </trkpt>
      <trkpt lat="43.077673204243183135986328125" lon="-2.12210987694561481475830078125">
        <ele>194</ele>
        <time>2019-05-21T13:56:10.000Z</time>
      </trkpt>
      <trkpt lat="43.0776351504027843475341796875" lon="-2.12214021943509578704833984375">
        <ele>192.399993896484375</ele>
        <time>2019-05-21T13:56:11.000Z</time>
      </trkpt>
      <trkpt lat="43.07743188925087451934814453125" lon="-2.12229050695896148681640625">
        <ele>181.1999969482421875</ele>
        <time>2019-05-21T13:56:16.000Z</time>
      </trkpt>
      <trkpt lat="43.07731186039745807647705078125" lon="-2.12243023328483104705810546875">
        <ele>173</ele>
        <time>2019-05-21T13:56:19.000Z</time>
      </trkpt>
      <trkpt lat="43.0771989561617374420166015625" lon="-2.122481279075145721435546875">
        <ele>167.600006103515625</ele>
        <time>2019-05-21T13:56:22.000Z</time>
      </trkpt>
      <trkpt lat="43.0771657638251781463623046875" lon="-2.122455127537250518798828125">
        <ele>167</ele>
        <time>2019-05-21T13:56:23.000Z</time>
      </trkpt>
      <trkpt lat="43.0770829506218433380126953125" lon="-2.12233199737966060638427734375">
        <ele>167.600006103515625</ele>
        <time>2019-05-21T13:56:26.000Z</time>
      </trkpt>
      <trkpt lat="43.07705126702785491943359375" lon="-2.1221974678337574005126953125">
        <ele>170.1999969482421875</ele>
        <time>2019-05-21T13:56:28.000Z</time>
      </trkpt>
      <trkpt lat="43.0769005604088306427001953125" lon="-2.121773846447467803955078125">
        <ele>180.8000030517578125</ele>
        <time>2019-05-21T13:56:35.000Z</time>
      </trkpt>
      <trkpt lat="43.07686829008162021636962890625" lon="-2.1217314340174198150634765625">
        <ele>181.399993896484375</ele>
        <time>2019-05-21T13:56:36.000Z</time>
      </trkpt>
      <trkpt lat="43.07682931423187255859375" lon="-2.1216989122331142425537109375">
        <ele>181.399993896484375</ele>
        <time>2019-05-21T13:56:37.000Z</time>
      </trkpt>
      <trkpt lat="43.07674549520015716552734375" lon="-2.12164677679538726806640625">
        <ele>181</ele>
        <time>2019-05-21T13:56:39.000Z</time>
      </trkpt>
      <trkpt lat="43.076518513262271881103515625" lon="-2.12159338407218456268310546875">
        <ele>175</ele>
        <time>2019-05-21T13:56:46.000Z</time>
      </trkpt>
      <trkpt lat="43.0765341036021709442138671875" lon="-2.121576368808746337890625">
        <ele>176</ele>
        <time>2019-05-21T13:56:56.000Z</time>
      </trkpt>
      <trkpt lat="43.0765341036021709442138671875" lon="-2.121576368808746337890625">
        <ele>176</ele>
        <time>2019-05-21T13:56:58.000Z</time>
      </trkpt>
      <trkpt lat="43.0765186809003353118896484375" lon="-2.12155482731759548187255859375">
        <ele>176.1999969482421875</ele>
        <time>2019-05-21T13:57:00.000Z</time>
      </trkpt>
      <trkpt lat="43.07642119936645030975341796875" lon="-2.12134276516735553741455078125">
        <ele>179</ele>
        <time>2019-05-21T13:57:05.000Z</time>
      </trkpt>
      <trkpt lat="43.07638113386929035186767578125" lon="-2.12130219675600528717041015625">
        <ele>178.8000030517578125</ele>
        <time>2019-05-21T13:57:06.000Z</time>
      </trkpt>
      <trkpt lat="43.0763319320976734161376953125" lon="-2.12127671577036380767822265625">
        <ele>178</ele>
        <time>2019-05-21T13:57:07.000Z</time>
      </trkpt>
      <trkpt lat="43.076139986515045166015625" lon="-2.12119205854833126068115234375">
        <ele>176.8000030517578125</ele>
        <time>2019-05-21T13:57:11.000Z</time>
      </trkpt>
      <trkpt lat="43.07600830681622028350830078125" lon="-2.121070437133312225341796875">
        <ele>179.600006103515625</ele>
        <time>2019-05-21T13:57:14.000Z</time>
      </trkpt>
      <trkpt lat="43.07591023854911327362060546875" lon="-2.121023833751678466796875">
        <ele>179.600006103515625</ele>
        <time>2019-05-21T13:57:16.000Z</time>
      </trkpt>
      <trkpt lat="43.0757348053157329559326171875" lon="-2.12094227783381938934326171875">
        <ele>179.8000030517578125</ele>
        <time>2019-05-21T13:57:20.000Z</time>
      </trkpt>
      <trkpt lat="43.0756647326052188873291015625" lon="-2.12085242383182048797607421875">
        <ele>182.1999969482421875</ele>
        <time>2019-05-21T13:57:22.000Z</time>
      </trkpt>
      <trkpt lat="43.075630366802215576171875" lon="-2.12079894728958606719970703125">
        <ele>183.600006103515625</ele>
        <time>2019-05-21T13:57:23.000Z</time>
      </trkpt>
      <trkpt lat="43.07559289969503879547119140625" lon="-2.12074094451963901519775390625">
        <ele>185.1999969482421875</ele>
        <time>2019-05-21T13:57:24.000Z</time>
      </trkpt>
      <trkpt lat="43.075545541942119598388671875" lon="-2.120686881244182586669921875">
        <ele>186.399993896484375</ele>
        <time>2019-05-21T13:57:25.000Z</time>
      </trkpt>
      <trkpt lat="43.07548619806766510009765625" lon="-2.1206484921276569366455078125">
        <ele>186.8000030517578125</ele>
        <time>2019-05-21T13:57:26.000Z</time>
      </trkpt>
      <trkpt lat="43.075419478118419647216796875" lon="-2.1206357516348361968994140625">
        <ele>185.8000030517578125</ele>
        <time>2019-05-21T13:57:27.000Z</time>
      </trkpt>
      <trkpt lat="43.07529483921825885772705078125" lon="-2.1206511743366718292236328125">
        <ele>182.8000030517578125</ele>
        <time>2019-05-21T13:57:29.000Z</time>
      </trkpt>
      <trkpt lat="43.075133152306079864501953125" lon="-2.120672129094600677490234375">
        <ele>178.8000030517578125</ele>
        <time>2019-05-21T13:57:32.000Z</time>
      </trkpt>
      <trkpt lat="43.07504120282828807830810546875" lon="-2.12061907164752483367919921875">
        <ele>178.8000030517578125</ele>
        <time>2019-05-21T13:57:34.000Z</time>
      </trkpt>
      <trkpt lat="43.0749526061117649078369140625" lon="-2.1205636672675609588623046875">
        <ele>178.600006103515625</ele>
        <time>2019-05-21T13:57:36.000Z</time>
      </trkpt>
      <trkpt lat="43.0744889192283153533935546875" lon="-2.1201593242585659027099609375">
        <ele>179</ele>
        <time>2019-05-21T13:57:46.000Z</time>
      </trkpt>
      <trkpt lat="43.0741566605865955352783203125" lon="-2.11991582997143268585205078125">
        <ele>175.8000030517578125</ele>
        <time>2019-05-21T13:57:52.000Z</time>
      </trkpt>
      <trkpt lat="43.0740492045879364013671875" lon="-2.11979848332703113555908203125">
        <ele>176.600006103515625</ele>
        <time>2019-05-21T13:57:54.000Z</time>
      </trkpt>
      <trkpt lat="43.0739900283515453338623046875" lon="-2.11974601261317729949951171875">
        <ele>176.600006103515625</ele>
        <time>2019-05-21T13:57:55.000Z</time>
      </trkpt>
      <trkpt lat="43.07392892427742481231689453125" lon="-2.11969823576509952545166015625">
        <ele>176.399993896484375</ele>
        <time>2019-05-21T13:57:56.000Z</time>
      </trkpt>
      <trkpt lat="43.0738163553178310394287109375" lon="-2.11960771121084690093994140625">
        <ele>176.399993896484375</ele>
        <time>2019-05-21T13:57:58.000Z</time>
      </trkpt>
      <trkpt lat="43.07371082715690135955810546875" lon="-2.1195258200168609619140625">
        <ele>174.399993896484375</ele>
        <time>2019-05-21T13:58:00.000Z</time>
      </trkpt>
      <trkpt lat="43.0736570991575717926025390625" lon="-2.11948701180517673492431640625">
        <ele>173</ele>
        <time>2019-05-21T13:58:01.000Z</time>
      </trkpt>
      <trkpt lat="43.07356179691851139068603515625" lon="-2.11940134875476360321044921875">
        <ele>170.600006103515625</ele>
        <time>2019-05-21T13:58:03.000Z</time>
      </trkpt>
      <trkpt lat="43.0735266767442226409912109375" lon="-2.11934921331703662872314453125">
        <ele>170.1999969482421875</ele>
        <time>2019-05-21T13:58:04.000Z</time>
      </trkpt>
      <trkpt lat="43.07350060902535915374755859375" lon="-2.119288779795169830322265625">
        <ele>170.399993896484375</ele>
        <time>2019-05-21T13:58:05.000Z</time>
      </trkpt>
      <trkpt lat="43.0734814144670963287353515625" lon="-2.11922599934041500091552734375">
        <ele>170.8000030517578125</ele>
        <time>2019-05-21T13:58:06.000Z</time>
      </trkpt>
      <trkpt lat="43.07347345165908336639404296875" lon="-2.1191538311541080474853515625">
        <ele>171.8000030517578125</ele>
        <time>2019-05-21T13:58:07.000Z</time>
      </trkpt>
      <trkpt lat="43.07346590794622898101806640625" lon="-2.11907478980720043182373046875">
        <ele>173</ele>
        <time>2019-05-21T13:58:08.000Z</time>
      </trkpt>
      <trkpt lat="43.0734609626233577728271484375" lon="-2.11899365298449993133544921875">
        <ele>173.600006103515625</ele>
        <time>2019-05-21T13:58:09.000Z</time>
      </trkpt>
      <trkpt lat="43.07345635257661342620849609375" lon="-2.11891226470470428466796875">
        <ele>174.1999969482421875</ele>
        <time>2019-05-21T13:58:10.000Z</time>
      </trkpt>
      <trkpt lat="43.07343699038028717041015625" lon="-2.11848537437617778778076171875">
        <ele>177.399993896484375</ele>
        <time>2019-05-21T13:58:15.000Z</time>
      </trkpt>
      <trkpt lat="43.07342902757227420806884765625" lon="-2.1184001304209232330322265625">
        <ele>177.8000030517578125</ele>
        <time>2019-05-21T13:58:16.000Z</time>
      </trkpt>
      <trkpt lat="43.07342416606843471527099609375" lon="-2.1183139644563198089599609375">
        <ele>178.600006103515625</ele>
        <time>2019-05-21T13:58:17.000Z</time>
      </trkpt>
      <trkpt lat="43.073422573506832122802734375" lon="-2.11822268553078174591064453125">
        <ele>179.600006103515625</ele>
        <time>2019-05-21T13:58:18.000Z</time>
      </trkpt>
      <trkpt lat="43.0734106712043285369873046875" lon="-2.11764835752546787261962890625">
        <ele>185.399993896484375</ele>
        <time>2019-05-21T13:58:24.000Z</time>
      </trkpt>
      <trkpt lat="43.07336993515491485595703125" lon="-2.117475606501102447509765625">
        <ele>188</ele>
        <time>2019-05-21T13:58:26.000Z</time>
      </trkpt>
      <trkpt lat="43.07329391129314899444580078125" lon="-2.1171788871288299560546875">
        <ele>192</ele>
        <time>2019-05-21T13:58:30.000Z</time>
      </trkpt>
      <trkpt lat="43.073302544653415679931640625" lon="-2.11693287827074527740478515625">
        <ele>193.600006103515625</ele>
        <time>2019-05-21T13:58:33.000Z</time>
      </trkpt>
      <trkpt lat="43.07334487326443195343017578125" lon="-2.116769850254058837890625">
        <ele>193.8000030517578125</ele>
        <time>2019-05-21T13:58:35.000Z</time>
      </trkpt>
      <trkpt lat="43.07337303645908832550048828125" lon="-2.116697765886783599853515625">
        <ele>193.600006103515625</ele>
        <time>2019-05-21T13:58:36.000Z</time>
      </trkpt>
      <trkpt lat="43.07352416217327117919921875" lon="-2.116306163370609283447265625">
        <ele>197.399993896484375</ele>
        <time>2019-05-21T13:58:43.000Z</time>
      </trkpt>
      <trkpt lat="43.07351318188011646270751953125" lon="-2.11619895882904529571533203125">
        <ele>198.8000030517578125</ele>
        <time>2019-05-21T13:58:45.000Z</time>
      </trkpt>
      <trkpt lat="43.0734854377806186676025390625" lon="-2.1161631681025028228759765625">
        <ele>199.1999969482421875</ele>
        <time>2019-05-21T13:58:46.000Z</time>
      </trkpt>
      <trkpt lat="43.07342969812452793121337890625" lon="-2.1161759085953235626220703125">
        <ele>198.600006103515625</ele>
        <time>2019-05-21T13:58:47.000Z</time>
      </trkpt>
      <trkpt lat="43.0731873773038387298583984375" lon="-2.11642392911016941070556640625">
        <ele>203.399993896484375</ele>
        <time>2019-05-21T13:58:56.000Z</time>
      </trkpt>
      <trkpt lat="43.07308830320835113525390625" lon="-2.1164937503635883331298828125">
        <ele>205.8000030517578125</ele>
        <time>2019-05-21T13:58:59.000Z</time>
      </trkpt>
      <trkpt lat="43.07293214835226535797119140625" lon="-2.11680949665606021881103515625">
        <ele>206</ele>
        <time>2019-05-21T13:59:06.000Z</time>
      </trkpt>
      <trkpt lat="43.0729121156036853790283203125" lon="-2.1168565191328525543212890625">
        <ele>205.8000030517578125</ele>
        <time>2019-05-21T13:59:07.000Z</time>
      </trkpt>
      <trkpt lat="43.0727635882794857025146484375" lon="-2.1170278452336788177490234375">
        <ele>207.600006103515625</ele>
        <time>2019-05-21T13:59:12.000Z</time>
      </trkpt>
      <trkpt lat="43.07269661687314510345458984375" lon="-2.11708970367908477783203125">
        <ele>208.8000030517578125</ele>
        <time>2019-05-21T13:59:14.000Z</time>
      </trkpt>
      <trkpt lat="43.07267524302005767822265625" lon="-2.11718383245170116424560546875">
        <ele>207.8000030517578125</ele>
        <time>2019-05-21T13:59:16.000Z</time>
      </trkpt>
      <trkpt lat="43.0727169848978519439697265625" lon="-2.117324061691761016845703125">
        <ele>204</ele>
        <time>2019-05-21T13:59:18.000Z</time>
      </trkpt>
      <trkpt lat="43.07274439372122287750244140625" lon="-2.11748859845101833343505859375">
        <ele>202.1999969482421875</ele>
        <time>2019-05-21T13:59:20.000Z</time>
      </trkpt>
      <trkpt lat="43.072726540267467498779296875" lon="-2.117694877088069915771484375">
        <ele>200.8000030517578125</ele>
        <time>2019-05-21T13:59:22.000Z</time>
      </trkpt>
      <trkpt lat="43.0726437270641326904296875" lon="-2.11815764196217060089111328125">
        <ele>198.8000030517578125</ele>
        <time>2019-05-21T13:59:26.000Z</time>
      </trkpt>
      <trkpt lat="43.07252235710620880126953125" lon="-2.11862132884562015533447265625">
        <ele>191.399993896484375</ele>
        <time>2019-05-21T13:59:31.000Z</time>
      </trkpt>
      <trkpt lat="43.0723756738007068634033203125" lon="-2.1189332194626331329345703125">
        <ele>186.1999969482421875</ele>
        <time>2019-05-21T13:59:36.000Z</time>
      </trkpt>
      <trkpt lat="43.07218850590288639068603515625" lon="-2.11921107955276966094970703125">
        <ele>181.1999969482421875</ele>
        <time>2019-05-21T13:59:44.000Z</time>
      </trkpt>
      <trkpt lat="43.0721054412424564361572265625" lon="-2.119255252182483673095703125">
        <ele>181.1999969482421875</ele>
        <time>2019-05-21T13:59:46.000Z</time>
      </trkpt>
      <trkpt lat="43.072023130953311920166015625" lon="-2.1192822419106960296630859375">
        <ele>181.600006103515625</ele>
        <time>2019-05-21T13:59:48.000Z</time>
      </trkpt>
      <trkpt lat="43.071945011615753173828125" lon="-2.119296826422214508056640625">
        <ele>182.399993896484375</ele>
        <time>2019-05-21T13:59:50.000Z</time>
      </trkpt>
      <trkpt lat="43.0717423371970653533935546875" lon="-2.11931333877146244049072265625">
        <ele>185.1999969482421875</ele>
        <time>2019-05-21T13:59:56.000Z</time>
      </trkpt>
      <trkpt lat="43.07163144461810588836669921875" lon="-2.11929171346127986907958984375">
        <ele>185.8000030517578125</ele>
        <time>2019-05-21T14:00:00.000Z</time>
      </trkpt>
      <trkpt lat="43.07148559950292110443115234375" lon="-2.1192507259547710418701171875">
        <ele>186</ele>
        <time>2019-05-21T14:00:06.000Z</time>
      </trkpt>
      <trkpt lat="43.07128317654132843017578125" lon="-2.11905836127698421478271484375">
        <ele>189</ele>
        <time>2019-05-21T14:00:15.000Z</time>
      </trkpt>
      <trkpt lat="43.0712571926414966583251953125" lon="-2.11902089416980743408203125">
        <ele>189.600006103515625</ele>
        <time>2019-05-21T14:00:16.000Z</time>
      </trkpt>
      <trkpt lat="43.07107958011329174041748046875" lon="-2.1188896335661411285400390625">
        <ele>191</ele>
        <time>2019-05-21T14:00:22.000Z</time>
      </trkpt>
      <trkpt lat="43.07094815187156200408935546875" lon="-2.11880053393542766571044921875">
        <ele>191.399993896484375</ele>
        <time>2019-05-21T14:00:26.000Z</time>
      </trkpt>
      <trkpt lat="43.07080498896539211273193359375" lon="-2.11852929554879665374755859375">
        <ele>196</ele>
        <time>2019-05-21T14:00:31.000Z</time>
      </trkpt>
      <trkpt lat="43.07071454823017120361328125" lon="-2.11822033859789371490478515625">
        <ele>200.399993896484375</ele>
        <time>2019-05-21T14:00:35.000Z</time>
      </trkpt>
      <trkpt lat="43.07069401256740093231201171875" lon="-2.1181391179561614990234375">
        <ele>200.8000030517578125</ele>
        <time>2019-05-21T14:00:36.000Z</time>
      </trkpt>
      <trkpt lat="43.0705323256552219390869140625" lon="-2.11755213327705860137939453125">
        <ele>204.600006103515625</ele>
        <time>2019-05-21T14:00:46.000Z</time>
      </trkpt>
      <trkpt lat="43.07038086466491222381591796875" lon="-2.11747803725302219390869140625">
        <ele>203.600006103515625</ele>
        <time>2019-05-21T14:00:50.000Z</time>
      </trkpt>
      <trkpt lat="43.0702914297580718994140625" lon="-2.11756587959825992584228515625">
        <ele>201</ele>
        <time>2019-05-21T14:00:52.000Z</time>
      </trkpt>
      <trkpt lat="43.0702557228505611419677734375" lon="-2.1176360361278057098388671875">
        <ele>199.399993896484375</ele>
        <time>2019-05-21T14:00:53.000Z</time>
      </trkpt>
      <trkpt lat="43.0702366121113300323486328125" lon="-2.117715664207935333251953125">
        <ele>198</ele>
        <time>2019-05-21T14:00:54.000Z</time>
      </trkpt>
      <trkpt lat="43.07020333595573902130126953125" lon="-2.117856480181217193603515625">
        <ele>195.399993896484375</ele>
        <time>2019-05-21T14:00:56.000Z</time>
      </trkpt>
      <trkpt lat="43.0701695568859577178955078125" lon="-2.11796401999890804290771484375">
        <ele>193.399993896484375</ele>
        <time>2019-05-21T14:00:58.000Z</time>
      </trkpt>
      <trkpt lat="43.0700723268091678619384765625" lon="-2.118146829307079315185546875">
        <ele>190</ele>
        <time>2019-05-21T14:01:02.000Z</time>
      </trkpt>
      <trkpt lat="43.0700446665287017822265625" lon="-2.1181932650506496429443359375">
        <ele>189.600006103515625</ele>
        <time>2019-05-21T14:01:03.000Z</time>
      </trkpt>
      <trkpt lat="43.06999177671968936920166015625" lon="-2.11828286759555339813232421875">
        <ele>188.8000030517578125</ele>
        <time>2019-05-21T14:01:05.000Z</time>
      </trkpt>
      <trkpt lat="43.06996663101017475128173828125" lon="-2.11832712404429912567138671875">
        <ele>187.8000030517578125</ele>
        <time>2019-05-21T14:01:06.000Z</time>
      </trkpt>
      <trkpt lat="43.069751970469951629638671875" lon="-2.11854438297450542449951171875">
        <ele>183.8000030517578125</ele>
        <time>2019-05-21T14:01:12.000Z</time>
      </trkpt>
      <trkpt lat="43.0697152577340602874755859375" lon="-2.11857975460588932037353515625">
        <ele>183.1999969482421875</ele>
        <time>2019-05-21T14:01:13.000Z</time>
      </trkpt>
      <trkpt lat="43.06967762298882007598876953125" lon="-2.118608169257640838623046875">
        <ele>182.8000030517578125</ele>
        <time>2019-05-21T14:01:14.000Z</time>
      </trkpt>
      <trkpt lat="43.0695905350148677825927734375" lon="-2.11863758973777294158935546875">
        <ele>183</ele>
        <time>2019-05-21T14:01:16.000Z</time>
      </trkpt>
      <trkpt lat="43.0694943107664585113525390625" lon="-2.11865477263927459716796875">
        <ele>183.600006103515625</ele>
        <time>2019-05-21T14:01:18.000Z</time>
      </trkpt>
      <trkpt lat="43.06916850619018077850341796875" lon="-2.118665166199207305908203125">
        <ele>186.1999969482421875</ele>
        <time>2019-05-21T14:01:25.000Z</time>
      </trkpt>
      <trkpt lat="43.06912575848400592803955078125" lon="-2.1186706982553005218505859375">
        <ele>186</ele>
        <time>2019-05-21T14:01:26.000Z</time>
      </trkpt>
      <trkpt lat="43.06899801827967166900634765625" lon="-2.11869944818317890167236328125">
        <ele>185</ele>
        <time>2019-05-21T14:01:29.000Z</time>
      </trkpt>
      <trkpt lat="43.06877371855080127716064453125" lon="-2.11878351867198944091796875">
        <ele>182.600006103515625</ele>
        <time>2019-05-21T14:01:33.000Z</time>
      </trkpt>
      <trkpt lat="43.06853399612009525299072265625" lon="-2.11893179453909397125244140625">
        <ele>178.1999969482421875</ele>
        <time>2019-05-21T14:01:36.000Z</time>
      </trkpt>
      <trkpt lat="43.068262673914432525634765625" lon="-2.11906087584793567657470703125">
        <ele>174.399993896484375</ele>
        <time>2019-05-21T14:01:39.000Z</time>
      </trkpt>
      <trkpt lat="43.06785020045936107635498046875" lon="-2.119058109819889068603515625">
        <ele>174.399993896484375</ele>
        <time>2019-05-21T14:01:44.000Z</time>
      </trkpt>
      <trkpt lat="43.06774559430778026580810546875" lon="-2.1190009452402591705322265625">
        <ele>176.1999969482421875</ele>
        <time>2019-05-21T14:01:46.000Z</time>
      </trkpt>
      <trkpt lat="43.0673763714730739593505859375" lon="-2.1188203990459442138671875">
        <ele>183.600006103515625</ele>
        <time>2019-05-21T14:01:56.000Z</time>
      </trkpt>
      <trkpt lat="43.0673311091959476470947265625" lon="-2.1188101731240749359130859375">
        <ele>184</ele>
        <time>2019-05-21T14:01:57.000Z</time>
      </trkpt>
      <trkpt lat="43.06722558103501796722412109375" lon="-2.11885401047766208648681640625">
        <ele>183.1999969482421875</ele>
        <time>2019-05-21T14:01:59.000Z</time>
      </trkpt>
      <trkpt lat="43.06701301597058773040771484375" lon="-2.1189888752996921539306640625">
        <ele>179.600006103515625</ele>
        <time>2019-05-21T14:02:02.000Z</time>
      </trkpt>
      <trkpt lat="43.06682626716792583465576171875" lon="-2.11903321556746959686279296875">
        <ele>179</ele>
        <time>2019-05-21T14:02:04.000Z</time>
      </trkpt>
      <trkpt lat="43.066631220281124114990234375" lon="-2.11902718059718608856201171875">
        <ele>178.600006103515625</ele>
        <time>2019-05-21T14:02:06.000Z</time>
      </trkpt>
      <trkpt lat="43.06654228828847408294677734375" lon="-2.119006812572479248046875">
        <ele>178.600006103515625</ele>
        <time>2019-05-21T14:02:07.000Z</time>
      </trkpt>
      <trkpt lat="43.066169880330562591552734375" lon="-2.1189644001424312591552734375">
        <ele>177.8000030517578125</ele>
        <time>2019-05-21T14:02:12.000Z</time>
      </trkpt>
      <trkpt lat="43.0660426430404186248779296875" lon="-2.1189600415527820587158203125">
        <ele>176.600006103515625</ele>
        <time>2019-05-21T14:02:14.000Z</time>
      </trkpt>
      <trkpt lat="43.0659853108227252960205078125" lon="-2.1189486421644687652587890625">
        <ele>175.600006103515625</ele>
        <time>2019-05-21T14:02:15.000Z</time>
      </trkpt>
      <trkpt lat="43.06593418121337890625" lon="-2.11892341263592243194580078125">
        <ele>174.8000030517578125</ele>
        <time>2019-05-21T14:02:16.000Z</time>
      </trkpt>
      <trkpt lat="43.0658904276788234710693359375" lon="-2.11888167075812816619873046875">
        <ele>176</ele>
        <time>2019-05-21T14:02:17.000Z</time>
      </trkpt>
      <trkpt lat="43.06581926532089710235595703125" lon="-2.11877773515880107879638671875">
        <ele>179</ele>
        <time>2019-05-21T14:02:19.000Z</time>
      </trkpt>
      <trkpt lat="43.065772913396358489990234375" lon="-2.11866550147533416748046875">
        <ele>181.600006103515625</ele>
        <time>2019-05-21T14:02:21.000Z</time>
      </trkpt>
      <trkpt lat="43.065771572291851043701171875" lon="-2.118518985807895660400390625">
        <ele>183.8000030517578125</ele>
        <time>2019-05-21T14:02:23.000Z</time>
      </trkpt>
      <trkpt lat="43.06576319038867950439453125" lon="-2.11838713847100734710693359375">
        <ele>184.399993896484375</ele>
        <time>2019-05-21T14:02:25.000Z</time>
      </trkpt>
      <trkpt lat="43.0657516233623027801513671875" lon="-2.11832159198820590972900390625">
        <ele>183.1999969482421875</ele>
        <time>2019-05-21T14:02:26.000Z</time>
      </trkpt>
      <trkpt lat="43.06573192588984966278076171875" lon="-2.11825822480022907257080078125">
        <ele>182.399993896484375</ele>
        <time>2019-05-21T14:02:27.000Z</time>
      </trkpt>
      <trkpt lat="43.0656699836254119873046875" lon="-2.118119336664676666259765625">
        <ele>184</ele>
        <time>2019-05-21T14:02:29.000Z</time>
      </trkpt>
      <trkpt lat="43.0655036866664886474609375" lon="-2.1178529597818851470947265625">
        <ele>186.8000030517578125</ele>
        <time>2019-05-21T14:02:33.000Z</time>
      </trkpt>
      <trkpt lat="43.0653695762157440185546875" lon="-2.117681466042995452880859375">
        <ele>185.8000030517578125</ele>
        <time>2019-05-21T14:02:36.000Z</time>
      </trkpt>
      <trkpt lat="43.06515608914196491241455078125" lon="-2.11736856959760189056396484375">
        <ele>185.8000030517578125</ele>
        <time>2019-05-21T14:02:42.000Z</time>
      </trkpt>
      <trkpt lat="43.0650368146598339080810546875" lon="-2.11723010055720806121826171875">
        <ele>189</ele>
        <time>2019-05-21T14:02:46.000Z</time>
      </trkpt>
      <trkpt lat="43.06497017852962017059326171875" lon="-2.11723060347139835357666015625">
        <ele>189.1999969482421875</ele>
        <time>2019-05-21T14:02:48.000Z</time>
      </trkpt>
      <trkpt lat="43.06464294902980327606201171875" lon="-2.11743210442364215850830078125">
        <ele>185.1999969482421875</ele>
        <time>2019-05-21T14:02:56.000Z</time>
      </trkpt>
      <trkpt lat="43.06427783332765102386474609375" lon="-2.11753704585134983062744140625">
        <ele>186.600006103515625</ele>
        <time>2019-05-21T14:03:03.000Z</time>
      </trkpt>
      <trkpt lat="43.0641107819974422454833984375" lon="-2.11753495037555694580078125">
        <ele>187.600006103515625</ele>
        <time>2019-05-21T14:03:06.000Z</time>
      </trkpt>
      <trkpt lat="43.06393886916339397430419921875" lon="-2.1175498701632022857666015625">
        <ele>189.1999969482421875</ele>
        <time>2019-05-21T14:03:09.000Z</time>
      </trkpt>
      <trkpt lat="43.06358548812568187713623046875" lon="-2.11766713298857212066650390625">
        <ele>191.600006103515625</ele>
        <time>2019-05-21T14:03:16.000Z</time>
      </trkpt>
      <trkpt lat="43.06327301077544689178466796875" lon="-2.1177570708096027374267578125">
        <ele>192.399993896484375</ele>
        <time>2019-05-21T14:03:22.000Z</time>
      </trkpt>
      <trkpt lat="43.0631622858345508575439453125" lon="-2.11783041246235370635986328125">
        <ele>192</ele>
        <time>2019-05-21T14:03:24.000Z</time>
      </trkpt>
      <trkpt lat="43.0630871839821338653564453125" lon="-2.11790618486702442169189453125">
        <ele>191.399993896484375</ele>
        <time>2019-05-21T14:03:26.000Z</time>
      </trkpt>
      <trkpt lat="43.06305424310266971588134765625" lon="-2.1179884113371372222900390625">
        <ele>190.8000030517578125</ele>
        <time>2019-05-21T14:03:28.000Z</time>
      </trkpt>
      <trkpt lat="43.0630620382726192474365234375" lon="-2.11802755482494831085205078125">
        <ele>190.399993896484375</ele>
        <time>2019-05-21T14:03:29.000Z</time>
      </trkpt>
      <trkpt lat="43.0631379783153533935546875" lon="-2.11811942048370838165283203125">
        <ele>189.600006103515625</ele>
        <time>2019-05-21T14:03:33.000Z</time>
      </trkpt>
      <trkpt lat="43.06316337548196315765380859375" lon="-2.11812436580657958984375">
        <ele>189.600006103515625</ele>
        <time>2019-05-21T14:03:36.000Z</time>
      </trkpt>
      <trkpt lat="43.0631663091480731964111328125" lon="-2.1181319095194339752197265625">
        <ele>189.399993896484375</ele>
        <time>2019-05-21T14:03:42.000Z</time>
      </trkpt>
      <trkpt lat="43.0631663091480731964111328125" lon="-2.1181319095194339752197265625">
        <ele>189.399993896484375</ele>
        <time>2019-05-21T14:03:46.000Z</time>
      </trkpt>
      <trkpt lat="43.0631663091480731964111328125" lon="-2.1181319095194339752197265625">
        <ele>189.399993896484375</ele>
        <time>2019-05-21T14:03:50.000Z</time>
      </trkpt>
      <trkpt lat="43.0631663091480731964111328125" lon="-2.1181319095194339752197265625">
        <ele>189.399993896484375</ele>
        <time>2019-05-21T14:03:53.000Z</time>
      </trkpt>
      <trkpt lat="43.0631663091480731964111328125" lon="-2.1181319095194339752197265625">
        <ele>189.399993896484375</ele>
        <time>2019-05-21T14:03:54.000Z</time>
      </trkpt>
      <trkpt lat="43.0631663091480731964111328125" lon="-2.1181319095194339752197265625">
        <ele>189.399993896484375</ele>
        <time>2019-05-21T14:03:55.000Z</time>
      </trkpt>
      <trkpt lat="43.0631663091480731964111328125" lon="-2.1181319095194339752197265625">
        <ele>189.399993896484375</ele>
        <time>2019-05-21T14:03:56.000Z</time>
      </trkpt>
      <trkpt lat="43.0631663091480731964111328125" lon="-2.1181319095194339752197265625">
        <ele>189.399993896484375</ele>
        <time>2019-05-21T14:03:59.000Z</time>
      </trkpt>
      <trkpt lat="43.0631663091480731964111328125" lon="-2.1181319095194339752197265625">
        <ele>189.399993896484375</ele>
        <time>2019-05-21T14:04:03.000Z</time>
      </trkpt>
      <trkpt lat="43.0631663091480731964111328125" lon="-2.1181319095194339752197265625">
        <ele>189.399993896484375</ele>
        <time>2019-05-21T14:04:06.000Z</time>
      </trkpt>
      <trkpt lat="43.0631663091480731964111328125" lon="-2.1181319095194339752197265625">
        <ele>189.399993896484375</ele>
        <time>2019-05-21T14:04:09.000Z</time>
      </trkpt>
      <trkpt lat="43.0631663091480731964111328125" lon="-2.1181319095194339752197265625">
        <ele>189.399993896484375</ele>
        <time>2019-05-21T14:04:15.000Z</time>
      </trkpt>
      <trkpt lat="43.0631663091480731964111328125" lon="-2.1181319095194339752197265625">
        <ele>189.399993896484375</ele>
        <time>2019-05-21T14:04:16.000Z</time>
      </trkpt>
      <trkpt lat="43.0631663091480731964111328125" lon="-2.1181319095194339752197265625">
        <ele>189.399993896484375</ele>
        <time>2019-05-21T14:04:26.000Z</time>
      </trkpt>
      <trkpt lat="43.0631663091480731964111328125" lon="-2.1181319095194339752197265625">
        <ele>189.399993896484375</ele>
        <time>2019-05-21T14:04:31.000Z</time>
      </trkpt>
      <trkpt lat="43.0631663091480731964111328125" lon="-2.1181319095194339752197265625">
        <ele>189.399993896484375</ele>
        <time>2019-05-21T14:04:36.000Z</time>
      </trkpt>
      <trkpt lat="43.0631663091480731964111328125" lon="-2.1181319095194339752197265625">
        <ele>189.399993896484375</ele>
        <time>2019-05-21T14:04:46.000Z</time>
      </trkpt>
      <trkpt lat="43.06316337548196315765380859375" lon="-2.11812679655849933624267578125">
        <ele>189.600006103515625</ele>
        <time>2019-05-21T14:04:53.000Z</time>
      </trkpt>
      <trkpt lat="43.06310520507395267486572265625" lon="-2.1180876530706882476806640625">
        <ele>190</ele>
        <time>2019-05-21T14:04:56.000Z</time>
      </trkpt>
      <trkpt lat="43.06306530721485614776611328125" lon="-2.11798363365232944488525390625">
        <ele>190.8000030517578125</ele>
        <time>2019-05-21T14:05:00.000Z</time>
      </trkpt>
      <trkpt lat="43.06322188116610050201416015625" lon="-2.11780057288706302642822265625">
        <ele>192.1999969482421875</ele>
        <time>2019-05-21T14:05:06.000Z</time>
      </trkpt>
      <trkpt lat="43.0635656230151653289794921875" lon="-2.11772848851978778839111328125">
        <ele>191.1999969482421875</ele>
        <time>2019-05-21T14:05:15.000Z</time>
      </trkpt>
      <trkpt lat="43.0636045150458812713623046875" lon="-2.11771197617053985595703125">
        <ele>191</ele>
        <time>2019-05-21T14:05:16.000Z</time>
      </trkpt>
      <trkpt lat="43.06373099796473979949951171875" lon="-2.1176796220242977142333984375">
        <ele>190</ele>
        <time>2019-05-21T14:05:19.000Z</time>
      </trkpt>
      <trkpt lat="43.063773997128009796142578125" lon="-2.11766679771244525909423828125">
        <ele>189.8000030517578125</ele>
        <time>2019-05-21T14:05:20.000Z</time>
      </trkpt>
      <trkpt lat="43.06381733156740665435791015625" lon="-2.11764668114483356475830078125">
        <ele>189.399993896484375</ele>
        <time>2019-05-21T14:05:21.000Z</time>
      </trkpt>
      <trkpt lat="43.0640779249370098114013671875" lon="-2.11757375858724117279052734375">
        <ele>187.600006103515625</ele>
        <time>2019-05-21T14:05:26.000Z</time>
      </trkpt>
      <trkpt lat="43.0642522685229778289794921875" lon="-2.11757577024400234222412109375">
        <ele>186.600006103515625</ele>
        <time>2019-05-21T14:05:29.000Z</time>
      </trkpt>
      <trkpt lat="43.0643102712929248809814453125" lon="-2.11758792400360107421875">
        <ele>186.399993896484375</ele>
        <time>2019-05-21T14:05:30.000Z</time>
      </trkpt>
      <trkpt lat="43.0643664300441741943359375" lon="-2.11759035475552082061767578125">
        <ele>186.1999969482421875</ele>
        <time>2019-05-21T14:05:31.000Z</time>
      </trkpt>
      <trkpt lat="43.06441965512931346893310546875" lon="-2.11758549325168132781982421875">
        <ele>185.8000030517578125</ele>
        <time>2019-05-21T14:05:32.000Z</time>
      </trkpt>
      <trkpt lat="43.0644705332815647125244140625" lon="-2.11757711134850978851318359375">
        <ele>185.600006103515625</ele>
        <time>2019-05-21T14:05:33.000Z</time>
      </trkpt>
      <trkpt lat="43.06452074088156223297119140625" lon="-2.11756487376987934112548828125">
        <ele>185.399993896484375</ele>
        <time>2019-05-21T14:05:34.000Z</time>
      </trkpt>
      <trkpt lat="43.06457002647221088409423828125" lon="-2.11754526011645793914794921875">
        <ele>185.1999969482421875</ele>
        <time>2019-05-21T14:05:35.000Z</time>
      </trkpt>
      <trkpt lat="43.06461696512997150421142578125" lon="-2.11752497591078281402587890625">
        <ele>185</ele>
        <time>2019-05-21T14:05:36.000Z</time>
      </trkpt>
      <trkpt lat="43.0646649934351444244384765625" lon="-2.11750469170510768890380859375">
        <ele>184.8000030517578125</ele>
        <time>2019-05-21T14:05:37.000Z</time>
      </trkpt>
      <trkpt lat="43.06471310555934906005859375" lon="-2.117482982575893402099609375">
        <ele>184.8000030517578125</ele>
        <time>2019-05-21T14:05:38.000Z</time>
      </trkpt>
      <trkpt lat="43.0647602118551731109619140625" lon="-2.11746294982731342315673828125">
        <ele>184.600006103515625</ele>
        <time>2019-05-21T14:05:39.000Z</time>
      </trkpt>
      <trkpt lat="43.064805977046489715576171875" lon="-2.11744283325970172882080078125">
        <ele>184.399993896484375</ele>
        <time>2019-05-21T14:05:40.000Z</time>
      </trkpt>
      <trkpt lat="43.0648892931640148162841796875" lon="-2.11738818325102329254150390625">
        <ele>185.1999969482421875</ele>
        <time>2019-05-21T14:05:42.000Z</time>
      </trkpt>
      <trkpt lat="43.0650160275399684906005859375" lon="-2.11727284826338291168212890625">
        <ele>187.8000030517578125</ele>
        <time>2019-05-21T14:05:46.000Z</time>
      </trkpt>
      <trkpt lat="43.0650850944221019744873046875" lon="-2.1172746084630489349365234375">
        <ele>187.399993896484375</ele>
        <time>2019-05-21T14:05:48.000Z</time>
      </trkpt>
      <trkpt lat="43.0652031116187572479248046875" lon="-2.11749044246971607208251953125">
        <ele>184.399993896484375</ele>
        <time>2019-05-21T14:05:53.000Z</time>
      </trkpt>
      <trkpt lat="43.06529371999204158782958984375" lon="-2.11762874387204647064208984375">
        <ele>185</ele>
        <time>2019-05-21T14:05:56.000Z</time>
      </trkpt>
      <trkpt lat="43.065619356930255889892578125" lon="-2.11808656342327594757080078125">
        <ele>184.1999969482421875</ele>
        <time>2019-05-21T14:06:06.000Z</time>
      </trkpt>
      <trkpt lat="43.065700829029083251953125" lon="-2.11824364028871059417724609375">
        <ele>182.1999969482421875</ele>
        <time>2019-05-21T14:06:09.000Z</time>
      </trkpt>
      <trkpt lat="43.0657472647726535797119140625" lon="-2.11845285259187221527099609375">
        <ele>185.1999969482421875</ele>
        <time>2019-05-21T14:06:13.000Z</time>
      </trkpt>
      <trkpt lat="43.06575321592390537261962890625" lon="-2.11863105185329914093017578125">
        <ele>182.600006103515625</ele>
        <time>2019-05-21T14:06:16.000Z</time>
      </trkpt>
      <trkpt lat="43.0657600052654743194580078125" lon="-2.11869207210838794708251953125">
        <ele>181.600006103515625</ele>
        <time>2019-05-21T14:06:17.000Z</time>
      </trkpt>
      <trkpt lat="43.065797723829746246337890625" lon="-2.11881092749536037445068359375">
        <ele>179</ele>
        <time>2019-05-21T14:06:19.000Z</time>
      </trkpt>
      <trkpt lat="43.06586285121738910675048828125" lon="-2.1189124323427677154541015625">
        <ele>176.1999969482421875</ele>
        <time>2019-05-21T14:06:21.000Z</time>
      </trkpt>
      <trkpt lat="43.06595622561872005462646484375" lon="-2.1189813315868377685546875">
        <ele>174.399993896484375</ele>
        <time>2019-05-21T14:06:23.000Z</time>
      </trkpt>
      <trkpt lat="43.06605664081871509552001953125" lon="-2.1190002746880054473876953125">
        <ele>176</ele>
        <time>2019-05-21T14:06:25.000Z</time>
      </trkpt>
      <trkpt lat="43.0661029927432537078857421875" lon="-2.11900220252573490142822265625">
        <ele>176.1999969482421875</ele>
        <time>2019-05-21T14:06:26.000Z</time>
      </trkpt>
      <trkpt lat="43.066274821758270263671875" lon="-2.11901712231338024139404296875">
        <ele>176.8000030517578125</ele>
        <time>2019-05-21T14:06:30.000Z</time>
      </trkpt>
      <trkpt lat="43.066558800637722015380859375" lon="-2.1190495602786540985107421875">
        <ele>177.399993896484375</ele>
        <time>2019-05-21T14:06:36.000Z</time>
      </trkpt>
      <trkpt lat="43.0668260157108306884765625" lon="-2.11904863826930522918701171875">
        <ele>178.600006103515625</ele>
        <time>2019-05-21T14:06:41.000Z</time>
      </trkpt>
      <trkpt lat="43.06704662740230560302734375" lon="-2.118975631892681121826171875">
        <ele>179.8000030517578125</ele>
        <time>2019-05-21T14:06:46.000Z</time>
      </trkpt>
      <trkpt lat="43.06711963377892971038818359375" lon="-2.118932716548442840576171875">
        <ele>181</ele>
        <time>2019-05-21T14:06:48.000Z</time>
      </trkpt>
      <trkpt lat="43.0673720128834247589111328125" lon="-2.11876876652240753173828125">
        <ele>185.1999969482421875</ele>
        <time>2019-05-21T14:06:56.000Z</time>
      </trkpt>
      <trkpt lat="43.067487515509128570556640625" lon="-2.11879315786063671112060546875">
        <ele>184</ele>
        <time>2019-05-21T14:07:01.000Z</time>
      </trkpt>
      <trkpt lat="43.06745591573417186737060546875" lon="-2.118691988289356231689453125">
        <ele>187.399993896484375</ele>
        <time>2019-05-21T14:07:05.000Z</time>
      </trkpt>
      <trkpt lat="43.06744233705103397369384765625" lon="-2.11865904740989208221435546875">
        <ele>188.600006103515625</ele>
        <time>2019-05-21T14:07:06.000Z</time>
      </trkpt>
      <trkpt lat="43.06736103259027004241943359375" lon="-2.1184851229190826416015625">
        <ele>194.8000030517578125</ele>
        <time>2019-05-21T14:07:12.000Z</time>
      </trkpt>
      <trkpt lat="43.06727319024503231048583984375" lon="-2.1184583008289337158203125">
        <ele>195.8000030517578125</ele>
        <time>2019-05-21T14:07:16.000Z</time>
      </trkpt>
      <trkpt lat="43.06718115694820880889892578125" lon="-2.118455283343791961669921875">
        <ele>196.1999969482421875</ele>
        <time>2019-05-21T14:07:21.000Z</time>
      </trkpt>
      <trkpt lat="43.0671949870884418487548828125" lon="-2.118332572281360626220703125">
        <ele>200</ele>
        <time>2019-05-21T14:07:26.000Z</time>
      </trkpt>
      <trkpt lat="43.0672214739024639129638671875" lon="-2.11824414320290088653564453125">
        <ele>202.600006103515625</ele>
        <time>2019-05-21T14:07:30.000Z</time>
      </trkpt>
      <trkpt lat="43.06723195128142833709716796875" lon="-2.11823509074747562408447265625">
        <ele>203</ele>
        <time>2019-05-21T14:07:31.000Z</time>
      </trkpt>
      <trkpt lat="43.06724435649812221527099609375" lon="-2.1182311512529850006103515625">
        <ele>203</ele>
        <time>2019-05-21T14:07:34.000Z</time>
      </trkpt>
      <trkpt lat="43.0672543309628963470458984375" lon="-2.1182274632155895233154296875">
        <ele>203.1999969482421875</ele>
        <time>2019-05-21T14:07:36.000Z</time>
      </trkpt>
      <trkpt lat="43.06726028211414813995361328125" lon="-2.1182227693498134613037109375">
        <ele>203.1999969482421875</ele>
        <time>2019-05-21T14:07:44.000Z</time>
      </trkpt>
      <trkpt lat="43.06726028211414813995361328125" lon="-2.1182227693498134613037109375">
        <ele>203.1999969482421875</ele>
        <time>2019-05-21T14:07:46.000Z</time>
      </trkpt>
      <trkpt lat="43.06726028211414813995361328125" lon="-2.1182227693498134613037109375">
        <ele>203.1999969482421875</ele>
        <time>2019-05-21T14:07:50.000Z</time>
      </trkpt>
      <trkpt lat="43.06726028211414813995361328125" lon="-2.1182227693498134613037109375">
        <ele>203.1999969482421875</ele>
        <time>2019-05-21T14:07:53.000Z</time>
      </trkpt>
      <trkpt lat="43.06726028211414813995361328125" lon="-2.1182227693498134613037109375">
        <ele>203.1999969482421875</ele>
        <time>2019-05-21T14:07:55.000Z</time>
      </trkpt>
      <trkpt lat="43.06726028211414813995361328125" lon="-2.1182227693498134613037109375">
        <ele>203.1999969482421875</ele>
        <time>2019-05-21T14:07:56.000Z</time>
      </trkpt>
      <trkpt lat="43.06726447306573390960693359375" lon="-2.1182271279394626617431640625">
        <ele>203.1999969482421875</ele>
        <time>2019-05-21T14:07:58.000Z</time>
      </trkpt>
      <trkpt lat="43.067266903817653656005859375" lon="-2.1182249486446380615234375">
        <ele>203.1999969482421875</ele>
        <time>2019-05-21T14:08:00.000Z</time>
      </trkpt>
      <trkpt lat="43.067266903817653656005859375" lon="-2.1182249486446380615234375">
        <ele>203.1999969482421875</ele>
        <time>2019-05-21T14:08:02.000Z</time>
      </trkpt>
      <trkpt lat="43.067266903817653656005859375" lon="-2.1182249486446380615234375">
        <ele>203.1999969482421875</ele>
        <time>2019-05-21T14:08:05.000Z</time>
      </trkpt>
      <trkpt lat="43.067266903817653656005859375" lon="-2.1182249486446380615234375">
        <ele>203.1999969482421875</ele>
        <time>2019-05-21T14:08:06.000Z</time>
      </trkpt>
      <trkpt lat="43.067266903817653656005859375" lon="-2.1182249486446380615234375">
        <ele>203.1999969482421875</ele>
        <time>2019-05-21T14:08:16.000Z</time>
      </trkpt>
      <trkpt lat="43.0673351325094699859619140625" lon="-2.1182120405137538909912109375">
        <ele>203.399993896484375</ele>
        <time>2019-05-21T14:08:24.000Z</time>
      </trkpt>
      <trkpt lat="43.06736203841865062713623046875" lon="-2.11820910684764385223388671875">
        <ele>203.399993896484375</ele>
        <time>2019-05-21T14:08:25.000Z</time>
      </trkpt>
      <trkpt lat="43.06738601066172122955322265625" lon="-2.1182060055434703826904296875">
        <ele>203.399993896484375</ele>
        <time>2019-05-21T14:08:26.000Z</time>
      </trkpt>
      <trkpt lat="43.06759505532681941986083984375" lon="-2.11838210932910442352294921875">
        <ele>197.1999969482421875</ele>
        <time>2019-05-21T14:08:36.000Z</time>
      </trkpt>
      <trkpt lat="43.06765791960060596466064453125" lon="-2.11843357421457767486572265625">
        <ele>195.399993896484375</ele>
        <time>2019-05-21T14:08:39.000Z</time>
      </trkpt>
      <trkpt lat="43.067681975662708282470703125" lon="-2.11843826808035373687744140625">
        <ele>195.1999969482421875</ele>
        <time>2019-05-21T14:08:40.000Z</time>
      </trkpt>
      <trkpt lat="43.06773117743432521820068359375" lon="-2.1184400282800197601318359375">
        <ele>195</ele>
        <time>2019-05-21T14:08:42.000Z</time>
      </trkpt>
      <trkpt lat="43.06775464676320552825927734375" lon="-2.118437178432941436767578125">
        <ele>195</ele>
        <time>2019-05-21T14:08:43.000Z</time>
      </trkpt>
      <trkpt lat="43.06777643971145153045654296875" lon="-2.11842921562492847442626953125">
        <ele>195.1999969482421875</ele>
        <time>2019-05-21T14:08:44.000Z</time>
      </trkpt>
      <trkpt lat="43.06781767867505550384521484375" lon="-2.118404321372509002685546875">
        <ele>196</ele>
        <time>2019-05-21T14:08:46.000Z</time>
      </trkpt>
      <trkpt lat="43.0679805390536785125732421875" lon="-2.11832528002560138702392578125">
        <ele>198.1999969482421875</ele>
        <time>2019-05-21T14:08:53.000Z</time>
      </trkpt>
      <trkpt lat="43.0680442415177822113037109375" lon="-2.1183054149150848388671875">
        <ele>198.8000030517578125</ele>
        <time>2019-05-21T14:08:56.000Z</time>
      </trkpt>
      <trkpt lat="43.0680673755705356597900390625" lon="-2.1183055825531482696533203125">
        <ele>198.600006103515625</ele>
        <time>2019-05-21T14:08:59.000Z</time>
      </trkpt>
      <trkpt lat="43.068071566522121429443359375" lon="-2.1183163113892078399658203125">
        <ele>198.1999969482421875</ele>
        <time>2019-05-21T14:09:04.000Z</time>
      </trkpt>
      <trkpt lat="43.06807123124599456787109375" lon="-2.11831673048436641693115234375">
        <ele>198.1999969482421875</ele>
        <time>2019-05-21T14:09:06.000Z</time>
      </trkpt>
      <trkpt lat="43.06807148270308971405029296875" lon="-2.1183163113892078399658203125">
        <ele>198.1999969482421875</ele>
        <time>2019-05-21T14:09:09.000Z</time>
      </trkpt>
      <trkpt lat="43.06807315908372402191162109375" lon="-2.11831471882760524749755859375">
        <ele>198.399993896484375</ele>
        <time>2019-05-21T14:09:16.000Z</time>
      </trkpt>
      <trkpt lat="43.06807148270308971405029296875" lon="-2.1183159761130809783935546875">
        <ele>198.1999969482421875</ele>
        <time>2019-05-21T14:09:21.000Z</time>
      </trkpt>
      <trkpt lat="43.06807181797921657562255859375" lon="-2.11831572465598583221435546875">
        <ele>198.1999969482421875</ele>
        <time>2019-05-21T14:09:26.000Z</time>
      </trkpt>
      <trkpt lat="43.06811238639056682586669921875" lon="-2.1183049120008945465087890625">
        <ele>198.600006103515625</ele>
        <time>2019-05-21T14:09:29.000Z</time>
      </trkpt>
      <trkpt lat="43.0682360194623470306396484375" lon="-2.11827800609171390533447265625">
        <ele>199.1999969482421875</ele>
        <time>2019-05-21T14:09:34.000Z</time>
      </trkpt>
      <trkpt lat="43.06829427368938922882080078125" lon="-2.1182596497237682342529296875">
        <ele>199.600006103515625</ele>
        <time>2019-05-21T14:09:36.000Z</time>
      </trkpt>
      <trkpt lat="43.06840206496417522430419921875" lon="-2.1182244457304477691650390625">
        <ele>200.8000030517578125</ele>
        <time>2019-05-21T14:09:40.000Z</time>
      </trkpt>
      <trkpt lat="43.06842922233045101165771484375" lon="-2.11821245960891246795654296875">
        <ele>201</ele>
        <time>2019-05-21T14:09:41.000Z</time>
      </trkpt>
      <trkpt lat="43.06856601499021053314208984375" lon="-2.1181610785424709320068359375">
        <ele>201.1999969482421875</ele>
        <time>2019-05-21T14:09:46.000Z</time>
      </trkpt>
      <trkpt lat="43.068699538707733154296875" lon="-2.1181283891201019287109375">
        <ele>201.8000030517578125</ele>
        <time>2019-05-21T14:09:51.000Z</time>
      </trkpt>
      <trkpt lat="43.06882400996983051300048828125" lon="-2.1180826239287853240966796875">
        <ele>202.8000030517578125</ele>
        <time>2019-05-21T14:09:56.000Z</time>
      </trkpt>
      <trkpt lat="43.0690544284880161285400390625" lon="-2.1179513633251190185546875">
        <ele>205.399993896484375</ele>
        <time>2019-05-21T14:10:06.000Z</time>
      </trkpt>
      <trkpt lat="43.06919750757515430450439453125" lon="-2.11785723455250263214111328125">
        <ele>207.399993896484375</ele>
        <time>2019-05-21T14:10:13.000Z</time>
      </trkpt>
      <trkpt lat="43.06924662552773952484130859375" lon="-2.11784399114549160003662109375">
        <ele>207.8000030517578125</ele>
        <time>2019-05-21T14:10:16.000Z</time>
      </trkpt>
      <trkpt lat="43.06939984671771526336669921875" lon="-2.11762346327304840087890625">
        <ele>210</ele>
        <time>2019-05-21T14:10:26.000Z</time>
      </trkpt>
      <trkpt lat="43.069421388208866119384765625" lon="-2.11756579577922821044921875">
        <ele>210.8000030517578125</ele>
        <time>2019-05-21T14:10:28.000Z</time>
      </trkpt>
      <trkpt lat="43.06942884810268878936767578125" lon="-2.117536626756191253662109375">
        <ele>211.1999969482421875</ele>
        <time>2019-05-21T14:10:29.000Z</time>
      </trkpt>
      <trkpt lat="43.0694406665861606597900390625" lon="-2.11741425096988677978515625">
        <ele>213.600006103515625</ele>
        <time>2019-05-21T14:10:33.000Z</time>
      </trkpt>
      <trkpt lat="43.0694054625928401947021484375" lon="-2.11733906529843807220458984375">
        <ele>215.399993896484375</ele>
        <time>2019-05-21T14:10:36.000Z</time>
      </trkpt>
      <trkpt lat="43.06938492693006992340087890625" lon="-2.117332778871059417724609375">
        <ele>216</ele>
        <time>2019-05-21T14:10:37.000Z</time>
      </trkpt>
      <trkpt lat="43.069235645234584808349609375" lon="-2.1174150891602039337158203125">
        <ele>217.8000030517578125</ele>
        <time>2019-05-21T14:10:44.000Z</time>
      </trkpt>
      <trkpt lat="43.06919063441455364227294921875" lon="-2.1174348704516887664794921875">
        <ele>218.1999969482421875</ele>
        <time>2019-05-21T14:10:46.000Z</time>
      </trkpt>
      <trkpt lat="43.06907043792307376861572265625" lon="-2.117469571530818939208984375">
        <ele>218.8000030517578125</ele>
        <time>2019-05-21T14:10:51.000Z</time>
      </trkpt>
      <trkpt lat="43.0689991079270839691162109375" lon="-2.11746864952147006988525390625">
        <ele>219.8000030517578125</ele>
        <time>2019-05-21T14:10:54.000Z</time>
      </trkpt>
      <trkpt lat="43.06895292364060878753662109375" lon="-2.11747233755886554718017578125">
        <ele>220.399993896484375</ele>
        <time>2019-05-21T14:10:56.000Z</time>
      </trkpt>
      <trkpt lat="43.06890665553510189056396484375" lon="-2.117478288710117340087890625">
        <ele>221</ele>
        <time>2019-05-21T14:11:01.000Z</time>
      </trkpt>
      <trkpt lat="43.06890816427767276763916015625" lon="-2.1174734272062778472900390625">
        <ele>221.1999969482421875</ele>
        <time>2019-05-21T14:11:06.000Z</time>
      </trkpt>
      <trkpt lat="43.06890816427767276763916015625" lon="-2.1174734272062778472900390625">
        <ele>221.1999969482421875</ele>
        <time>2019-05-21T14:11:15.000Z</time>
      </trkpt>
      <trkpt lat="43.06890816427767276763916015625" lon="-2.1174734272062778472900390625">
        <ele>221.1999969482421875</ele>
        <time>2019-05-21T14:11:16.000Z</time>
      </trkpt>
      <trkpt lat="43.06890816427767276763916015625" lon="-2.1174734272062778472900390625">
        <ele>221.1999969482421875</ele>
        <time>2019-05-21T14:11:21.000Z</time>
      </trkpt>
      <trkpt lat="43.06890816427767276763916015625" lon="-2.1174734272062778472900390625">
        <ele>221.1999969482421875</ele>
        <time>2019-05-21T14:11:22.000Z</time>
      </trkpt>
      <trkpt lat="43.06890816427767276763916015625" lon="-2.1174734272062778472900390625">
        <ele>221.1999969482421875</ele>
        <time>2019-05-21T14:11:25.000Z</time>
      </trkpt>
      <trkpt lat="43.0688968487083911895751953125" lon="-2.1174737624824047088623046875">
        <ele>221.1999969482421875</ele>
        <time>2019-05-21T14:11:26.000Z</time>
      </trkpt>
      <trkpt lat="43.06886524893343448638916015625" lon="-2.1174653805792331695556640625">
        <ele>222</ele>
        <time>2019-05-21T14:11:28.000Z</time>
      </trkpt>
      <trkpt lat="43.0687277019023895263671875" lon="-2.11743746884167194366455078125">
        <ele>225.1999969482421875</ele>
        <time>2019-05-21T14:11:34.000Z</time>
      </trkpt>
      <trkpt lat="43.068683445453643798828125" lon="-2.1174234710633754730224609375">
        <ele>226.1999969482421875</ele>
        <time>2019-05-21T14:11:36.000Z</time>
      </trkpt>
      <trkpt lat="43.06866106577217578887939453125" lon="-2.117416597902774810791015625">
        <ele>226.8000030517578125</ele>
        <time>2019-05-21T14:11:37.000Z</time>
      </trkpt>
      <trkpt lat="43.06863809935748577117919921875" lon="-2.117409221827983856201171875">
        <ele>227.399993896484375</ele>
        <time>2019-05-21T14:11:38.000Z</time>
      </trkpt>
      <trkpt lat="43.0685448087751865386962890625" lon="-2.1173869259655475616455078125">
        <ele>229.1999969482421875</ele>
        <time>2019-05-21T14:11:42.000Z</time>
      </trkpt>
      <trkpt lat="43.06850214488804340362548828125" lon="-2.117375694215297698974609375">
        <ele>230.1999969482421875</ele>
        <time>2019-05-21T14:11:44.000Z</time>
      </trkpt>
      <trkpt lat="43.06845805607736110687255859375" lon="-2.1173590980470180511474609375">
        <ele>231.8000030517578125</ele>
        <time>2019-05-21T14:11:46.000Z</time>
      </trkpt>
      <trkpt lat="43.068371303379535675048828125" lon="-2.117334790527820587158203125">
        <ele>233</ele>
        <time>2019-05-21T14:11:50.000Z</time>
      </trkpt>
      <trkpt lat="43.06823576800525188446044921875" lon="-2.11727745831012725830078125">
        <ele>234.399993896484375</ele>
        <time>2019-05-21T14:11:56.000Z</time>
      </trkpt>
      <trkpt lat="43.0680408887565135955810546875" lon="-2.1171626262366771697998046875">
        <ele>237.399993896484375</ele>
        <time>2019-05-21T14:12:06.000Z</time>
      </trkpt>
      <trkpt lat="43.06802823208272457122802734375" lon="-2.1171448566019535064697265625">
        <ele>238</ele>
        <time>2019-05-21T14:12:16.000Z</time>
      </trkpt>
      <trkpt lat="43.06802756153047084808349609375" lon="-2.11714661680161952972412109375">
        <ele>238</ele>
        <time>2019-05-21T14:12:26.000Z</time>
      </trkpt>
      <trkpt lat="43.06802856735885143280029296875" lon="-2.11714200675487518310546875">
        <ele>238</ele>
        <time>2019-05-21T14:12:36.000Z</time>
      </trkpt>
      <trkpt lat="43.06803409941494464874267578125" lon="-2.11714200675487518310546875">
        <ele>238</ele>
        <time>2019-05-21T14:12:46.000Z</time>
      </trkpt>
      <trkpt lat="43.0680130608379840850830078125" lon="-2.1171388216316699981689453125">
        <ele>238.1999969482421875</ele>
        <time>2019-05-21T14:12:56.000Z</time>
      </trkpt>
      <trkpt lat="43.06801146827638149261474609375" lon="-2.1171359717845916748046875">
        <ele>238.1999969482421875</ele>
        <time>2019-05-21T14:13:01.000Z</time>
      </trkpt>
      <trkpt lat="43.0680076964199542999267578125" lon="-2.11713035590946674346923828125">
        <ele>238.399993896484375</ele>
        <time>2019-05-21T14:13:04.000Z</time>
      </trkpt>
      <trkpt lat="43.06797810830175876617431640625" lon="-2.11710638366639614105224609375">
        <ele>239</ele>
        <time>2019-05-21T14:13:06.000Z</time>
      </trkpt>
      <trkpt lat="43.06790183298289775848388671875" lon="-2.11706958711147308349609375">
        <ele>240</ele>
        <time>2019-05-21T14:13:10.000Z</time>
      </trkpt>
      <trkpt lat="43.06788238696753978729248046875" lon="-2.11705642752349376678466796875">
        <ele>240.399993896484375</ele>
        <time>2019-05-21T14:13:11.000Z</time>
      </trkpt>
      <trkpt lat="43.06786243803799152374267578125" lon="-2.1170432679355144500732421875">
        <ele>240.600006103515625</ele>
        <time>2019-05-21T14:13:12.000Z</time>
      </trkpt>
      <trkpt lat="43.06778398342430591583251953125" lon="-2.11697763763368129730224609375">
        <ele>242.600006103515625</ele>
        <time>2019-05-21T14:13:16.000Z</time>
      </trkpt>
      <trkpt lat="43.06763939559459686279296875" lon="-2.11686615832149982452392578125">
        <ele>245.600006103515625</ele>
        <time>2019-05-21T14:13:24.000Z</time>
      </trkpt>
      <trkpt lat="43.0676226317882537841796875" lon="-2.11684687994420528411865234375">
        <ele>246.1999969482421875</ele>
        <time>2019-05-21T14:13:25.000Z</time>
      </trkpt>
      <trkpt lat="43.06760578416287899017333984375" lon="-2.11682307533919811248779296875">
        <ele>246.8000030517578125</ele>
        <time>2019-05-21T14:13:26.000Z</time>
      </trkpt>
      <trkpt lat="43.0674853362143039703369140625" lon="-2.11666130460798740386962890625">
        <ele>251.399993896484375</ele>
        <time>2019-05-21T14:13:33.000Z</time>
      </trkpt>
      <trkpt lat="43.067457340657711029052734375" lon="-2.11661151610314846038818359375">
        <ele>252.399993896484375</ele>
        <time>2019-05-21T14:13:35.000Z</time>
      </trkpt>
      <trkpt lat="43.0674427561461925506591796875" lon="-2.116586454212665557861328125">
        <ele>253</ele>
        <time>2019-05-21T14:13:36.000Z</time>
      </trkpt>
      <trkpt lat="43.06738617829978466033935546875" lon="-2.116480506956577301025390625">
        <ele>255.8000030517578125</ele>
        <time>2019-05-21T14:13:40.000Z</time>
      </trkpt>
      <trkpt lat="43.06733454577624797821044921875" lon="-2.11637749336659908294677734375">
        <ele>258.600006103515625</ele>
        <time>2019-05-21T14:13:44.000Z</time>
      </trkpt>
      <trkpt lat="43.06731040589511394500732421875" lon="-2.1163259446620941162109375">
        <ele>259.79998779296875</ele>
        <time>2019-05-21T14:13:46.000Z</time>
      </trkpt>
      <trkpt lat="43.0671949870884418487548828125" lon="-2.11621320806443691253662109375">
        <ele>262.20001220703125</ele>
        <time>2019-05-21T14:13:56.000Z</time>
      </trkpt>
      <trkpt lat="43.067209906876087188720703125" lon="-2.1162127889692783355712890625">
        <ele>262.399993896484375</ele>
        <time>2019-05-21T14:13:57.000Z</time>
      </trkpt>
      <trkpt lat="43.06732063181698322296142578125" lon="-2.11622896604239940643310546875">
        <ele>263</ele>
        <time>2019-05-21T14:14:02.000Z</time>
      </trkpt>
      <trkpt lat="43.06739808060228824615478515625" lon="-2.11629501543939113616943359375">
        <ele>261.600006103515625</ele>
        <time>2019-05-21T14:14:06.000Z</time>
      </trkpt>
      <trkpt lat="43.06742523796856403350830078125" lon="-2.11631831713020801544189453125">
        <ele>261.20001220703125</ele>
        <time>2019-05-21T14:14:08.000Z</time>
      </trkpt>
      <trkpt lat="43.06742020882666110992431640625" lon="-2.11637129075825214385986328125">
        <ele>259.600006103515625</ele>
        <time>2019-05-21T14:14:16.000Z</time>
      </trkpt>
      <trkpt lat="43.0674226395785808563232421875" lon="-2.11638118140399456024169921875">
        <ele>259.20001220703125</ele>
        <time>2019-05-21T14:14:19.000Z</time>
      </trkpt>
      <trkpt lat="43.0674092285335063934326171875" lon="-2.11637129075825214385986328125">
        <ele>259.399993896484375</ele>
        <time>2019-05-21T14:14:24.000Z</time>
      </trkpt>
      <trkpt lat="43.0674038641154766082763671875" lon="-2.11636207066476345062255859375">
        <ele>259.600006103515625</ele>
        <time>2019-05-21T14:14:26.000Z</time>
      </trkpt>
      <trkpt lat="43.06740243919193744659423828125" lon="-2.1163566224277019500732421875">
        <ele>259.79998779296875</ele>
        <time>2019-05-21T14:14:27.000Z</time>
      </trkpt>
      <trkpt lat="43.067398332059383392333984375" lon="-2.11635234765708446502685546875">
        <ele>260</ele>
        <time>2019-05-21T14:14:29.000Z</time>
      </trkpt>
      <trkpt lat="43.06739891879260540008544921875" lon="-2.11634899489581584930419921875">
        <ele>260</ele>
        <time>2019-05-21T14:14:30.000Z</time>
      </trkpt>
      <trkpt lat="43.06736312806606292724609375" lon="-2.11630649864673614501953125">
        <ele>261</ele>
        <time>2019-05-21T14:14:34.000Z</time>
      </trkpt>
      <trkpt lat="43.067342340946197509765625" lon="-2.1162741445004940032958984375">
        <ele>261.79998779296875</ele>
        <time>2019-05-21T14:14:36.000Z</time>
      </trkpt>
      <trkpt lat="43.06729783304035663604736328125" lon="-2.1162144653499126434326171875">
        <ele>263.20001220703125</ele>
        <time>2019-05-21T14:14:39.000Z</time>
      </trkpt>
      <trkpt lat="43.0672524869441986083984375" lon="-2.11620055139064788818359375">
        <ele>263.20001220703125</ele>
        <time>2019-05-21T14:14:41.000Z</time>
      </trkpt>
      <trkpt lat="43.0672323703765869140625" lon="-2.11619376204907894134521484375">
        <ele>263.20001220703125</ele>
        <time>2019-05-21T14:14:42.000Z</time>
      </trkpt>
      <trkpt lat="43.06718350388109683990478515625" lon="-2.11617884226143360137939453125">
        <ele>263.20001220703125</ele>
        <time>2019-05-21T14:14:44.000Z</time>
      </trkpt>
      <trkpt lat="43.06714855134487152099609375" lon="-2.116177082061767578125">
        <ele>262.600006103515625</ele>
        <time>2019-05-21T14:14:46.000Z</time>
      </trkpt>
      <trkpt lat="43.06714410893619060516357421875" lon="-2.116169035434722900390625">
        <ele>262.600006103515625</ele>
        <time>2019-05-21T14:14:47.000Z</time>
      </trkpt>
      <trkpt lat="43.06713639758527278900146484375" lon="-2.1161286346614360809326171875">
        <ele>263.399993896484375</ele>
        <time>2019-05-21T14:14:51.000Z</time>
      </trkpt>
      <trkpt lat="43.067134805023670196533203125" lon="-2.11612536571919918060302734375">
        <ele>263.399993896484375</ele>
        <time>2019-05-21T14:14:56.000Z</time>
      </trkpt>
      <trkpt lat="43.06713514029979705810546875" lon="-2.11613056249916553497314453125">
        <ele>263.20001220703125</ele>
        <time>2019-05-21T14:15:00.000Z</time>
      </trkpt>
      <trkpt lat="43.06712114252150058746337890625" lon="-2.11612804792821407318115234375">
        <ele>263</ele>
        <time>2019-05-21T14:15:06.000Z</time>
      </trkpt>
      <trkpt lat="43.0670861899852752685546875" lon="-2.11615587584674358367919921875">
        <ele>261.79998779296875</ele>
        <time>2019-05-21T14:15:12.000Z</time>
      </trkpt>
      <trkpt lat="43.06699859909713268280029296875" lon="-2.1161718852818012237548828125">
        <ele>259.600006103515625</ele>
        <time>2019-05-21T14:15:16.000Z</time>
      </trkpt>
      <trkpt lat="43.0669609643518924713134765625" lon="-2.116152606904506683349609375">
        <ele>259.20001220703125</ele>
        <time>2019-05-21T14:15:19.000Z</time>
      </trkpt>
      <trkpt lat="43.0670927278697490692138671875" lon="-2.11607138626277446746826171875">
        <ele>263.600006103515625</ele>
        <time>2019-05-21T14:15:25.000Z</time>
      </trkpt>
      <trkpt lat="43.06711795739829540252685546875" lon="-2.11606082506477832794189453125">
        <ele>264.399993896484375</ele>
        <time>2019-05-21T14:15:26.000Z</time>
      </trkpt>
      <trkpt lat="43.06729473173618316650390625" lon="-2.115981280803680419921875">
        <ele>269.600006103515625</ele>
        <time>2019-05-21T14:15:33.000Z</time>
      </trkpt>
      <trkpt lat="43.0673673190176486968994140625" lon="-2.11598471738398075103759765625">
        <ele>271</ele>
        <time>2019-05-21T14:15:36.000Z</time>
      </trkpt>
      <trkpt lat="43.067633695900440216064453125" lon="-2.11595118977129459381103515625">
        <ele>274.399993896484375</ele>
        <time>2019-05-21T14:15:46.000Z</time>
      </trkpt>
      <trkpt lat="43.06788557209074497222900390625" lon="-2.11585798300802707672119140625">
        <ele>278</ele>
        <time>2019-05-21T14:15:56.000Z</time>
      </trkpt>
      <trkpt lat="43.06797274388372898101806640625" lon="-2.11575672961771488189697265625">
        <ele>281.20001220703125</ele>
        <time>2019-05-21T14:16:02.000Z</time>
      </trkpt>
      <trkpt lat="43.06797609664499759674072265625" lon="-2.1157289855182170867919921875">
        <ele>281.600006103515625</ele>
        <time>2019-05-21T14:16:03.000Z</time>
      </trkpt>
      <trkpt lat="43.06796989403665065765380859375" lon="-2.11570023559033870697021484375">
        <ele>282</ele>
        <time>2019-05-21T14:16:04.000Z</time>
      </trkpt>
      <trkpt lat="43.06795656681060791015625" lon="-2.11567508988082408905029296875">
        <ele>282.399993896484375</ele>
        <time>2019-05-21T14:16:05.000Z</time>
      </trkpt>
      <trkpt lat="43.0679362826049327850341796875" lon="-2.1156582422554492950439453125">
        <ele>282.600006103515625</ele>
        <time>2019-05-21T14:16:06.000Z</time>
      </trkpt>
      <trkpt lat="43.0679123103618621826171875" lon="-2.11564935743808746337890625">
        <ele>282.79998779296875</ele>
        <time>2019-05-21T14:16:07.000Z</time>
      </trkpt>
      <trkpt lat="43.06769169867038726806640625" lon="-2.115616500377655029296875">
        <ele>283</ele>
        <time>2019-05-21T14:16:16.000Z</time>
      </trkpt>
      <trkpt lat="43.06756454519927501678466796875" lon="-2.11558272130787372589111328125">
        <ele>283.20001220703125</ele>
        <time>2019-05-21T14:16:21.000Z</time>
      </trkpt>
      <trkpt lat="43.06744686327874660491943359375" lon="-2.115519605576992034912109375">
        <ele>282</ele>
        <time>2019-05-21T14:16:26.000Z</time>
      </trkpt>
      <trkpt lat="43.0674092285335063934326171875" lon="-2.1154718287289142608642578125">
        <ele>282.20001220703125</ele>
        <time>2019-05-21T14:16:28.000Z</time>
      </trkpt>
      <trkpt lat="43.0673710070550441741943359375" lon="-2.11537501774728298187255859375">
        <ele>283.399993896484375</ele>
        <time>2019-05-21T14:16:31.000Z</time>
      </trkpt>
      <trkpt lat="43.06731945835053920745849609375" lon="-2.11521442048251628875732421875">
        <ele>285.600006103515625</ele>
        <time>2019-05-21T14:16:36.000Z</time>
      </trkpt>
      <trkpt lat="43.06724050082266330718994140625" lon="-2.11485902778804302215576171875">
        <ele>287.20001220703125</ele>
        <time>2019-05-21T14:16:46.000Z</time>
      </trkpt>
      <trkpt lat="43.0671389959752559661865234375" lon="-2.11445284076035022735595703125">
        <ele>288.20001220703125</ele>
        <time>2019-05-21T14:16:56.000Z</time>
      </trkpt>
      <trkpt lat="43.06709934957325458526611328125" lon="-2.11403609253466129302978515625">
        <ele>291</ele>
        <time>2019-05-21T14:17:06.000Z</time>
      </trkpt>
      <trkpt lat="43.067134134471416473388671875" lon="-2.11377457715570926666259765625">
        <ele>296.600006103515625</ele>
        <time>2019-05-21T14:17:13.000Z</time>
      </trkpt>
      <trkpt lat="43.0671587772667407989501953125" lon="-2.113674245774745941162109375">
        <ele>298.79998779296875</ele>
        <time>2019-05-21T14:17:16.000Z</time>
      </trkpt>
      <trkpt lat="43.06722943671047687530517578125" lon="-2.11340527050197124481201171875">
        <ele>303.600006103515625</ele>
        <time>2019-05-21T14:17:24.000Z</time>
      </trkpt>
      <trkpt lat="43.06723798625171184539794921875" lon="-2.11333419196307659149169921875">
        <ele>304.600006103515625</ele>
        <time>2019-05-21T14:17:26.000Z</time>
      </trkpt>
      <trkpt lat="43.06735868565738201141357421875" lon="-2.11304367519915103912353515625">
        <ele>312</ele>
        <time>2019-05-21T14:17:36.000Z</time>
      </trkpt>
      <trkpt lat="43.06751375086605548858642578125" lon="-2.11301266215741634368896484375">
        <ele>318.79998779296875</ele>
        <time>2019-05-21T14:17:42.000Z</time>
      </trkpt>
      <trkpt lat="43.06758868508040904998779296875" lon="-2.1129666455090045928955078125">
        <ele>322.20001220703125</ele>
        <time>2019-05-21T14:17:46.000Z</time>
      </trkpt>
      <trkpt lat="43.06772698648273944854736328125" lon="-2.11267554201185703277587890625">
        <ele>321.399993896484375</ele>
        <time>2019-05-21T14:17:54.000Z</time>
      </trkpt>
      <trkpt lat="43.0677297525107860565185546875" lon="-2.1125676669180393218994140625">
        <ele>322.399993896484375</ele>
        <time>2019-05-21T14:17:56.000Z</time>
      </trkpt>
      <trkpt lat="43.06770318187773227691650390625" lon="-2.11212736554443836212158203125">
        <ele>327.600006103515625</ele>
        <time>2019-05-21T14:18:05.000Z</time>
      </trkpt>
      <trkpt lat="43.0677002482116222381591796875" lon="-2.11207355372607707977294921875">
        <ele>328.20001220703125</ele>
        <time>2019-05-21T14:18:06.000Z</time>
      </trkpt>
      <trkpt lat="43.0676965601742267608642578125" lon="-2.11201940663158893585205078125">
        <ele>329</ele>
        <time>2019-05-21T14:18:07.000Z</time>
      </trkpt>
      <trkpt lat="43.0676881782710552215576171875" lon="-2.11191027425229549407958984375">
        <ele>330.399993896484375</ele>
        <time>2019-05-21T14:18:09.000Z</time>
      </trkpt>
      <trkpt lat="43.0676821433007717132568359375" lon="-2.11166066117584705352783203125">
        <ele>333.20001220703125</ele>
        <time>2019-05-21T14:18:14.000Z</time>
      </trkpt>
      <trkpt lat="43.0676784552633762359619140625" lon="-2.11157985962927341461181640625">
        <ele>334.20001220703125</ele>
        <time>2019-05-21T14:18:16.000Z</time>
      </trkpt>
      <trkpt lat="43.067675940692424774169921875" lon="-2.11154230870306491851806640625">
        <ele>334.79998779296875</ele>
        <time>2019-05-21T14:18:17.000Z</time>
      </trkpt>
      <trkpt lat="43.06767971254885196685791015625" lon="-2.1112061105668544769287109375">
        <ele>338.20001220703125</ele>
        <time>2019-05-21T14:18:26.000Z</time>
      </trkpt>
      <trkpt lat="43.06771826930344104766845703125" lon="-2.11099044419825077056884765625">
        <ele>339.399993896484375</ele>
        <time>2019-05-21T14:18:32.000Z</time>
      </trkpt>
      <trkpt lat="43.0677505396306514739990234375" lon="-2.11085197515785694122314453125">
        <ele>340.20001220703125</ele>
        <time>2019-05-21T14:18:36.000Z</time>
      </trkpt>
      <trkpt lat="43.067759759724140167236328125" lon="-2.1106032840907573699951171875">
        <ele>344.399993896484375</ele>
        <time>2019-05-21T14:18:43.000Z</time>
      </trkpt>
      <trkpt lat="43.06776202283799648284912109375" lon="-2.11050194688141345977783203125">
        <ele>345.79998779296875</ele>
        <time>2019-05-21T14:18:46.000Z</time>
      </trkpt>
      <trkpt lat="43.06778825819492340087890625" lon="-2.11018159054219722747802734375">
        <ele>349.600006103515625</ele>
        <time>2019-05-21T14:18:56.000Z</time>
      </trkpt>
      <trkpt lat="43.06784181855618953704833984375" lon="-2.10998713038861751556396484375">
        <ele>351.600006103515625</ele>
        <time>2019-05-21T14:19:03.000Z</time>
      </trkpt>
      <trkpt lat="43.06783461011946201324462890625" lon="-2.10995980538427829742431640625">
        <ele>352</ele>
        <time>2019-05-21T14:19:04.000Z</time>
      </trkpt>
      <trkpt lat="43.06779739446938037872314453125" lon="-2.10992208682000637054443359375">
        <ele>353</ele>
        <time>2019-05-21T14:19:06.000Z</time>
      </trkpt>
      <trkpt lat="43.06774341501295566558837890625" lon="-2.10993063636124134063720703125">
        <ele>353.399993896484375</ele>
        <time>2019-05-21T14:19:08.000Z</time>
      </trkpt>
      <trkpt lat="43.0676333606243133544921875" lon="-2.10999752394855022430419921875">
        <ele>353.79998779296875</ele>
        <time>2019-05-21T14:19:13.000Z</time>
      </trkpt>
      <trkpt lat="43.0675651319324970245361328125" lon="-2.11001344956457614898681640625">
        <ele>353.600006103515625</ele>
        <time>2019-05-21T14:19:16.000Z</time>
      </trkpt>
      <trkpt lat="43.067517690360546112060546875" lon="-2.1100148744881153106689453125">
        <ele>353.20001220703125</ele>
        <time>2019-05-21T14:19:18.000Z</time>
      </trkpt>
      <trkpt lat="43.06742884218692779541015625" lon="-2.10999316535890102386474609375">
        <ele>353.399993896484375</ele>
        <time>2019-05-21T14:19:22.000Z</time>
      </trkpt>
      <trkpt lat="43.0673517286777496337890625" lon="-2.1099494956433773040771484375">
        <ele>354.399993896484375</ele>
        <time>2019-05-21T14:19:26.000Z</time>
      </trkpt>
      <trkpt lat="43.06713790632784366607666015625" lon="-2.10977666079998016357421875">
        <ele>357.600006103515625</ele>
        <time>2019-05-21T14:19:36.000Z</time>
      </trkpt>
      <trkpt lat="43.06698284111917018890380859375" lon="-2.10955663584172725677490234375">
        <ele>361.20001220703125</ele>
        <time>2019-05-21T14:19:46.000Z</time>
      </trkpt>
      <trkpt lat="43.0669921450316905975341796875" lon="-2.1094965375959873199462890625">
        <ele>362.20001220703125</ele>
        <time>2019-05-21T14:19:48.000Z</time>
      </trkpt>
      <trkpt lat="43.06718073785305023193359375" lon="-2.10938111878931522369384765625">
        <ele>365.20001220703125</ele>
        <time>2019-05-21T14:19:56.000Z</time>
      </trkpt>
      <trkpt lat="43.067371509969234466552734375" lon="-2.10920191369950771331787109375">
        <ele>369</ele>
        <time>2019-05-21T14:20:06.000Z</time>
      </trkpt>
      <trkpt lat="43.06752162985503673553466796875" lon="-2.108960263431072235107421875">
        <ele>373.600006103515625</ele>
        <time>2019-05-21T14:20:16.000Z</time>
      </trkpt>
      <trkpt lat="43.0676754377782344818115234375" lon="-2.1087083034217357635498046875">
        <ele>377.20001220703125</ele>
        <time>2019-05-21T14:20:26.000Z</time>
      </trkpt>
      <trkpt lat="43.06781751103699207305908203125" lon="-2.10848174057900905609130859375">
        <ele>379.600006103515625</ele>
        <time>2019-05-21T14:20:36.000Z</time>
      </trkpt>
      <trkpt lat="43.0679659545421600341796875" lon="-2.1082332171499729156494140625">
        <ele>382.20001220703125</ele>
        <time>2019-05-21T14:20:46.000Z</time>
      </trkpt>
      <trkpt lat="43.06811012327671051025390625" lon="-2.10798762738704681396484375">
        <ele>385</ele>
        <time>2019-05-21T14:20:56.000Z</time>
      </trkpt>
      <trkpt lat="43.0681863985955715179443359375" lon="-2.1078007109463214874267578125">
        <ele>387.20001220703125</ele>
        <time>2019-05-21T14:21:05.000Z</time>
      </trkpt>
      <trkpt lat="43.0681964568793773651123046875" lon="-2.10777916945517063140869140625">
        <ele>387.399993896484375</ele>
        <time>2019-05-21T14:21:06.000Z</time>
      </trkpt>
      <trkpt lat="43.0682393722236156463623046875" lon="-2.1076233498752117156982421875">
        <ele>389.399993896484375</ele>
        <time>2019-05-21T14:21:12.000Z</time>
      </trkpt>
      <trkpt lat="43.0682816170156002044677734375" lon="-2.10752000100910663604736328125">
        <ele>391</ele>
        <time>2019-05-21T14:21:16.000Z</time>
      </trkpt>
      <trkpt lat="43.06831908412277698516845703125" lon="-2.10723526775836944580078125">
        <ele>392.79998779296875</ele>
        <time>2019-05-21T14:21:26.000Z</time>
      </trkpt>
      <trkpt lat="43.0683092772960662841796875" lon="-2.10702513344585895538330078125">
        <ele>393.79998779296875</ele>
        <time>2019-05-21T14:21:32.000Z</time>
      </trkpt>
      <trkpt lat="43.068284131586551666259765625" lon="-2.10687526501715183258056640625">
        <ele>394.600006103515625</ele>
        <time>2019-05-21T14:21:36.000Z</time>
      </trkpt>
      <trkpt lat="43.06827767752110958099365234375" lon="-2.10683469660580158233642578125">
        <ele>394.79998779296875</ele>
        <time>2019-05-21T14:21:37.000Z</time>
      </trkpt>
      <trkpt lat="43.06820743717253208160400390625" lon="-2.10648014210164546966552734375">
        <ele>396.79998779296875</ele>
        <time>2019-05-21T14:21:46.000Z</time>
      </trkpt>
      <trkpt lat="43.06816955097019672393798828125" lon="-2.10624729283154010772705078125">
        <ele>397</ele>
        <time>2019-05-21T14:21:53.000Z</time>
      </trkpt>
      <trkpt lat="43.06816167198121547698974609375" lon="-2.10614369250833988189697265625">
        <ele>397</ele>
        <time>2019-05-21T14:21:56.000Z</time>
      </trkpt>
      <trkpt lat="43.0683305673301219940185546875" lon="-2.10584814660251140594482421875">
        <ele>394.20001220703125</ele>
        <time>2019-05-21T14:22:04.000Z</time>
      </trkpt>
      <trkpt lat="43.068392090499401092529296875" lon="-2.10577078163623809814453125">
        <ele>393</ele>
        <time>2019-05-21T14:22:06.000Z</time>
      </trkpt>
      <trkpt lat="43.0685748159885406494140625" lon="-2.10552535951137542724609375">
        <ele>393</ele>
        <time>2019-05-21T14:22:12.000Z</time>
      </trkpt>
      <trkpt lat="43.0686822719871997833251953125" lon="-2.10535948164761066436767578125">
        <ele>393</ele>
        <time>2019-05-21T14:22:16.000Z</time>
      </trkpt>
      <trkpt lat="43.06873147375881671905517578125" lon="-2.10527298040688037872314453125">
        <ele>393</ele>
        <time>2019-05-21T14:22:18.000Z</time>
      </trkpt>
      <trkpt lat="43.06883390061557292938232421875" lon="-2.10509344004094600677490234375">
        <ele>392.79998779296875</ele>
        <time>2019-05-21T14:22:22.000Z</time>
      </trkpt>
      <trkpt lat="43.06888603605329990386962890625" lon="-2.1050028316676616668701171875">
        <ele>392.79998779296875</ele>
        <time>2019-05-21T14:22:24.000Z</time>
      </trkpt>
      <trkpt lat="43.0689404346048831939697265625" lon="-2.104905433952808380126953125">
        <ele>393</ele>
        <time>2019-05-21T14:22:26.000Z</time>
      </trkpt>
      <trkpt lat="43.068970777094364166259765625" lon="-2.10485137067735195159912109375">
        <ele>393.399993896484375</ele>
        <time>2019-05-21T14:22:27.000Z</time>
      </trkpt>
      <trkpt lat="43.0690339766442775726318359375" lon="-2.104745171964168548583984375">
        <ele>394</ele>
        <time>2019-05-21T14:22:29.000Z</time>
      </trkpt>
      <trkpt lat="43.06918661110103130340576171875" lon="-2.1044875122606754302978515625">
        <ele>395.79998779296875</ele>
        <time>2019-05-21T14:22:34.000Z</time>
      </trkpt>
      <trkpt lat="43.06924897246062755584716796875" lon="-2.10439187474548816680908203125">
        <ele>396.600006103515625</ele>
        <time>2019-05-21T14:22:36.000Z</time>
      </trkpt>
      <trkpt lat="43.06928065605461597442626953125" lon="-2.10434652864933013916015625">
        <ele>396.79998779296875</ele>
        <time>2019-05-21T14:22:37.000Z</time>
      </trkpt>
      <trkpt lat="43.06934368796646595001220703125" lon="-2.1042588539421558380126953125">
        <ele>396.79998779296875</ele>
        <time>2019-05-21T14:22:39.000Z</time>
      </trkpt>
      <trkpt lat="43.069378472864627838134765625" lon="-2.1042184531688690185546875">
        <ele>396.79998779296875</ele>
        <time>2019-05-21T14:22:40.000Z</time>
      </trkpt>
      <trkpt lat="43.06941359303891658782958984375" lon="-2.10417863912880420684814453125">
        <ele>396.79998779296875</ele>
        <time>2019-05-21T14:22:41.000Z</time>
      </trkpt>
      <trkpt lat="43.0694933049380779266357421875" lon="-2.10411183536052703857421875">
        <ele>396.79998779296875</ele>
        <time>2019-05-21T14:22:43.000Z</time>
      </trkpt>
      <trkpt lat="43.069546110928058624267578125" lon="-2.10406816564500331878662109375">
        <ele>396.20001220703125</ele>
        <time>2019-05-21T14:22:44.000Z</time>
      </trkpt>
      <trkpt lat="43.0696342885494232177734375" lon="-2.1040201373398303985595703125">
        <ele>395</ele>
        <time>2019-05-21T14:22:46.000Z</time>
      </trkpt>
      <trkpt lat="43.06967996992170810699462890625" lon="-2.10400312207639217376708984375">
        <ele>394.600006103515625</ele>
        <time>2019-05-21T14:22:47.000Z</time>
      </trkpt>
      <trkpt lat="43.06972774676978588104248046875" lon="-2.10398686118423938751220703125">
        <ele>394.20001220703125</ele>
        <time>2019-05-21T14:22:48.000Z</time>
      </trkpt>
      <trkpt lat="43.06977418251335620880126953125" lon="-2.1039698459208011627197265625">
        <ele>393.600006103515625</ele>
        <time>2019-05-21T14:22:49.000Z</time>
      </trkpt>
      <trkpt lat="43.0698208697140216827392578125" lon="-2.1039529144763946533203125">
        <ele>393.20001220703125</ele>
        <time>2019-05-21T14:22:50.000Z</time>
      </trkpt>
      <trkpt lat="43.0698678083717823028564453125" lon="-2.10393740795552730560302734375">
        <ele>392.79998779296875</ele>
        <time>2019-05-21T14:22:51.000Z</time>
      </trkpt>
      <trkpt lat="43.06991365738213062286376953125" lon="-2.1039222367107868194580078125">
        <ele>392.399993896484375</ele>
        <time>2019-05-21T14:22:52.000Z</time>
      </trkpt>
      <trkpt lat="43.06996042840182781219482421875" lon="-2.103904969990253448486328125">
        <ele>391.79998779296875</ele>
        <time>2019-05-21T14:22:53.000Z</time>
      </trkpt>
      <trkpt lat="43.0701041780412197113037109375" lon="-2.10384906269609928131103515625">
        <ele>390.399993896484375</ele>
        <time>2019-05-21T14:22:56.000Z</time>
      </trkpt>
      <trkpt lat="43.07061874307692050933837890625" lon="-2.103700451552867889404296875">
        <ele>392</ele>
        <time>2019-05-21T14:23:06.000Z</time>
      </trkpt>
      <trkpt lat="43.07119592092931270599365234375" lon="-2.10347841493785381317138671875">
        <ele>392.399993896484375</ele>
        <time>2019-05-21T14:23:16.000Z</time>
      </trkpt>
      <trkpt lat="43.07147604413330554962158203125" lon="-2.103415466845035552978515625">
        <ele>393.79998779296875</ele>
        <time>2019-05-21T14:23:20.000Z</time>
      </trkpt>
      <trkpt lat="43.07171124033629894256591796875" lon="-2.10339208133518695831298828125">
        <ele>395.600006103515625</ele>
        <time>2019-05-21T14:23:23.000Z</time>
      </trkpt>
      <trkpt lat="43.07196437381207942962646484375" lon="-2.1033467352390289306640625">
        <ele>396.20001220703125</ele>
        <time>2019-05-21T14:23:26.000Z</time>
      </trkpt>
      <trkpt lat="43.0722895078361034393310546875" lon="-2.10316895507276058197021484375">
        <ele>394.20001220703125</ele>
        <time>2019-05-21T14:23:30.000Z</time>
      </trkpt>
      <trkpt lat="43.07253308594226837158203125" lon="-2.1028902567923069000244140625">
        <ele>388.79998779296875</ele>
        <time>2019-05-21T14:23:34.000Z</time>
      </trkpt>
      <trkpt lat="43.07268203236162662506103515625" lon="-2.1028637699782848358154296875">
        <ele>387.20001220703125</ele>
        <time>2019-05-21T14:23:36.000Z</time>
      </trkpt>
      <trkpt lat="43.07281580753624439239501953125" lon="-2.10292688570916652679443359375">
        <ele>387</ele>
        <time>2019-05-21T14:23:38.000Z</time>
      </trkpt>
      <trkpt lat="43.07293080724775791168212890625" lon="-2.10310357622802257537841796875">
        <ele>388.399993896484375</ele>
        <time>2019-05-21T14:23:40.000Z</time>
      </trkpt>
      <trkpt lat="43.07322601787745952606201171875" lon="-2.1036194823682308197021484375">
        <ele>387.79998779296875</ele>
        <time>2019-05-21T14:23:45.000Z</time>
      </trkpt>
      <trkpt lat="43.07328879833221435546875" lon="-2.10372165776789188385009765625">
        <ele>386.79998779296875</ele>
        <time>2019-05-21T14:23:46.000Z</time>
      </trkpt>
      <trkpt lat="43.07348820380866527557373046875" lon="-2.1040241606533527374267578125">
        <ele>382.20001220703125</ele>
        <time>2019-05-21T14:23:49.000Z</time>
      </trkpt>
      <trkpt lat="43.073846362531185150146484375" lon="-2.1045545674860477447509765625">
        <ele>374</ele>
        <time>2019-05-21T14:23:54.000Z</time>
      </trkpt>
      <trkpt lat="43.07403436861932277679443359375" lon="-2.1046866662800312042236328125">
        <ele>374</ele>
        <time>2019-05-21T14:23:56.000Z</time>
      </trkpt>
      <trkpt lat="43.0741952173411846160888671875" lon="-2.1047322638332843780517578125">
        <ele>373</ele>
        <time>2019-05-21T14:23:58.000Z</time>
      </trkpt>
      <trkpt lat="43.074254728853702545166015625" lon="-2.10473285056650638580322265625">
        <ele>372.399993896484375</ele>
        <time>2019-05-21T14:23:59.000Z</time>
      </trkpt>
      <trkpt lat="43.07428163476288318634033203125" lon="-2.1047253906726837158203125">
        <ele>372.20001220703125</ele>
        <time>2019-05-21T14:24:00.000Z</time>
      </trkpt>
      <trkpt lat="43.074302338063716888427734375" lon="-2.10472094826400279998779296875">
        <ele>372</ele>
        <time>2019-05-21T14:24:01.000Z</time>
      </trkpt>
      <trkpt lat="43.07430510409176349639892578125" lon="-2.10472748614847660064697265625">
        <ele>372</ele>
        <time>2019-05-21T14:24:02.000Z</time>
      </trkpt>
      <trkpt lat="43.07425833307206630706787109375" lon="-2.10473536513745784759521484375">
        <ele>372.399993896484375</ele>
        <time>2019-05-21T14:24:04.000Z</time>
      </trkpt>
      <trkpt lat="43.07419362477958202362060546875" lon="-2.10472463630139827728271484375">
        <ele>373</ele>
        <time>2019-05-21T14:24:06.000Z</time>
      </trkpt>
      <trkpt lat="43.0741606839001178741455078125" lon="-2.104712314903736114501953125">
        <ele>373</ele>
        <time>2019-05-21T14:24:07.000Z</time>
      </trkpt>
      <trkpt lat="43.07412656955420970916748046875" lon="-2.1046990714967250823974609375">
        <ele>373.20001220703125</ele>
        <time>2019-05-21T14:24:08.000Z</time>
      </trkpt>
      <trkpt lat="43.07409186847507953643798828125" lon="-2.10468607954680919647216796875">
        <ele>373.399993896484375</ele>
        <time>2019-05-21T14:24:09.000Z</time>
      </trkpt>
      <trkpt lat="43.0739628709852695465087890625" lon="-2.10454861633479595184326171875">
        <ele>372.79998779296875</ele>
        <time>2019-05-21T14:24:14.000Z</time>
      </trkpt>
      <trkpt lat="43.073897659778594970703125" lon="-2.104469574987888336181640625">
        <ele>372.399993896484375</ele>
        <time>2019-05-21T14:24:16.000Z</time>
      </trkpt>
      <trkpt lat="43.07381878606975078582763671875" lon="-2.10438399575650691986083984375">
        <ele>374.600006103515625</ele>
        <time>2019-05-21T14:24:18.000Z</time>
      </trkpt>
      <trkpt lat="43.0737486295402050018310546875" lon="-2.1042774617671966552734375">
        <ele>376.600006103515625</ele>
        <time>2019-05-21T14:24:20.000Z</time>
      </trkpt>
      <trkpt lat="43.0737194605171680450439453125" lon="-2.1042206324636936187744140625">
        <ele>377.399993896484375</ele>
        <time>2019-05-21T14:24:21.000Z</time>
      </trkpt>
      <trkpt lat="43.07369389571249485015869140625" lon="-2.104160785675048828125">
        <ele>378.20001220703125</ele>
        <time>2019-05-21T14:24:22.000Z</time>
      </trkpt>
      <trkpt lat="43.07367076165974140167236328125" lon="-2.10409817285835742950439453125">
        <ele>378.79998779296875</ele>
        <time>2019-05-21T14:24:23.000Z</time>
      </trkpt>
      <trkpt lat="43.07359716854989528656005859375" lon="-2.1039158664643764495849609375">
        <ele>377.20001220703125</ele>
        <time>2019-05-21T14:24:26.000Z</time>
      </trkpt>
      <trkpt lat="43.07356975972652435302734375" lon="-2.1038590371608734130859375">
        <ele>378.20001220703125</ele>
        <time>2019-05-21T14:24:27.000Z</time>
      </trkpt>
      <trkpt lat="43.073425926268100738525390625" lon="-2.10360632278025150299072265625">
        <ele>383.20001220703125</ele>
        <time>2019-05-21T14:24:32.000Z</time>
      </trkpt>
      <trkpt lat="43.0733597092330455780029296875" lon="-2.1034830249845981597900390625">
        <ele>384.399993896484375</ele>
        <time>2019-05-21T14:24:34.000Z</time>
      </trkpt>
      <trkpt lat="43.07333313859999179840087890625" lon="-2.10340817458927631378173828125">
        <ele>384.600006103515625</ele>
        <time>2019-05-21T14:24:35.000Z</time>
      </trkpt>
      <trkpt lat="43.07331503368914127349853515625" lon="-2.1033267863094806671142578125">
        <ele>384.600006103515625</ele>
        <time>2019-05-21T14:24:36.000Z</time>
      </trkpt>
      <trkpt lat="43.07330824434757232666015625" lon="-2.10323701612651348114013671875">
        <ele>383.79998779296875</ele>
        <time>2019-05-21T14:24:37.000Z</time>
      </trkpt>
      <trkpt lat="43.07332408614456653594970703125" lon="-2.1030401252210140228271484375">
        <ele>380.399993896484375</ele>
        <time>2019-05-21T14:24:39.000Z</time>
      </trkpt>
      <trkpt lat="43.07339114136993885040283203125" lon="-2.10264424793422222137451171875">
        <ele>373</ele>
        <time>2019-05-21T14:24:43.000Z</time>
      </trkpt>
      <trkpt lat="43.07342198677361011505126953125" lon="-2.10226236842572689056396484375">
        <ele>367.399993896484375</ele>
        <time>2019-05-21T14:24:46.000Z</time>
      </trkpt>
      <trkpt lat="43.07339399121701717376708984375" lon="-2.1017258428037166595458984375">
        <ele>362.600006103515625</ele>
        <time>2019-05-21T14:24:50.000Z</time>
      </trkpt>
      <trkpt lat="43.0733365751802921295166015625" lon="-2.10137036629021167755126953125">
        <ele>358.79998779296875</ele>
        <time>2019-05-21T14:24:53.000Z</time>
      </trkpt>
      <trkpt lat="43.07320942170917987823486328125" lon="-2.10104682482779026031494140625">
        <ele>355.79998779296875</ele>
        <time>2019-05-21T14:24:56.000Z</time>
      </trkpt>
      <trkpt lat="43.07309274561703205108642578125" lon="-2.1007451601326465606689453125">
        <ele>346.399993896484375</ele>
        <time>2019-05-21T14:24:59.000Z</time>
      </trkpt>
      <trkpt lat="43.07305050082504749298095703125" lon="-2.100549526512622833251953125">
        <ele>343</ele>
        <time>2019-05-21T14:25:01.000Z</time>
      </trkpt>
      <trkpt lat="43.07304530404508113861083984375" lon="-2.10033687762916088104248046875">
        <ele>340.20001220703125</ele>
        <time>2019-05-21T14:25:03.000Z</time>
      </trkpt>
      <trkpt lat="43.0731042288243770599365234375" lon="-2.10011878050863742828369140625">
        <ele>339.20001220703125</ele>
        <time>2019-05-21T14:25:05.000Z</time>
      </trkpt>
      <trkpt lat="43.07315527461469173431396484375" lon="-2.100014425814151763916015625">
        <ele>339.399993896484375</ele>
        <time>2019-05-21T14:25:06.000Z</time>
      </trkpt>
      <trkpt lat="43.07321612723171710968017578125" lon="-2.099919877946376800537109375">
        <ele>340</ele>
        <time>2019-05-21T14:25:07.000Z</time>
      </trkpt>
      <trkpt lat="43.07337437756359577178955078125" lon="-2.09975768812000751495361328125">
        <ele>342</ele>
        <time>2019-05-21T14:25:09.000Z</time>
      </trkpt>
      <trkpt lat="43.07346289046108722686767578125" lon="-2.0996964164078235626220703125">
        <ele>342.399993896484375</ele>
        <time>2019-05-21T14:25:10.000Z</time>
      </trkpt>
      <trkpt lat="43.07355056516826152801513671875" lon="-2.09964872337877750396728515625">
        <ele>341</ele>
        <time>2019-05-21T14:25:11.000Z</time>
      </trkpt>
      <trkpt lat="43.07372222654521465301513671875" lon="-2.09961066953837871551513671875">
        <ele>339.20001220703125</ele>
        <time>2019-05-21T14:25:13.000Z</time>
      </trkpt>
      <trkpt lat="43.07394183240830898284912109375" lon="-2.09969515912234783172607421875">
        <ele>336.20001220703125</ele>
        <time>2019-05-21T14:25:16.000Z</time>
      </trkpt>
      <trkpt lat="43.0740383081138134002685546875" lon="-2.099593989551067352294921875">
        <ele>334.20001220703125</ele>
        <time>2019-05-21T14:25:18.000Z</time>
      </trkpt>
      <trkpt lat="43.07405230589210987091064453125" lon="-2.0993815921247005462646484375">
        <ele>332.79998779296875</ele>
        <time>2019-05-21T14:25:20.000Z</time>
      </trkpt>
      <trkpt lat="43.0739794671535491943359375" lon="-2.09887943230569362640380859375">
        <ele>327.600006103515625</ele>
        <time>2019-05-21T14:25:24.000Z</time>
      </trkpt>
      <trkpt lat="43.07400721125304698944091796875" lon="-2.09860534407198429107666015625">
        <ele>324.600006103515625</ele>
        <time>2019-05-21T14:25:26.000Z</time>
      </trkpt>
      <trkpt lat="43.07424341328442096710205078125" lon="-2.0978859253227710723876953125">
        <ele>317.20001220703125</ele>
        <time>2019-05-21T14:25:31.000Z</time>
      </trkpt>
      <trkpt lat="43.074383474886417388916015625" lon="-2.09736214019358158111572265625">
        <ele>314.20001220703125</ele>
        <time>2019-05-21T14:25:35.000Z</time>
      </trkpt>
      <trkpt lat="43.07442278601229190826416015625" lon="-2.09724177606403827667236328125">
        <ele>313.600006103515625</ele>
        <time>2019-05-21T14:25:36.000Z</time>
      </trkpt>
      <trkpt lat="43.07451800443232059478759765625" lon="-2.09703147411346435546875">
        <ele>311.600006103515625</ele>
        <time>2019-05-21T14:25:38.000Z</time>
      </trkpt>
      <trkpt lat="43.0747058428823947906494140625" lon="-2.09672637283802032470703125">
        <ele>309</ele>
        <time>2019-05-21T14:25:42.000Z</time>
      </trkpt>
      <trkpt lat="43.0747722275555133819580078125" lon="-2.096540629863739013671875">
        <ele>307.399993896484375</ele>
        <time>2019-05-21T14:25:44.000Z</time>
      </trkpt>
      <trkpt lat="43.07483148761093616485595703125" lon="-2.09633284248411655426025390625">
        <ele>305.79998779296875</ele>
        <time>2019-05-21T14:25:46.000Z</time>
      </trkpt>
      <trkpt lat="43.0750679410994052886962890625" lon="-2.095525749027729034423828125">
        <ele>299</ele>
        <time>2019-05-21T14:25:52.000Z</time>
      </trkpt>
      <trkpt lat="43.07512812316417694091796875" lon="-2.09540580399334430694580078125">
        <ele>298.399993896484375</ele>
        <time>2019-05-21T14:25:53.000Z</time>
      </trkpt>
      <trkpt lat="43.07527430355548858642578125" lon="-2.0952330529689788818359375">
        <ele>297.600006103515625</ele>
        <time>2019-05-21T14:25:55.000Z</time>
      </trkpt>
      <trkpt lat="43.0753616429865360260009765625" lon="-2.09517530165612697601318359375">
        <ele>297.600006103515625</ele>
        <time>2019-05-21T14:25:56.000Z</time>
      </trkpt>
      <trkpt lat="43.0755324661731719970703125" lon="-2.09505979903042316436767578125">
        <ele>297.600006103515625</ele>
        <time>2019-05-21T14:25:58.000Z</time>
      </trkpt>
      <trkpt lat="43.0756558477878570556640625" lon="-2.094888389110565185546875">
        <ele>297</ele>
        <time>2019-05-21T14:26:00.000Z</time>
      </trkpt>
      <trkpt lat="43.07580194436013698577880859375" lon="-2.094635926187038421630859375">
        <ele>298.399993896484375</ele>
        <time>2019-05-21T14:26:03.000Z</time>
      </trkpt>
      <trkpt lat="43.07589062489569187164306640625" lon="-2.0945073477923870086669921875">
        <ele>299.20001220703125</ele>
        <time>2019-05-21T14:26:05.000Z</time>
      </trkpt>
      <trkpt lat="43.07592415250837802886962890625" lon="-2.0944498479366302490234375">
        <ele>299.600006103515625</ele>
        <time>2019-05-21T14:26:06.000Z</time>
      </trkpt>
      <trkpt lat="43.07594326324760913848876953125" lon="-2.09440223872661590576171875">
        <ele>299.600006103515625</ele>
        <time>2019-05-21T14:26:07.000Z</time>
      </trkpt>
      <trkpt lat="43.07601367123425006866455078125" lon="-2.09429604001343250274658203125">
        <ele>299.399993896484375</ele>
        <time>2019-05-21T14:26:11.000Z</time>
      </trkpt>
      <trkpt lat="43.076217435300350189208984375" lon="-2.0943586528301239013671875">
        <ele>298.399993896484375</ele>
        <time>2019-05-21T14:26:16.000Z</time>
      </trkpt>
      <trkpt lat="43.0763909406960010528564453125" lon="-2.094400227069854736328125">
        <ele>297.399993896484375</ele>
        <time>2019-05-21T14:26:20.000Z</time>
      </trkpt>
      <trkpt lat="43.07665119878947734832763671875" lon="-2.0944208465516567230224609375">
        <ele>294.600006103515625</ele>
        <time>2019-05-21T14:26:25.000Z</time>
      </trkpt>
      <trkpt lat="43.0767064355313777923583984375" lon="-2.09441539831459522247314453125">
        <ele>294</ele>
        <time>2019-05-21T14:26:26.000Z</time>
      </trkpt>
      <trkpt lat="43.07689838111400604248046875" lon="-2.09439679048955440521240234375">
        <ele>291.79998779296875</ele>
        <time>2019-05-21T14:26:29.000Z</time>
      </trkpt>
      <trkpt lat="43.0770306475460529327392578125" lon="-2.09444247186183929443359375">
        <ele>289.79998779296875</ele>
        <time>2019-05-21T14:26:31.000Z</time>
      </trkpt>
      <trkpt lat="43.07712343521416187286376953125" lon="-2.09452151320874691009521484375">
        <ele>288.20001220703125</ele>
        <time>2019-05-21T14:26:33.000Z</time>
      </trkpt>
      <trkpt lat="43.07722619734704494476318359375" lon="-2.09470474161207675933837890625">
        <ele>286.20001220703125</ele>
        <time>2019-05-21T14:26:36.000Z</time>
      </trkpt>
      <trkpt lat="43.07755694724619388580322265625" lon="-2.09505493752658367156982421875">
        <ele>280.79998779296875</ele>
        <time>2019-05-21T14:26:44.000Z</time>
      </trkpt>
      <trkpt lat="43.07762886397540569305419921875" lon="-2.09511411376297473907470703125">
        <ele>278.600006103515625</ele>
        <time>2019-05-21T14:26:46.000Z</time>
      </trkpt>
      <trkpt lat="43.07783824391663074493408203125" lon="-2.09525509737432003021240234375">
        <ele>272.20001220703125</ele>
        <time>2019-05-21T14:26:51.000Z</time>
      </trkpt>
      <trkpt lat="43.07794452644884586334228515625" lon="-2.0952644012868404388427734375">
        <ele>269.600006103515625</ele>
        <time>2019-05-21T14:26:53.000Z</time>
      </trkpt>
      <trkpt lat="43.078060112893581390380859375" lon="-2.09521905519068241119384765625">
        <ele>267.79998779296875</ele>
        <time>2019-05-21T14:26:55.000Z</time>
      </trkpt>
      <trkpt lat="43.07811501435935497283935546875" lon="-2.09518133662641048431396484375">
        <ele>267.20001220703125</ele>
        <time>2019-05-21T14:26:56.000Z</time>
      </trkpt>
      <trkpt lat="43.07816706597805023193359375" lon="-2.0951339788734912872314453125">
        <ele>266.79998779296875</ele>
        <time>2019-05-21T14:26:57.000Z</time>
      </trkpt>
      <trkpt lat="43.0782668106257915496826171875" lon="-2.0950050652027130126953125">
        <ele>266.399993896484375</ele>
        <time>2019-05-21T14:26:59.000Z</time>
      </trkpt>
      <trkpt lat="43.07842162437736988067626953125" lon="-2.0945878140628337860107421875">
        <ele>263.399993896484375</ele>
        <time>2019-05-21T14:27:04.000Z</time>
      </trkpt>
      <trkpt lat="43.0784113146364688873291015625" lon="-2.09444808773696422576904296875">
        <ele>263.20001220703125</ele>
        <time>2019-05-21T14:27:06.000Z</time>
      </trkpt>
      <trkpt lat="43.07818374596536159515380859375" lon="-2.0937657169997692108154296875">
        <ele>266.600006103515625</ele>
        <time>2019-05-21T14:27:14.000Z</time>
      </trkpt>
      <trkpt lat="43.078135550022125244140625" lon="-2.093526162207126617431640625">
        <ele>266</ele>
        <time>2019-05-21T14:27:16.000Z</time>
      </trkpt>
      <trkpt lat="43.078119456768035888671875" lon="-2.093414179980754852294921875">
        <ele>264.20001220703125</ele>
        <time>2019-05-21T14:27:17.000Z</time>
      </trkpt>
      <trkpt lat="43.07813060469925403594970703125" lon="-2.09324218332767486572265625">
        <ele>261.20001220703125</ele>
        <time>2019-05-21T14:27:19.000Z</time>
      </trkpt>
      <trkpt lat="43.078170083463191986083984375" lon="-2.0931347273290157318115234375">
        <ele>260</ele>
        <time>2019-05-21T14:27:21.000Z</time>
      </trkpt>
      <trkpt lat="43.078189529478549957275390625" lon="-2.09309709258377552032470703125">
        <ele>259.600006103515625</ele>
        <time>2019-05-21T14:27:22.000Z</time>
      </trkpt>
      <trkpt lat="43.07820050977170467376708984375" lon="-2.09301075898110866546630859375">
        <ele>259</ele>
        <time>2019-05-21T14:27:24.000Z</time>
      </trkpt>
      <trkpt lat="43.0781799741089344024658203125" lon="-2.092966921627521514892578125">
        <ele>259</ele>
        <time>2019-05-21T14:27:25.000Z</time>
      </trkpt>
      <trkpt lat="43.07814653031527996063232421875" lon="-2.0929308794438838958740234375">
        <ele>259.399993896484375</ele>
        <time>2019-05-21T14:27:26.000Z</time>
      </trkpt>
      <trkpt lat="43.0779895372688770294189453125" lon="-2.09280506707727909088134765625">
        <ele>260.20001220703125</ele>
        <time>2019-05-21T14:27:31.000Z</time>
      </trkpt>
      <trkpt lat="43.07785190641880035400390625" lon="-2.092784531414508819580078125">
        <ele>258.600006103515625</ele>
        <time>2019-05-21T14:27:36.000Z</time>
      </trkpt>
      <trkpt lat="43.077623583376407623291015625" lon="-2.09269291721284389495849609375">
        <ele>254.600006103515625</ele>
        <time>2019-05-21T14:27:43.000Z</time>
      </trkpt>
      <trkpt lat="43.0775040574371814727783203125" lon="-2.0925986208021640777587890625">
        <ele>253.1999969482421875</ele>
        <time>2019-05-21T14:27:46.000Z</time>
      </trkpt>
      <trkpt lat="43.0772643350064754486083984375" lon="-2.0924784243106842041015625">
        <ele>255.8000030517578125</ele>
        <time>2019-05-21T14:27:56.000Z</time>
      </trkpt>
      <trkpt lat="43.07721613906323909759521484375" lon="-2.09229980595409870147705078125">
        <ele>254</ele>
        <time>2019-05-21T14:28:05.000Z</time>
      </trkpt>
      <trkpt lat="43.0772184021770954132080078125" lon="-2.092271558940410614013671875">
        <ele>253.600006103515625</ele>
        <time>2019-05-21T14:28:06.000Z</time>
      </trkpt>
      <trkpt lat="43.07721110992133617401123046875" lon="-2.09207701496779918670654296875">
        <ele>250.8000030517578125</ele>
        <time>2019-05-21T14:28:14.000Z</time>
      </trkpt>
      <trkpt lat="43.07720239274203777313232421875" lon="-2.09205270744860172271728515625">
        <ele>250.600006103515625</ele>
        <time>2019-05-21T14:28:15.000Z</time>
      </trkpt>
      <trkpt lat="43.07719476521015167236328125" lon="-2.09202923811972141265869140625">
        <ele>250.399993896484375</ele>
        <time>2019-05-21T14:28:16.000Z</time>
      </trkpt>
      <trkpt lat="43.0771114490926265716552734375" lon="-2.09162942133843898773193359375">
        <ele>244.399993896484375</ele>
        <time>2019-05-21T14:28:26.000Z</time>
      </trkpt>
      <trkpt lat="43.07711429893970489501953125" lon="-2.091439403593540191650390625">
        <ele>242.1999969482421875</ele>
        <time>2019-05-21T14:28:29.000Z</time>
      </trkpt>
      <trkpt lat="43.07708504609763622283935546875" lon="-2.0912977494299411773681640625">
        <ele>241.1999969482421875</ele>
        <time>2019-05-21T14:28:31.000Z</time>
      </trkpt>
      <trkpt lat="43.0770236067473888397216796875" lon="-2.091189287602901458740234375">
        <ele>241</ele>
        <time>2019-05-21T14:28:33.000Z</time>
      </trkpt>
      <trkpt lat="43.07692126370966434478759765625" lon="-2.0910627208650112152099609375">
        <ele>241.600006103515625</ele>
        <time>2019-05-21T14:28:36.000Z</time>
      </trkpt>
      <trkpt lat="43.07688455097377300262451171875" lon="-2.09102667868137359619140625">
        <ele>241.8000030517578125</ele>
        <time>2019-05-21T14:28:37.000Z</time>
      </trkpt>
      <trkpt lat="43.07649739086627960205078125" lon="-2.09075200371444225311279296875">
        <ele>237</ele>
        <time>2019-05-21T14:28:46.000Z</time>
      </trkpt>
      <trkpt lat="43.07645372115075588226318359375" lon="-2.0907277800142765045166015625">
        <ele>235.399993896484375</ele>
        <time>2019-05-21T14:28:47.000Z</time>
      </trkpt>
      <trkpt lat="43.0763047747313976287841796875" lon="-2.09067807532846927642822265625">
        <ele>231.1999969482421875</ele>
        <time>2019-05-21T14:28:50.000Z</time>
      </trkpt>
      <trkpt lat="43.07618415914475917816162109375" lon="-2.09066851995885372161865234375">
        <ele>229.1999969482421875</ele>
        <time>2019-05-21T14:28:52.000Z</time>
      </trkpt>
      <trkpt lat="43.07595483027398586273193359375" lon="-2.09070808254182338714599609375">
        <ele>228</ele>
        <time>2019-05-21T14:28:56.000Z</time>
      </trkpt>
      <trkpt lat="43.07581745088100433349609375" lon="-2.09074370563030242919921875">
        <ele>225.8000030517578125</ele>
        <time>2019-05-21T14:28:59.000Z</time>
      </trkpt>
      <trkpt lat="43.0757431872189044952392578125" lon="-2.09079793654382228851318359375">
        <ele>225.1999969482421875</ele>
        <time>2019-05-21T14:29:01.000Z</time>
      </trkpt>
      <trkpt lat="43.075597174465656280517578125" lon="-2.09101259708404541015625">
        <ele>226.8000030517578125</ele>
        <time>2019-05-21T14:29:06.000Z</time>
      </trkpt>
      <trkpt lat="43.07527958415448665618896484375" lon="-2.09130001254379749298095703125">
        <ele>225.1999969482421875</ele>
        <time>2019-05-21T14:29:16.000Z</time>
      </trkpt>
      <trkpt lat="43.075153939425945281982421875" lon="-2.09136874414980411529541015625">
        <ele>223.1999969482421875</ele>
        <time>2019-05-21T14:29:19.000Z</time>
      </trkpt>
      <trkpt lat="43.0750927515327930450439453125" lon="-2.0914419181644916534423828125">
        <ele>223.399993896484375</ele>
        <time>2019-05-21T14:29:21.000Z</time>
      </trkpt>
      <trkpt lat="43.0750139616429805755615234375" lon="-2.09160662256181240081787109375">
        <ele>225.1999969482421875</ele>
        <time>2019-05-21T14:29:24.000Z</time>
      </trkpt>
      <trkpt lat="43.07493844069540500640869140625" lon="-2.09169697947800159454345703125">
        <ele>224.399993896484375</ele>
        <time>2019-05-21T14:29:26.000Z</time>
      </trkpt>
      <trkpt lat="43.0746112950146198272705078125" lon="-2.09185740910470485687255859375">
        <ele>216.1999969482421875</ele>
        <time>2019-05-21T14:29:35.000Z</time>
      </trkpt>
      <trkpt lat="43.0745831318199634552001953125" lon="-2.09182773716747760772705078125">
        <ele>214.399993896484375</ele>
        <time>2019-05-21T14:29:36.000Z</time>
      </trkpt>
      <trkpt lat="43.0745485983788967132568359375" lon="-2.09180410020053386688232421875">
        <ele>212.8000030517578125</ele>
        <time>2019-05-21T14:29:37.000Z</time>
      </trkpt>
      <trkpt lat="43.07443418540060520172119140625" lon="-2.09178130142390727996826171875">
        <ele>208.1999969482421875</ele>
        <time>2019-05-21T14:29:40.000Z</time>
      </trkpt>
      <trkpt lat="43.07418666779994964599609375" lon="-2.09187828004360198974609375">
        <ele>201.8000030517578125</ele>
        <time>2019-05-21T14:29:46.000Z</time>
      </trkpt>
      <trkpt lat="43.0738730169832706451416015625" lon="-2.0921208523213863372802734375">
        <ele>198</ele>
        <time>2019-05-21T14:29:56.000Z</time>
      </trkpt>
      <trkpt lat="43.07378391735255718231201171875" lon="-2.09210316650569438934326171875">
        <ele>195.1999969482421875</ele>
        <time>2019-05-21T14:30:00.000Z</time>
      </trkpt>
      <trkpt lat="43.073712922632694244384765625" lon="-2.0919374562799930572509765625">
        <ele>193.8000030517578125</ele>
        <time>2019-05-21T14:30:06.000Z</time>
      </trkpt>
      <trkpt lat="43.07372893206775188446044921875" lon="-2.0915495418012142181396484375">
        <ele>192.8000030517578125</ele>
        <time>2019-05-21T14:30:16.000Z</time>
      </trkpt>
      <trkpt lat="43.07375810109078884124755859375" lon="-2.09143093787133693695068359375">
        <ele>191</ele>
        <time>2019-05-21T14:30:18.000Z</time>
      </trkpt>
      <trkpt lat="43.07385943830013275146484375" lon="-2.09106020629405975341796875">
        <ele>187.600006103515625</ele>
        <time>2019-05-21T14:30:24.000Z</time>
      </trkpt>
      <trkpt lat="43.07389724068343639373779296875" lon="-2.09095618687570095062255859375">
        <ele>187.399993896484375</ele>
        <time>2019-05-21T14:30:26.000Z</time>
      </trkpt>
      <trkpt lat="43.0741395615041255950927734375" lon="-2.0905936695635318756103515625">
        <ele>183</ele>
        <time>2019-05-21T14:30:36.000Z</time>
      </trkpt>
      <trkpt lat="43.07448414154350757598876953125" lon="-2.09018521942198276519775390625">
        <ele>176.8000030517578125</ele>
        <time>2019-05-21T14:30:46.000Z</time>
      </trkpt>
      <trkpt lat="43.07460333220660686492919921875" lon="-2.09004859440028667449951171875">
        <ele>175.399993896484375</ele>
        <time>2019-05-21T14:30:49.000Z</time>
      </trkpt>
      <trkpt lat="43.0747041665017604827880859375" lon="-2.089988999068737030029296875">
        <ele>174.8000030517578125</ele>
        <time>2019-05-21T14:30:51.000Z</time>
      </trkpt>
      <trkpt lat="43.074831403791904449462890625" lon="-2.08984072320163249969482421875">
        <ele>171.600006103515625</ele>
        <time>2019-05-21T14:30:56.000Z</time>
      </trkpt>
      <trkpt lat="43.075007759034633636474609375" lon="-2.08944995887577533721923828125">
        <ele>159.8000030517578125</ele>
        <time>2019-05-21T14:31:06.000Z</time>
      </trkpt>
      <trkpt lat="43.0751272849738597869873046875" lon="-2.08904259838163852691650390625">
        <ele>147.8000030517578125</ele>
        <time>2019-05-21T14:31:15.000Z</time>
      </trkpt>
      <trkpt lat="43.075117059051990509033203125" lon="-2.08896816708147525787353515625">
        <ele>146.8000030517578125</ele>
        <time>2019-05-21T14:31:16.000Z</time>
      </trkpt>
      <trkpt lat="43.07509853504598140716552734375" lon="-2.08873162977397441864013671875">
        <ele>143.1999969482421875</ele>
        <time>2019-05-21T14:31:19.000Z</time>
      </trkpt>
      <trkpt lat="43.0751430429518222808837890625" lon="-2.08855594508349895477294921875">
        <ele>140.1999969482421875</ele>
        <time>2019-05-21T14:31:22.000Z</time>
      </trkpt>
      <trkpt lat="43.07521655224263668060302734375" lon="-2.08845536224544048309326171875">
        <ele>138</ele>
        <time>2019-05-21T14:31:24.000Z</time>
      </trkpt>
      <trkpt lat="43.07530556805431842803955078125" lon="-2.088345475494861602783203125">
        <ele>135.600006103515625</ele>
        <time>2019-05-21T14:31:26.000Z</time>
      </trkpt>
      <trkpt lat="43.0753894709050655364990234375" lon="-2.0882122032344341278076171875">
        <ele>133.399993896484375</ele>
        <time>2019-05-21T14:31:28.000Z</time>
      </trkpt>
      <trkpt lat="43.07545728050172328948974609375" lon="-2.08804406225681304931640625">
        <ele>132.8000030517578125</ele>
        <time>2019-05-21T14:31:30.000Z</time>
      </trkpt>
      <trkpt lat="43.0754836834967136383056640625" lon="-2.08795529790222644805908203125">
        <ele>132.399993896484375</ele>
        <time>2019-05-21T14:31:31.000Z</time>
      </trkpt>
      <trkpt lat="43.07550589554011821746826171875" lon="-2.0877746678888797760009765625">
        <ele>131.600006103515625</ele>
        <time>2019-05-21T14:31:33.000Z</time>
      </trkpt>
      <trkpt lat="43.07549986056983470916748046875" lon="-2.0875724963843822479248046875">
        <ele>130.8000030517578125</ele>
        <time>2019-05-21T14:31:36.000Z</time>
      </trkpt>
      <trkpt lat="43.07550497353076934814453125" lon="-2.0874397270381450653076171875">
        <ele>130</ele>
        <time>2019-05-21T14:31:39.000Z</time>
      </trkpt>
      <trkpt lat="43.07549952529370784759521484375" lon="-2.0873421616852283477783203125">
        <ele>131.1999969482421875</ele>
        <time>2019-05-21T14:31:41.000Z</time>
      </trkpt>
      <trkpt lat="43.07544370181858539581298828125" lon="-2.0872630365192890167236328125">
        <ele>132.600006103515625</ele>
        <time>2019-05-21T14:31:43.000Z</time>
      </trkpt>
      <trkpt lat="43.07535552419722080230712890625" lon="-2.08720847032964229583740234375">
        <ele>133.600006103515625</ele>
        <time>2019-05-21T14:31:45.000Z</time>
      </trkpt>
      <trkpt lat="43.07531495578587055206298828125" lon="-2.0871896110475063323974609375">
        <ele>133.8000030517578125</ele>
        <time>2019-05-21T14:31:46.000Z</time>
      </trkpt>
      <trkpt lat="43.0752588808536529541015625" lon="-2.087166644632816314697265625">
        <ele>133</ele>
        <time>2019-05-21T14:31:48.000Z</time>
      </trkpt>
      <trkpt lat="43.07518201880156993865966796875" lon="-2.08715197630226612091064453125">
        <ele>132</ele>
        <time>2019-05-21T14:31:51.000Z</time>
      </trkpt>
      <trkpt lat="43.075153268873691558837890625" lon="-2.0871510542929172515869140625">
        <ele>131.600006103515625</ele>
        <time>2019-05-21T14:31:52.000Z</time>
      </trkpt>
      <trkpt lat="43.07512720115482807159423828125" lon="-2.0871488749980926513671875">
        <ele>131.399993896484375</ele>
        <time>2019-05-21T14:31:53.000Z</time>
      </trkpt>
      <trkpt lat="43.07510389946401119232177734375" lon="-2.08713839761912822723388671875">
        <ele>131</ele>
        <time>2019-05-21T14:31:54.000Z</time>
      </trkpt>
      <trkpt lat="43.07507992722094058990478515625" lon="-2.08712314255535602569580078125">
        <ele>131.1999969482421875</ele>
        <time>2019-05-21T14:31:55.000Z</time>
      </trkpt>
      <trkpt lat="43.07505427859723567962646484375" lon="-2.087109982967376708984375">
        <ele>131.600006103515625</ele>
        <time>2019-05-21T14:31:56.000Z</time>
      </trkpt>
      <trkpt lat="43.07501957751810550689697265625" lon="-2.08706597797572612762451171875">
        <ele>132</ele>
        <time>2019-05-21T14:31:58.000Z</time>
      </trkpt>
      <trkpt lat="43.0750394426286220550537109375" lon="-2.086928598582744598388671875">
        <ele>131.1999969482421875</ele>
        <time>2019-05-21T14:32:01.000Z</time>
      </trkpt>
      <trkpt lat="43.0751095153391361236572265625" lon="-2.086846791207790374755859375">
        <ele>130</ele>
        <time>2019-05-21T14:32:03.000Z</time>
      </trkpt>
      <trkpt lat="43.07516039349138736724853515625" lon="-2.08681317977607250213623046875">
        <ele>130.600006103515625</ele>
        <time>2019-05-21T14:32:04.000Z</time>
      </trkpt>
      <trkpt lat="43.07526223361492156982421875" lon="-2.08674713037908077239990234375">
        <ele>131.600006103515625</ele>
        <time>2019-05-21T14:32:06.000Z</time>
      </trkpt>
      <trkpt lat="43.07531319558620452880859375" lon="-2.0867212302982807159423828125">
        <ele>132</ele>
        <time>2019-05-21T14:32:07.000Z</time>
      </trkpt>
      <trkpt lat="43.07561804540455341339111328125" lon="-2.08669030107557773590087890625">
        <ele>135.600006103515625</ele>
        <time>2019-05-21T14:32:12.000Z</time>
      </trkpt>
      <trkpt lat="43.075863383710384368896484375" lon="-2.08678266964852809906005859375">
        <ele>136.8000030517578125</ele>
        <time>2019-05-21T14:32:16.000Z</time>
      </trkpt>
      <trkpt lat="43.07634693570435047149658203125" lon="-2.0871161855757236480712890625">
        <ele>143.399993896484375</ele>
        <time>2019-05-21T14:32:24.000Z</time>
      </trkpt>
      <trkpt lat="43.07640158571302890777587890625" lon="-2.08717343397438526153564453125">
        <ele>142.1999969482421875</ele>
        <time>2019-05-21T14:32:25.000Z</time>
      </trkpt>
      <trkpt lat="43.07645774446427822113037109375" lon="-2.08722875453531742095947265625">
        <ele>141.1999969482421875</ele>
        <time>2019-05-21T14:32:26.000Z</time>
      </trkpt>
      <trkpt lat="43.07661247439682483673095703125" lon="-2.087401337921619415283203125">
        <ele>138</ele>
        <time>2019-05-21T14:32:29.000Z</time>
      </trkpt>
      <trkpt lat="43.07695068418979644775390625" lon="-2.087715826928615570068359375">
        <ele>140.399993896484375</ele>
        <time>2019-05-21T14:32:35.000Z</time>
      </trkpt>
      <trkpt lat="43.07701497338712215423583984375" lon="-2.0877511985599994659423828125">
        <ele>141.1999969482421875</ele>
        <time>2019-05-21T14:32:36.000Z</time>
      </trkpt>
      <trkpt lat="43.07714573107659816741943359375" lon="-2.0877857320010662078857421875">
        <ele>142.8000030517578125</ele>
        <time>2019-05-21T14:32:38.000Z</time>
      </trkpt>
      <trkpt lat="43.077208511531352996826171875" lon="-2.08779084496200084686279296875">
        <ele>143.600006103515625</ele>
        <time>2019-05-21T14:32:39.000Z</time>
      </trkpt>
      <trkpt lat="43.07766792364418506622314453125" lon="-2.0877609215676784515380859375">
        <ele>144.8000030517578125</ele>
        <time>2019-05-21T14:32:46.000Z</time>
      </trkpt>
      <trkpt lat="43.07801443152129650115966796875" lon="-2.08774809725582599639892578125">
        <ele>146.600006103515625</ele>
        <time>2019-05-21T14:32:51.000Z</time>
      </trkpt>
      <trkpt lat="43.0783358775079250335693359375" lon="-2.08775346167385578155517578125">
        <ele>145.1999969482421875</ele>
        <time>2019-05-21T14:32:56.000Z</time>
      </trkpt>
      <trkpt lat="43.0787653662264347076416015625" lon="-2.08779059350490570068359375">
        <ele>144.8000030517578125</ele>
        <time>2019-05-21T14:33:03.000Z</time>
      </trkpt>
      <trkpt lat="43.07894012890756130218505859375" lon="-2.08785756491124629974365234375">
        <ele>143</ele>
        <time>2019-05-21T14:33:06.000Z</time>
      </trkpt>
      <trkpt lat="43.079485706984996795654296875" lon="-2.0881143026053905487060546875">
        <ele>135.399993896484375</ele>
        <time>2019-05-21T14:33:15.000Z</time>
      </trkpt>
      <trkpt lat="43.079540692269802093505859375" lon="-2.0881520211696624755859375">
        <ele>134.399993896484375</ele>
        <time>2019-05-21T14:33:16.000Z</time>
      </trkpt>
      <trkpt lat="43.08005341328680515289306640625" lon="-2.088395766913890838623046875">
        <ele>135</ele>
        <time>2019-05-21T14:33:25.000Z</time>
      </trkpt>
      <trkpt lat="43.0801163613796234130859375" lon="-2.0884100161492824554443359375">
        <ele>134.8000030517578125</ele>
        <time>2019-05-21T14:33:26.000Z</time>
      </trkpt>
      <trkpt lat="43.0806710757315158843994140625" lon="-2.08851386792957782745361328125">
        <ele>140</ele>
        <time>2019-05-21T14:33:35.000Z</time>
      </trkpt>
      <trkpt lat="43.0807341076433658599853515625" lon="-2.08852476440370082855224609375">
        <ele>139.8000030517578125</ele>
        <time>2019-05-21T14:33:36.000Z</time>
      </trkpt>
      <trkpt lat="43.081298209726810455322265625" lon="-2.088640518486499786376953125">
        <ele>141.8000030517578125</ele>
        <time>2019-05-21T14:33:45.000Z</time>
      </trkpt>
      <trkpt lat="43.08136216364800930023193359375" lon="-2.08865560591220855712890625">
        <ele>142.399993896484375</ele>
        <time>2019-05-21T14:33:46.000Z</time>
      </trkpt>
      <trkpt lat="43.0819348990917205810546875" lon="-2.088753171265125274658203125">
        <ele>140.399993896484375</ele>
        <time>2019-05-21T14:33:55.000Z</time>
      </trkpt>
      <trkpt lat="43.0819970928132534027099609375" lon="-2.08875912241637706756591796875">
        <ele>141.600006103515625</ele>
        <time>2019-05-21T14:33:56.000Z</time>
      </trkpt>
      <trkpt lat="43.08234921656548976898193359375" lon="-2.088820226490497589111328125">
        <ele>142.399993896484375</ele>
        <time>2019-05-21T14:34:02.000Z</time>
      </trkpt>
      <trkpt lat="43.0824664793908596038818359375" lon="-2.08887093700468540191650390625">
        <ele>140.8000030517578125</ele>
        <time>2019-05-21T14:34:04.000Z</time>
      </trkpt>
      <trkpt lat="43.08257083408534526824951171875" lon="-2.08894989453256130218505859375">
        <ele>137.600006103515625</ele>
        <time>2019-05-21T14:34:06.000Z</time>
      </trkpt>
      <trkpt lat="43.083054386079311370849609375" lon="-2.08934082649648189544677734375">
        <ele>131.600006103515625</ele>
        <time>2019-05-21T14:34:15.000Z</time>
      </trkpt>
      <trkpt lat="43.08311481960117816925048828125" lon="-2.08936345763504505157470703125">
        <ele>131.8000030517578125</ele>
        <time>2019-05-21T14:34:16.000Z</time>
      </trkpt>
      <trkpt lat="43.0836634151637554168701171875" lon="-2.08949689753353595733642578125">
        <ele>129.1999969482421875</ele>
        <time>2019-05-21T14:34:25.000Z</time>
      </trkpt>
      <trkpt lat="43.08372334577143192291259765625" lon="-2.089496813714504241943359375">
        <ele>129</ele>
        <time>2019-05-21T14:34:26.000Z</time>
      </trkpt>
      <trkpt lat="43.08384002186357975006103515625" lon="-2.08947326056659221649169921875">
        <ele>129.1999969482421875</ele>
        <time>2019-05-21T14:34:28.000Z</time>
      </trkpt>
      <trkpt lat="43.08416775427758693695068359375" lon="-2.08928014151751995086669921875">
        <ele>131.600006103515625</ele>
        <time>2019-05-21T14:34:34.000Z</time>
      </trkpt>
      <trkpt lat="43.08425794355571269989013671875" lon="-2.08915743045508861541748046875">
        <ele>133.1999969482421875</ele>
        <time>2019-05-21T14:34:36.000Z</time>
      </trkpt>
      <trkpt lat="43.08460696600377559661865234375" lon="-2.08850062452256679534912109375">
        <ele>142</ele>
        <time>2019-05-21T14:34:45.000Z</time>
      </trkpt>
      <trkpt lat="43.08466203510761260986328125" lon="-2.0884348265826702117919921875">
        <ele>142.1999969482421875</ele>
        <time>2019-05-21T14:34:46.000Z</time>
      </trkpt>
      <trkpt lat="43.08478516526520252227783203125" lon="-2.088324688374996185302734375">
        <ele>141.8000030517578125</ele>
        <time>2019-05-21T14:34:48.000Z</time>
      </trkpt>
      <trkpt lat="43.08514416217803955078125" lon="-2.0881505124270915985107421875">
        <ele>136.8000030517578125</ele>
        <time>2019-05-21T14:34:54.000Z</time>
      </trkpt>
      <trkpt lat="43.085280954837799072265625" lon="-2.08814875222742557525634765625">
        <ele>134.8000030517578125</ele>
        <time>2019-05-21T14:34:56.000Z</time>
      </trkpt>
      <trkpt lat="43.08584698475897312164306640625" lon="-2.08827766589820384979248046875">
        <ele>126.59999847412109375</ele>
        <time>2019-05-21T14:35:04.000Z</time>
      </trkpt>
      <trkpt lat="43.0859815143048763275146484375" lon="-2.08833499811589717864990234375">
        <ele>128</ele>
        <time>2019-05-21T14:35:06.000Z</time>
      </trkpt>
      <trkpt lat="43.0861183069646358489990234375" lon="-2.08837288431823253631591796875">
        <ele>129</ele>
        <time>2019-05-21T14:35:08.000Z</time>
      </trkpt>
      <trkpt lat="43.08625803329050540924072265625" lon="-2.08837741054594516754150390625">
        <ele>129.399993896484375</ele>
        <time>2019-05-21T14:35:10.000Z</time>
      </trkpt>
      <trkpt lat="43.0864083208143711090087890625" lon="-2.08834874443709850311279296875">
        <ele>128.8000030517578125</ele>
        <time>2019-05-21T14:35:12.000Z</time>
      </trkpt>
      <trkpt lat="43.0866969935595989227294921875" lon="-2.08825570531189441680908203125">
        <ele>127</ele>
        <time>2019-05-21T14:35:16.000Z</time>
      </trkpt>
      <trkpt lat="43.08726889081299304962158203125" lon="-2.088026292622089385986328125">
        <ele>132</ele>
        <time>2019-05-21T14:35:24.000Z</time>
      </trkpt>
      <trkpt lat="43.087335191667079925537109375" lon="-2.0879781804978847503662109375">
        <ele>132.399993896484375</ele>
        <time>2019-05-21T14:35:25.000Z</time>
      </trkpt>
      <trkpt lat="43.08739847503602504730224609375" lon="-2.08792042918503284454345703125">
        <ele>132.8000030517578125</ele>
        <time>2019-05-21T14:35:26.000Z</time>
      </trkpt>
      <trkpt lat="43.0878258682787418365478515625" lon="-2.0873797126114368438720703125">
        <ele>130.1999969482421875</ele>
        <time>2019-05-21T14:35:34.000Z</time>
      </trkpt>
      <trkpt lat="43.087933324277400970458984375" lon="-2.08725658245384693145751953125">
        <ele>131.1999969482421875</ele>
        <time>2019-05-21T14:35:36.000Z</time>
      </trkpt>
      <trkpt lat="43.0880863778293132781982421875" lon="-2.08712616004049777984619140625">
        <ele>132.399993896484375</ele>
        <time>2019-05-21T14:35:39.000Z</time>
      </trkpt>
      <trkpt lat="43.0883891321718692779541015625" lon="-2.086921222507953643798828125">
        <ele>134</ele>
        <time>2019-05-21T14:35:45.000Z</time>
      </trkpt>
      <trkpt lat="43.08844805695116519927978515625" lon="-2.086887024343013763427734375">
        <ele>134</ele>
        <time>2019-05-21T14:35:46.000Z</time>
      </trkpt>
      <trkpt lat="43.0889839120209217071533203125" lon="-2.08656038157641887664794921875">
        <ele>128.1999969482421875</ele>
        <time>2019-05-21T14:35:55.000Z</time>
      </trkpt>
      <trkpt lat="43.089050464332103729248046875" lon="-2.086522243916988372802734375">
        <ele>128</ele>
        <time>2019-05-21T14:35:56.000Z</time>
      </trkpt>
      <trkpt lat="43.0895682983100414276123046875" lon="-2.08623298443853855133056640625">
        <ele>123.40000152587890625</ele>
        <time>2019-05-21T14:36:04.000Z</time>
      </trkpt>
      <trkpt lat="43.089701570570468902587890625" lon="-2.08617699332535266876220703125">
        <ele>121.40000152587890625</ele>
        <time>2019-05-21T14:36:06.000Z</time>
      </trkpt>
      <trkpt lat="43.09016919694840908050537109375" lon="-2.08614111877977848052978515625">
        <ele>120.40000152587890625</ele>
        <time>2019-05-21T14:36:13.000Z</time>
      </trkpt>
      <trkpt lat="43.09036030434072017669677734375" lon="-2.08620599471032619476318359375">
        <ele>122</ele>
        <time>2019-05-21T14:36:16.000Z</time>
      </trkpt>
      <trkpt lat="43.09090026654303073883056640625" lon="-2.08652970381081104278564453125">
        <ele>124.1999969482421875</ele>
        <time>2019-05-21T14:36:25.000Z</time>
      </trkpt>
      <trkpt lat="43.09095860458910465240478515625" lon="-2.08656574599444866180419921875">
        <ele>124.59999847412109375</ele>
        <time>2019-05-21T14:36:26.000Z</time>
      </trkpt>
      <trkpt lat="43.0910180322825908660888671875" lon="-2.08660514093935489654541015625">
        <ele>124.8000030517578125</ele>
        <time>2019-05-21T14:36:27.000Z</time>
      </trkpt>
      <trkpt lat="43.0914559029042720794677734375" lon="-2.08695298992097377777099609375">
        <ele>135.600006103515625</ele>
        <time>2019-05-21T14:36:35.000Z</time>
      </trkpt>
      <trkpt lat="43.091509044170379638671875" lon="-2.0869986712932586669921875">
        <ele>134</ele>
        <time>2019-05-21T14:36:36.000Z</time>
      </trkpt>
      <trkpt lat="43.09196007438004016876220703125" lon="-2.087519355118274688720703125">
        <ele>130.600006103515625</ele>
        <time>2019-05-21T14:36:45.000Z</time>
      </trkpt>
      <trkpt lat="43.09201137162744998931884765625" lon="-2.0875835604965686798095703125">
        <ele>132.600006103515625</ele>
        <time>2019-05-21T14:36:46.000Z</time>
      </trkpt>
      <trkpt lat="43.09225729666650295257568359375" lon="-2.087914645671844482421875">
        <ele>138</ele>
        <time>2019-05-21T14:36:51.000Z</time>
      </trkpt>
      <trkpt lat="43.09251596219837665557861328125" lon="-2.08824983797967433929443359375">
        <ele>129.399993896484375</ele>
        <time>2019-05-21T14:36:56.000Z</time>
      </trkpt>
      <trkpt lat="43.09272131882607936859130859375" lon="-2.0885199867188930511474609375">
        <ele>131.1999969482421875</ele>
        <time>2019-05-21T14:37:00.000Z</time>
      </trkpt>
      <trkpt lat="43.09277026914060115814208984375" lon="-2.0885863713920116424560546875">
        <ele>132.1999969482421875</ele>
        <time>2019-05-21T14:37:01.000Z</time>
      </trkpt>
      <trkpt lat="43.09282131493091583251953125" lon="-2.08865015767514705657958984375">
        <ele>133.399993896484375</ele>
        <time>2019-05-21T14:37:02.000Z</time>
      </trkpt>
      <trkpt lat="43.09292332269251346588134765625" lon="-2.08877890370786190032958984375">
        <ele>135.600006103515625</ele>
        <time>2019-05-21T14:37:04.000Z</time>
      </trkpt>
      <trkpt lat="43.09302457608282566070556640625" lon="-2.08890647627413272857666015625">
        <ele>132.399993896484375</ele>
        <time>2019-05-21T14:37:06.000Z</time>
      </trkpt>
      <trkpt lat="43.09337259270250797271728515625" lon="-2.089380137622356414794921875">
        <ele>125</ele>
        <time>2019-05-21T14:37:13.000Z</time>
      </trkpt>
      <trkpt lat="43.09353335760533809661865234375" lon="-2.0895858295261859893798828125">
        <ele>123.59999847412109375</ele>
        <time>2019-05-21T14:37:16.000Z</time>
      </trkpt>
      <trkpt lat="43.0939404666423797607421875" lon="-2.0901353470981121063232421875">
        <ele>124.40000152587890625</ele>
        <time>2019-05-21T14:37:24.000Z</time>
      </trkpt>
      <trkpt lat="43.09406183660030364990234375" lon="-2.09023735485970973968505859375">
        <ele>124</ele>
        <time>2019-05-21T14:37:26.000Z</time>
      </trkpt>
      <trkpt lat="43.0942440591752529144287109375" lon="-2.0903760753571987152099609375">
        <ele>118</ele>
        <time>2019-05-21T14:37:29.000Z</time>
      </trkpt>
      <trkpt lat="43.09464429505169391632080078125" lon="-2.09053558297455310821533203125">
        <ele>114.40000152587890625</ele>
        <time>2019-05-21T14:37:35.000Z</time>
      </trkpt>
      <trkpt lat="43.09471017681062221527099609375" lon="-2.09055083803832530975341796875">
        <ele>113.59999847412109375</ele>
        <time>2019-05-21T14:37:36.000Z</time>
      </trkpt>
      <trkpt lat="43.0953030288219451904296875" lon="-2.09071193821728229522705078125">
        <ele>106.59999847412109375</ele>
        <time>2019-05-21T14:37:44.000Z</time>
      </trkpt>
      <trkpt lat="43.09544510208070278167724609375" lon="-2.0907693542540073394775390625">
        <ele>105.59999847412109375</ele>
        <time>2019-05-21T14:37:46.000Z</time>
      </trkpt>
      <trkpt lat="43.0957769416272640228271484375" lon="-2.0909524150192737579345703125">
        <ele>106.59999847412109375</ele>
        <time>2019-05-21T14:37:51.000Z</time>
      </trkpt>
      <trkpt lat="43.0959988944232463836669921875" lon="-2.09112181328237056732177734375">
        <ele>103.8000030517578125</ele>
        <time>2019-05-21T14:37:55.000Z</time>
      </trkpt>
      <trkpt lat="43.0960538797080516815185546875" lon="-2.091161794960498809814453125">
        <ele>103.8000030517578125</ele>
        <time>2019-05-21T14:37:56.000Z</time>
      </trkpt>
      <trkpt lat="43.09640130959451198577880859375" lon="-2.0915052853524684906005859375">
        <ele>103</ele>
        <time>2019-05-21T14:38:03.000Z</time>
      </trkpt>
      <trkpt lat="43.09656509198248386383056640625" lon="-2.0916523039340972900390625">
        <ele>102.8000030517578125</ele>
        <time>2019-05-21T14:38:06.000Z</time>
      </trkpt>
      <trkpt lat="43.0969426967203617095947265625" lon="-2.0920266397297382354736328125">
        <ele>104.1999969482421875</ele>
        <time>2019-05-21T14:38:13.000Z</time>
      </trkpt>
      <trkpt lat="43.097093403339385986328125" lon="-2.09220894612371921539306640625">
        <ele>105</ele>
        <time>2019-05-21T14:38:16.000Z</time>
      </trkpt>
      <trkpt lat="43.09719021432101726531982421875" lon="-2.0923381112515926361083984375">
        <ele>104</ele>
        <time>2019-05-21T14:38:18.000Z</time>
      </trkpt>
      <trkpt lat="43.097488023340702056884765625" lon="-2.09289391525089740753173828125">
        <ele>104</ele>
        <time>2019-05-21T14:38:26.000Z</time>
      </trkpt>
      <trkpt lat="43.097610734403133392333984375" lon="-2.0931833423674106597900390625">
        <ele>103.40000152587890625</ele>
        <time>2019-05-21T14:38:30.000Z</time>
      </trkpt>
      <trkpt lat="43.09778382070362567901611328125" lon="-2.09363244473934173583984375">
        <ele>105</ele>
        <time>2019-05-21T14:38:36.000Z</time>
      </trkpt>
      <trkpt lat="43.09799957089126110076904296875" lon="-2.094122953712940216064453125">
        <ele>108.1999969482421875</ele>
        <time>2019-05-21T14:38:43.000Z</time>
      </trkpt>
      <trkpt lat="43.0981099605560302734375" lon="-2.0943038351833820343017578125">
        <ele>111.1999969482421875</ele>
        <time>2019-05-21T14:38:46.000Z</time>
      </trkpt>
      <trkpt lat="43.098589740693569183349609375" lon="-2.09470935165882110595703125">
        <ele>108.59999847412109375</ele>
        <time>2019-05-21T14:38:56.000Z</time>
      </trkpt>
      <trkpt lat="43.0987515114247798919677734375" lon="-2.094757296144962310791015625">
        <ele>108.1999969482421875</ele>
        <time>2019-05-21T14:38:59.000Z</time>
      </trkpt>
      <trkpt lat="43.09915124438703060150146484375" lon="-2.09483047015964984893798828125">
        <ele>107.1999969482421875</ele>
        <time>2019-05-21T14:39:06.000Z</time>
      </trkpt>
      <trkpt lat="43.09938359074294567108154296875" lon="-2.09492853842675685882568359375">
        <ele>107.8000030517578125</ele>
        <time>2019-05-21T14:39:10.000Z</time>
      </trkpt>
      <trkpt lat="43.0994416773319244384765625" lon="-2.09496491588652133941650390625">
        <ele>108.59999847412109375</ele>
        <time>2019-05-21T14:39:11.000Z</time>
      </trkpt>
      <trkpt lat="43.09949934482574462890625" lon="-2.0950042270123958587646484375">
        <ele>109.40000152587890625</ele>
        <time>2019-05-21T14:39:12.000Z</time>
      </trkpt>
      <trkpt lat="43.0997385643422603607177734375" lon="-2.09520480595529079437255859375">
        <ele>112.1999969482421875</ele>
        <time>2019-05-21T14:39:16.000Z</time>
      </trkpt>
      <trkpt lat="43.100048191845417022705078125" lon="-2.09551041014492511749267578125">
        <ele>107</ele>
        <time>2019-05-21T14:39:21.000Z</time>
      </trkpt>
      <trkpt lat="43.100384809076786041259765625" lon="-2.0957694947719573974609375">
        <ele>102</ele>
        <time>2019-05-21T14:39:26.000Z</time>
      </trkpt>
      <trkpt lat="43.100606761872768402099609375" lon="-2.09583185613155364990234375">
        <ele>103.40000152587890625</ele>
        <time>2019-05-21T14:39:29.000Z</time>
      </trkpt>
      <trkpt lat="43.1006820313632488250732421875" lon="-2.09583529271185398101806640625">
        <ele>103.8000030517578125</ele>
        <time>2019-05-21T14:39:30.000Z</time>
      </trkpt>
      <trkpt lat="43.10083164833486080169677734375" lon="-2.0958142541348934173583984375">
        <ele>105</ele>
        <time>2019-05-21T14:39:32.000Z</time>
      </trkpt>
      <trkpt lat="43.10111344791948795318603515625" lon="-2.0956737734377384185791015625">
        <ele>107.59999847412109375</ele>
        <time>2019-05-21T14:39:36.000Z</time>
      </trkpt>
      <trkpt lat="43.1013643182814121246337890625" lon="-2.0954878628253936767578125">
        <ele>112</ele>
        <time>2019-05-21T14:39:40.000Z</time>
      </trkpt>
      <trkpt lat="43.1016778014600276947021484375" lon="-2.09526968188583850860595703125">
        <ele>117</ele>
        <time>2019-05-21T14:39:45.000Z</time>
      </trkpt>
      <trkpt lat="43.10173957608640193939208984375" lon="-2.0952312089502811431884765625">
        <ele>117.8000030517578125</ele>
        <time>2019-05-21T14:39:46.000Z</time>
      </trkpt>
      <trkpt lat="43.10180210508406162261962890625" lon="-2.095195166766643524169921875">
        <ele>118</ele>
        <time>2019-05-21T14:39:47.000Z</time>
      </trkpt>
      <trkpt lat="43.10235748998820781707763671875" lon="-2.09488503634929656982421875">
        <ele>116.59999847412109375</ele>
        <time>2019-05-21T14:39:56.000Z</time>
      </trkpt>
      <trkpt lat="43.10254088602960109710693359375" lon="-2.09479174576699733734130859375">
        <ele>117</ele>
        <time>2019-05-21T14:39:59.000Z</time>
      </trkpt>
      <trkpt lat="43.10294807888567447662353515625" lon="-2.0945807732641696929931640625">
        <ele>109.8000030517578125</ele>
        <time>2019-05-21T14:40:06.000Z</time>
      </trkpt>
      <trkpt lat="43.10318411327898502349853515625" lon="-2.0944929309189319610595703125">
        <ele>108.59999847412109375</ele>
        <time>2019-05-21T14:40:10.000Z</time>
      </trkpt>
      <trkpt lat="43.103543780744075775146484375" lon="-2.09435219876468181610107421875">
        <ele>106</ele>
        <time>2019-05-21T14:40:16.000Z</time>
      </trkpt>
      <trkpt lat="43.10407318174839019775390625" lon="-2.0940892584621906280517578125">
        <ele>100.59999847412109375</ele>
        <time>2019-05-21T14:40:25.000Z</time>
      </trkpt>
      <trkpt lat="43.1041301786899566650390625" lon="-2.094059921801090240478515625">
        <ele>100.1999969482421875</ele>
        <time>2019-05-21T14:40:26.000Z</time>
      </trkpt>
      <trkpt lat="43.10442279092967510223388671875" lon="-2.09390393458306789398193359375">
        <ele>97.59999847412109375</ele>
        <time>2019-05-21T14:40:31.000Z</time>
      </trkpt>
      <trkpt lat="43.10448364354670047760009765625" lon="-2.0938719995319843292236328125">
        <ele>97.1999969482421875</ele>
        <time>2019-05-21T14:40:32.000Z</time>
      </trkpt>
      <trkpt lat="43.10460333712399005889892578125" lon="-2.09380871616303920745849609375">
        <ele>96.8000030517578125</ele>
        <time>2019-05-21T14:40:34.000Z</time>
      </trkpt>
      <trkpt lat="43.104723952710628509521484375" lon="-2.09375389851629734039306640625">
        <ele>96.40000152587890625</ele>
        <time>2019-05-21T14:40:36.000Z</time>
      </trkpt>
      <trkpt lat="43.1048476696014404296875" lon="-2.09370930679142475128173828125">
        <ele>96</ele>
        <time>2019-05-21T14:40:38.000Z</time>
      </trkpt>
      <trkpt lat="43.10496761463582515716552734375" lon="-2.0936802215874195098876953125">
        <ele>95.59999847412109375</ele>
        <time>2019-05-21T14:40:40.000Z</time>
      </trkpt>
      <trkpt lat="43.10534295625984668731689453125" lon="-2.09368818439543247222900390625">
        <ele>97</ele>
        <time>2019-05-21T14:40:46.000Z</time>
      </trkpt>
      <trkpt lat="43.10588006861507892608642578125" lon="-2.0939253084361553192138671875">
        <ele>98.1999969482421875</ele>
        <time>2019-05-21T14:40:55.000Z</time>
      </trkpt>
      <trkpt lat="43.105939328670501708984375" lon="-2.09395472891628742218017578125">
        <ele>98.40000152587890625</ele>
        <time>2019-05-21T14:40:56.000Z</time>
      </trkpt>
      <trkpt lat="43.1064878404140472412109375" lon="-2.09427441470324993133544921875">
        <ele>108.8000030517578125</ele>
        <time>2019-05-21T14:41:06.000Z</time>
      </trkpt>
      <trkpt lat="43.10702671296894550323486328125" lon="-2.094590663909912109375">
        <ele>104</ele>
        <time>2019-05-21T14:41:15.000Z</time>
      </trkpt>
      <trkpt lat="43.107087314128875732421875" lon="-2.09462125785648822784423828125">
        <ele>103.8000030517578125</ele>
        <time>2019-05-21T14:41:16.000Z</time>
      </trkpt>
      <trkpt lat="43.107620067894458770751953125" lon="-2.0949227549135684967041015625">
        <ele>94.40000152587890625</ele>
        <time>2019-05-21T14:41:25.000Z</time>
      </trkpt>
      <trkpt lat="43.1076787412166595458984375" lon="-2.0949519239366054534912109375">
        <ele>94.40000152587890625</ele>
        <time>2019-05-21T14:41:26.000Z</time>
      </trkpt>
      <trkpt lat="43.10816614888608455657958984375" lon="-2.09518351592123508453369140625">
        <ele>95.8000030517578125</ele>
        <time>2019-05-21T14:41:34.000Z</time>
      </trkpt>
      <trkpt lat="43.108289279043674468994140625" lon="-2.09520966745913028717041015625">
        <ele>95.59999847412109375</ele>
        <time>2019-05-21T14:41:36.000Z</time>
      </trkpt>
      <trkpt lat="43.1088319234549999237060546875" lon="-2.09515853784978389739990234375">
        <ele>93.40000152587890625</ele>
        <time>2019-05-21T14:41:45.000Z</time>
      </trkpt>
      <trkpt lat="43.10888749547302722930908203125" lon="-2.09514244459569454193115234375">
        <ele>93.1999969482421875</ele>
        <time>2019-05-21T14:41:46.000Z</time>
      </trkpt>
      <trkpt lat="43.10894130729138851165771484375" lon="-2.09513607434928417205810546875">
        <ele>93</ele>
        <time>2019-05-21T14:41:47.000Z</time>
      </trkpt>
      <trkpt lat="43.10909385792911052703857421875" lon="-2.09515049122273921966552734375">
        <ele>92</ele>
        <time>2019-05-21T14:41:50.000Z</time>
      </trkpt>
      <trkpt lat="43.10917801223695278167724609375" lon="-2.09508083760738372802734375">
        <ele>92.1999969482421875</ele>
        <time>2019-05-21T14:41:52.000Z</time>
      </trkpt>
      <trkpt lat="43.10927976854145526885986328125" lon="-2.09500246681272983551025390625">
        <ele>92.59999847412109375</ele>
        <time>2019-05-21T14:41:54.000Z</time>
      </trkpt>
      <trkpt lat="43.109399043023586273193359375" lon="-2.09493909962475299835205078125">
        <ele>92.40000152587890625</ele>
        <time>2019-05-21T14:41:56.000Z</time>
      </trkpt>
      <trkpt lat="43.10973121784627437591552734375" lon="-2.09474748931825160980224609375">
        <ele>92.8000030517578125</ele>
        <time>2019-05-21T14:42:02.000Z</time>
      </trkpt>
      <trkpt lat="43.109908998012542724609375" lon="-2.09458705969154834747314453125">
        <ele>93.59999847412109375</ele>
        <time>2019-05-21T14:42:06.000Z</time>
      </trkpt>
      <trkpt lat="43.1103601120412349700927734375" lon="-2.09426117129623889923095703125">
        <ele>93.40000152587890625</ele>
        <time>2019-05-21T14:42:16.000Z</time>
      </trkpt>
      <trkpt lat="43.11054694466292858123779296875" lon="-2.09412991069257259368896484375">
        <ele>93</ele>
        <time>2019-05-21T14:42:20.000Z</time>
      </trkpt>
      <trkpt lat="43.11063579283654689788818359375" lon="-2.09401440806686878204345703125">
        <ele>93</ele>
        <time>2019-05-21T14:42:22.000Z</time>
      </trkpt>
      <trkpt lat="43.1107684783637523651123046875" lon="-2.0936839096248149871826171875">
        <ele>93.8000030517578125</ele>
        <time>2019-05-21T14:42:26.000Z</time>
      </trkpt>
      <trkpt lat="43.11084416694939136505126953125" lon="-2.09341585636138916015625">
        <ele>94.8000030517578125</ele>
        <time>2019-05-21T14:42:29.000Z</time>
      </trkpt>
      <trkpt lat="43.110869228839874267578125" lon="-2.0933286845684051513671875">
        <ele>95.1999969482421875</ele>
        <time>2019-05-21T14:42:30.000Z</time>
      </trkpt>
      <trkpt lat="43.1109387986361980438232421875" lon="-2.09307697601616382598876953125">
        <ele>95.8000030517578125</ele>
        <time>2019-05-21T14:42:33.000Z</time>
      </trkpt>
      <trkpt lat="43.11101649887859821319580078125" lon="-2.0928433723747730255126953125">
        <ele>96.1999969482421875</ele>
        <time>2019-05-21T14:42:36.000Z</time>
      </trkpt>
      <trkpt lat="43.11110149137675762176513671875" lon="-2.09262066520750522613525390625">
        <ele>96.1999969482421875</ele>
        <time>2019-05-21T14:42:39.000Z</time>
      </trkpt>
      <trkpt lat="43.111251778900623321533203125" lon="-2.09218363277614116668701171875">
        <ele>94.40000152587890625</ele>
        <time>2019-05-21T14:42:45.000Z</time>
      </trkpt>
      <trkpt lat="43.11127566732466220855712890625" lon="-2.09210685454308986663818359375">
        <ele>93.8000030517578125</ele>
        <time>2019-05-21T14:42:46.000Z</time>
      </trkpt>
      <trkpt lat="43.1114272959530353546142578125" lon="-2.0913570933043956756591796875">
        <ele>92.8000030517578125</ele>
        <time>2019-05-21T14:42:56.000Z</time>
      </trkpt>
      <trkpt lat="43.11144682578742504119873046875" lon="-2.0911131799221038818359375">
        <ele>94</ele>
        <time>2019-05-21T14:42:59.000Z</time>
      </trkpt>
      <trkpt lat="43.11144162900745868682861328125" lon="-2.0908632315695285797119140625">
        <ele>96.40000152587890625</ele>
        <time>2019-05-21T14:43:02.000Z</time>
      </trkpt>
      <trkpt lat="43.11144179664552211761474609375" lon="-2.0906080864369869232177734375">
        <ele>99.1999969482421875</ele>
        <time>2019-05-21T14:43:05.000Z</time>
      </trkpt>
      <trkpt lat="43.111443221569061279296875" lon="-2.09052535705268383026123046875">
        <ele>100.1999969482421875</ele>
        <time>2019-05-21T14:43:06.000Z</time>
      </trkpt>
      <trkpt lat="43.11144380830228328704833984375" lon="-2.09036107175052165985107421875">
        <ele>102</ele>
        <time>2019-05-21T14:43:08.000Z</time>
      </trkpt>
      <trkpt lat="43.1114552915096282958984375" lon="-2.09027909673750400543212890625">
        <ele>102.8000030517578125</ele>
        <time>2019-05-21T14:43:09.000Z</time>
      </trkpt>
      <trkpt lat="43.11161287128925323486328125" lon="-2.08983468823134899139404296875">
        <ele>111.1999969482421875</ele>
        <time>2019-05-21T14:43:15.000Z</time>
      </trkpt>
      <trkpt lat="43.1116556189954280853271484375" lon="-2.08977467380464076995849609375">
        <ele>112</ele>
        <time>2019-05-21T14:43:16.000Z</time>
      </trkpt>
      <trkpt lat="43.1120314635336399078369140625" lon="-2.0893715880811214447021484375">
        <ele>117.1999969482421875</ele>
        <time>2019-05-21T14:43:24.000Z</time>
      </trkpt>
      <trkpt lat="43.112147636711597442626953125" lon="-2.08930595777928829193115234375">
        <ele>117</ele>
        <time>2019-05-21T14:43:26.000Z</time>
      </trkpt>
      <trkpt lat="43.1126919575035572052001953125" lon="-2.08911920897662639617919921875">
        <ele>113.59999847412109375</ele>
        <time>2019-05-21T14:43:35.000Z</time>
      </trkpt>
      <trkpt lat="43.11276244930922985076904296875" lon="-2.08911334164440631866455078125">
        <ele>114</ele>
        <time>2019-05-21T14:43:36.000Z</time>
      </trkpt>
      <trkpt lat="43.11319411732256412506103515625" lon="-2.089164555072784423828125">
        <ele>113.40000152587890625</ele>
        <time>2019-05-21T14:43:43.000Z</time>
      </trkpt>
      <trkpt lat="43.113343231379985809326171875" lon="-2.08926890976727008819580078125">
        <ele>110.59999847412109375</ele>
        <time>2019-05-21T14:43:46.000Z</time>
      </trkpt>
      <trkpt lat="43.1133916787803173065185546875" lon="-2.08931283093988895416259765625">
        <ele>109.1999969482421875</ele>
        <time>2019-05-21T14:43:47.000Z</time>
      </trkpt>
      <trkpt lat="43.11362645588815212249755859375" lon="-2.0896773599088191986083984375">
        <ele>105.59999847412109375</ele>
        <time>2019-05-21T14:43:53.000Z</time>
      </trkpt>
      <trkpt lat="43.11377196572721004486083984375" lon="-2.08983049727976322174072265625">
        <ele>102.8000030517578125</ele>
        <time>2019-05-21T14:43:56.000Z</time>
      </trkpt>
      <trkpt lat="43.113921247422695159912109375" lon="-2.0899603329598903656005859375">
        <ele>101.40000152587890625</ele>
        <time>2019-05-21T14:43:59.000Z</time>
      </trkpt>
      <trkpt lat="43.11406969092786312103271484375" lon="-2.09007776342332363128662109375">
        <ele>104.1999969482421875</ele>
        <time>2019-05-21T14:44:02.000Z</time>
      </trkpt>
      <trkpt lat="43.11412098817527294158935546875" lon="-2.09011833183467388153076171875">
        <ele>104.40000152587890625</ele>
        <time>2019-05-21T14:44:03.000Z</time>
      </trkpt>
      <trkpt lat="43.11416842974722385406494140625" lon="-2.09015973843634128570556640625">
        <ele>103.40000152587890625</ele>
        <time>2019-05-21T14:44:04.000Z</time>
      </trkpt>
      <trkpt lat="43.11427236534655094146728515625" lon="-2.090241126716136932373046875">
        <ele>102</ele>
        <time>2019-05-21T14:44:06.000Z</time>
      </trkpt>
      <trkpt lat="43.1144937314093112945556640625" lon="-2.0903908275067806243896484375">
        <ele>104.59999847412109375</ele>
        <time>2019-05-21T14:44:10.000Z</time>
      </trkpt>
      <trkpt lat="43.114828169345855712890625" lon="-2.09058721549808979034423828125">
        <ele>104</ele>
        <time>2019-05-21T14:44:16.000Z</time>
      </trkpt>
      <trkpt lat="43.11539587564766407012939453125" lon="-2.0908253453671932220458984375">
        <ele>101.8000030517578125</ele>
        <time>2019-05-21T14:44:26.000Z</time>
      </trkpt>
      <trkpt lat="43.1158165633678436279296875" lon="-2.091036401689052581787109375">
        <ele>100.40000152587890625</ele>
        <time>2019-05-21T14:44:34.000Z</time>
      </trkpt>
      <trkpt lat="43.1158623285591602325439453125" lon="-2.09105090238153934478759765625">
        <ele>100</ele>
        <time>2019-05-21T14:44:35.000Z</time>
      </trkpt>
      <trkpt lat="43.1159099377691745758056640625" lon="-2.09106196649372577667236328125">
        <ele>99.8000030517578125</ele>
        <time>2019-05-21T14:44:36.000Z</time>
      </trkpt>
      <trkpt lat="43.11641536653041839599609375" lon="-2.0911042951047420501708984375">
        <ele>94.8000030517578125</ele>
        <time>2019-05-21T14:44:46.000Z</time>
      </trkpt>
      <trkpt lat="43.1168554164469242095947265625" lon="-2.09104905836284160614013671875">
        <ele>92.8000030517578125</ele>
        <time>2019-05-21T14:44:54.000Z</time>
      </trkpt>
      <trkpt lat="43.11697284691035747528076171875" lon="-2.090975381433963775634765625">
        <ele>92.59999847412109375</ele>
        <time>2019-05-21T14:44:56.000Z</time>
      </trkpt>
      <trkpt lat="43.117462433874607086181640625" lon="-2.09049836732447147369384765625">
        <ele>93.59999847412109375</ele>
        <time>2019-05-21T14:45:05.000Z</time>
      </trkpt>
      <trkpt lat="43.11751448549330234527587890625" lon="-2.09045000374317169189453125">
        <ele>93.59999847412109375</ele>
        <time>2019-05-21T14:45:06.000Z</time>
      </trkpt>
      <trkpt lat="43.1180023960769176483154296875" lon="-2.0900019071996212005615234375">
        <ele>92.8000030517578125</ele>
        <time>2019-05-21T14:45:16.000Z</time>
      </trkpt>
      <trkpt lat="43.11827187426388263702392578125" lon="-2.08972153253853321075439453125">
        <ele>93.59999847412109375</ele>
        <time>2019-05-21T14:45:22.000Z</time>
      </trkpt>
      <trkpt lat="43.118316717445850372314453125" lon="-2.08967844955623149871826171875">
        <ele>93.8000030517578125</ele>
        <time>2019-05-21T14:45:23.000Z</time>
      </trkpt>
      <trkpt lat="43.1183624826371669769287109375" lon="-2.089637629687786102294921875">
        <ele>93.8000030517578125</ele>
        <time>2019-05-21T14:45:24.000Z</time>
      </trkpt>
      <trkpt lat="43.1184540130198001861572265625" lon="-2.08955791778862476348876953125">
        <ele>94</ele>
        <time>2019-05-21T14:45:26.000Z</time>
      </trkpt>
      <trkpt lat="43.11883429996669292449951171875" lon="-2.089429087936878204345703125">
        <ele>91.40000152587890625</ele>
        <time>2019-05-21T14:45:36.000Z</time>
      </trkpt>
      <trkpt lat="43.11897712759673595428466796875" lon="-2.089413665235042572021484375">
        <ele>90.1999969482421875</ele>
        <time>2019-05-21T14:45:40.000Z</time>
      </trkpt>
      <trkpt lat="43.11932464130222797393798828125" lon="-2.08924435079097747802734375">
        <ele>92.1999969482421875</ele>
        <time>2019-05-21T14:45:43.000Z</time>
      </trkpt>
      <trkpt lat="43.11949647031724452972412109375" lon="-2.089219205081462860107421875">
        <ele>94.59999847412109375</ele>
        <time>2019-05-21T14:45:45.000Z</time>
      </trkpt>
      <trkpt lat="43.11954860575497150421142578125" lon="-2.08923655562102794647216796875">
        <ele>95.1999969482421875</ele>
        <time>2019-05-21T14:45:46.000Z</time>
      </trkpt>
      <trkpt lat="43.1199751608073711395263671875" lon="-2.08936865441501140594482421875">
        <ele>98.1999969482421875</ele>
        <time>2019-05-21T14:45:54.000Z</time>
      </trkpt>
      <trkpt lat="43.12008806504309177398681640625" lon="-2.0893933810293674468994140625">
        <ele>97.59999847412109375</ele>
        <time>2019-05-21T14:45:56.000Z</time>
      </trkpt>
      <trkpt lat="43.12040372751653194427490234375" lon="-2.08936295472085475921630859375">
        <ele>99</ele>
        <time>2019-05-21T14:46:01.000Z</time>
      </trkpt>
      <trkpt lat="43.1206665001809597015380859375" lon="-2.089223563671112060546875">
        <ele>102</ele>
        <time>2019-05-21T14:46:06.000Z</time>
      </trkpt>
      <trkpt lat="43.12088065780699253082275390625" lon="-2.0891301892697811126708984375">
        <ele>104.1999969482421875</ele>
        <time>2019-05-21T14:46:10.000Z</time>
      </trkpt>
      <trkpt lat="43.12105634249746799468994140625" lon="-2.0890597812831401824951171875">
        <ele>103.59999847412109375</ele>
        <time>2019-05-21T14:46:13.000Z</time>
      </trkpt>
      <trkpt lat="43.12111317180097103118896484375" lon="-2.08903723396360874176025390625">
        <ele>103</ele>
        <time>2019-05-21T14:46:14.000Z</time>
      </trkpt>
      <trkpt lat="43.12116966582834720611572265625" lon="-2.08901057951152324676513671875">
        <ele>102.59999847412109375</ele>
        <time>2019-05-21T14:46:15.000Z</time>
      </trkpt>
      <trkpt lat="43.1212230585515499114990234375" lon="-2.08898191340267658233642578125">
        <ele>102.40000152587890625</ele>
        <time>2019-05-21T14:46:16.000Z</time>
      </trkpt>
      <trkpt lat="43.12127712182700634002685546875" lon="-2.08895333111286163330078125">
        <ele>102.1999969482421875</ele>
        <time>2019-05-21T14:46:17.000Z</time>
      </trkpt>
      <trkpt lat="43.12165145762264728546142578125" lon="-2.08869592286646366119384765625">
        <ele>102.1999969482421875</ele>
        <time>2019-05-21T14:46:25.000Z</time>
      </trkpt>
      <trkpt lat="43.1216911040246486663818359375" lon="-2.088662646710872650146484375">
        <ele>102.1999969482421875</ele>
        <time>2019-05-21T14:46:26.000Z</time>
      </trkpt>
      <trkpt lat="43.1221561320126056671142578125" lon="-2.0882420428097248077392578125">
        <ele>100.59999847412109375</ele>
        <time>2019-05-21T14:46:36.000Z</time>
      </trkpt>
      <trkpt lat="43.1225956790149211883544921875" lon="-2.08766746334731578826904296875">
        <ele>100.40000152587890625</ele>
        <time>2019-05-21T14:46:45.000Z</time>
      </trkpt>
      <trkpt lat="43.122625686228275299072265625" lon="-2.087586410343647003173828125">
        <ele>101.8000030517578125</ele>
        <time>2019-05-21T14:46:46.000Z</time>
      </trkpt>
      <trkpt lat="43.12267027795314788818359375" lon="-2.08751759491860866546630859375">
        <ele>103</ele>
        <time>2019-05-21T14:46:47.000Z</time>
      </trkpt>
      <trkpt lat="43.12278569675981998443603515625" lon="-2.08744836039841175079345703125">
        <ele>103.59999847412109375</ele>
        <time>2019-05-21T14:46:49.000Z</time>
      </trkpt>
      <trkpt lat="43.12289382331073284149169921875" lon="-2.08748641423881053924560546875">
        <ele>101.40000152587890625</ele>
        <time>2019-05-21T14:46:51.000Z</time>
      </trkpt>
      <trkpt lat="43.12298116274178028106689453125" lon="-2.08760225214064121246337890625">
        <ele>97.59999847412109375</ele>
        <time>2019-05-21T14:46:54.000Z</time>
      </trkpt>
      <trkpt lat="43.1230452843010425567626953125" lon="-2.08769210614264011383056640625">
        <ele>94.59999847412109375</ele>
        <time>2019-05-21T14:46:56.000Z</time>
      </trkpt>
      <trkpt lat="43.1232194602489471435546875" lon="-2.0880767516791820526123046875">
        <ele>86.59999847412109375</ele>
        <time>2019-05-21T14:47:02.000Z</time>
      </trkpt>
      <trkpt lat="43.12330906279385089874267578125" lon="-2.08816736005246639251708984375">
        <ele>85</ele>
        <time>2019-05-21T14:47:04.000Z</time>
      </trkpt>
      <trkpt lat="43.123402185738086700439453125" lon="-2.08824279718101024627685546875">
        <ele>83.40000152587890625</ele>
        <time>2019-05-21T14:47:06.000Z</time>
      </trkpt>
      <trkpt lat="43.1234901957213878631591796875" lon="-2.088265679776668548583984375">
        <ele>83.1999969482421875</ele>
        <time>2019-05-21T14:47:08.000Z</time>
      </trkpt>
      <trkpt lat="43.12358449213206768035888671875" lon="-2.08822653628885746002197265625">
        <ele>83.40000152587890625</ele>
        <time>2019-05-21T14:47:10.000Z</time>
      </trkpt>
      <trkpt lat="43.12368054874241352081298828125" lon="-2.0881535299122333526611328125">
        <ele>83.59999847412109375</ele>
        <time>2019-05-21T14:47:12.000Z</time>
      </trkpt>
      <trkpt lat="43.123789094388484954833984375" lon="-2.08800382912158966064453125">
        <ele>83.59999847412109375</ele>
        <time>2019-05-21T14:47:15.000Z</time>
      </trkpt>
      <trkpt lat="43.12382488511502742767333984375" lon="-2.08795613609254360198974609375">
        <ele>83.59999847412109375</ele>
        <time>2019-05-21T14:47:16.000Z</time>
      </trkpt>
      <trkpt lat="43.12387048266828060150146484375" lon="-2.08790601231157779693603515625">
        <ele>83.59999847412109375</ele>
        <time>2019-05-21T14:47:17.000Z</time>
      </trkpt>
      <trkpt lat="43.12418480403721332550048828125" lon="-2.08753469400107860565185546875">
        <ele>84</ele>
        <time>2019-05-21T14:47:25.000Z</time>
      </trkpt>
      <trkpt lat="43.12422336079180240631103515625" lon="-2.0874856598675251007080078125">
        <ele>84</ele>
        <time>2019-05-21T14:47:26.000Z</time>
      </trkpt>
      <trkpt lat="43.1246318109333515167236328125" lon="-2.08713286556303501129150390625">
        <ele>87.1999969482421875</ele>
        <time>2019-05-21T14:47:34.000Z</time>
      </trkpt>
      <trkpt lat="43.12475125305354595184326171875" lon="-2.08705566823482513427734375">
        <ele>88</ele>
        <time>2019-05-21T14:47:36.000Z</time>
      </trkpt>
      <trkpt lat="43.125295154750347137451171875" lon="-2.086771689355373382568359375">
        <ele>88.8000030517578125</ele>
        <time>2019-05-21T14:47:45.000Z</time>
      </trkpt>
      <trkpt lat="43.12535340897738933563232421875" lon="-2.08674319088459014892578125">
        <ele>88.59999847412109375</ele>
        <time>2019-05-21T14:47:46.000Z</time>
      </trkpt>
      <trkpt lat="43.12584307976067066192626953125" lon="-2.086461223661899566650390625">
        <ele>87.59999847412109375</ele>
        <time>2019-05-21T14:47:55.000Z</time>
      </trkpt>
      <trkpt lat="43.1258911080658435821533203125" lon="-2.08643012680113315582275390625">
        <ele>87.8000030517578125</ele>
        <time>2019-05-21T14:47:56.000Z</time>
      </trkpt>
      <trkpt lat="43.12603636644780635833740234375" lon="-2.0863591320812702178955078125">
        <ele>87.59999847412109375</ele>
        <time>2019-05-21T14:47:59.000Z</time>
      </trkpt>
      <trkpt lat="43.12614700756967067718505859375" lon="-2.0863353274762630462646484375">
        <ele>86.8000030517578125</ele>
        <time>2019-05-21T14:48:01.000Z</time>
      </trkpt>
      <trkpt lat="43.12642126344144344329833984375" lon="-2.08630590699613094329833984375">
        <ele>86.1999969482421875</ele>
        <time>2019-05-21T14:48:06.000Z</time>
      </trkpt>
      <trkpt lat="43.126474320888519287109375" lon="-2.08630171604454517364501953125">
        <ele>86.1999969482421875</ele>
        <time>2019-05-21T14:48:07.000Z</time>
      </trkpt>
      <trkpt lat="43.12657750211656093597412109375" lon="-2.08630540408194065093994140625">
        <ele>86</ele>
        <time>2019-05-21T14:48:09.000Z</time>
      </trkpt>
      <trkpt lat="43.12662695534527301788330078125" lon="-2.0863192342221736907958984375">
        <ele>85.8000030517578125</ele>
        <time>2019-05-21T14:48:10.000Z</time>
      </trkpt>
      <trkpt lat="43.12667607329785823822021484375" lon="-2.08632635883986949920654296875">
        <ele>85.8000030517578125</ele>
        <time>2019-05-21T14:48:11.000Z</time>
      </trkpt>
      <trkpt lat="43.12686257064342498779296875" lon="-2.08636323921382427215576171875">
        <ele>85.59999847412109375</ele>
        <time>2019-05-21T14:48:15.000Z</time>
      </trkpt>
      <trkpt lat="43.126913197338581085205078125" lon="-2.08638218231499195098876953125">
        <ele>85.59999847412109375</ele>
        <time>2019-05-21T14:48:16.000Z</time>
      </trkpt>
      <trkpt lat="43.127300441265106201171875" lon="-2.08654730580747127532958984375">
        <ele>83.59999847412109375</ele>
        <time>2019-05-21T14:48:22.000Z</time>
      </trkpt>
      <trkpt lat="43.12741870991885662078857421875" lon="-2.0866015367209911346435546875">
        <ele>83</ele>
        <time>2019-05-21T14:48:24.000Z</time>
      </trkpt>
      <trkpt lat="43.12752096913754940032958984375" lon="-2.08663498051464557647705078125">
        <ele>83</ele>
        <time>2019-05-21T14:48:26.000Z</time>
      </trkpt>
      <trkpt lat="43.12765256501734256744384765625" lon="-2.086706645786762237548828125">
        <ele>82.40000152587890625</ele>
        <time>2019-05-21T14:48:29.000Z</time>
      </trkpt>
      <trkpt lat="43.12774543650448322296142578125" lon="-2.0867678336799144744873046875">
        <ele>81.59999847412109375</ele>
        <time>2019-05-21T14:48:31.000Z</time>
      </trkpt>
      <trkpt lat="43.12795531935989856719970703125" lon="-2.086847461760044097900390625">
        <ele>79.8000030517578125</ele>
        <time>2019-05-21T14:48:35.000Z</time>
      </trkpt>
      <trkpt lat="43.128008544445037841796875" lon="-2.08686648868024349212646484375">
        <ele>79.40000152587890625</ele>
        <time>2019-05-21T14:48:36.000Z</time>
      </trkpt>
      <trkpt lat="43.12815447337925434112548828125" lon="-2.0868999324738979339599609375">
        <ele>78.40000152587890625</ele>
        <time>2019-05-21T14:48:39.000Z</time>
      </trkpt>
      <trkpt lat="43.1285012327134609222412109375" lon="-2.08683614619076251983642578125">
        <ele>77.1999969482421875</ele>
        <time>2019-05-21T14:48:46.000Z</time>
      </trkpt>
      <trkpt lat="43.1285508535802364349365234375" lon="-2.08683731965720653533935546875">
        <ele>77.1999969482421875</ele>
        <time>2019-05-21T14:48:47.000Z</time>
      </trkpt>
      <trkpt lat="43.1286551244556903839111328125" lon="-2.0868610404431819915771484375">
        <ele>77.40000152587890625</ele>
        <time>2019-05-21T14:48:49.000Z</time>
      </trkpt>
      <trkpt lat="43.12875931151211261749267578125" lon="-2.0868982560932636260986328125">
        <ele>77.40000152587890625</ele>
        <time>2019-05-21T14:48:51.000Z</time>
      </trkpt>
      <trkpt lat="43.12885788269340991973876953125" lon="-2.08689414896070957183837890625">
        <ele>77.40000152587890625</ele>
        <time>2019-05-21T14:48:53.000Z</time>
      </trkpt>
      <trkpt lat="43.128987215459346771240234375" lon="-2.0868672430515289306640625">
        <ele>77.40000152587890625</ele>
        <time>2019-05-21T14:48:56.000Z</time>
      </trkpt>
      <trkpt lat="43.12910950742661952972412109375" lon="-2.0868382416665554046630859375">
        <ele>77.1999969482421875</ele>
        <time>2019-05-21T14:48:59.000Z</time>
      </trkpt>
      <trkpt lat="43.12918108887970447540283203125" lon="-2.0867906324565410614013671875">
        <ele>77.1999969482421875</ele>
        <time>2019-05-21T14:49:01.000Z</time>
      </trkpt>
      <trkpt lat="43.12921947799623012542724609375" lon="-2.08667487837374210357666015625">
        <ele>77</ele>
        <time>2019-05-21T14:49:03.000Z</time>
      </trkpt>
      <trkpt lat="43.12920992262661457061767578125" lon="-2.0865354873239994049072265625">
        <ele>77</ele>
        <time>2019-05-21T14:49:05.000Z</time>
      </trkpt>
      <trkpt lat="43.12919366173446178436279296875" lon="-2.08646901883184909820556640625">
        <ele>77.1999969482421875</ele>
        <time>2019-05-21T14:49:06.000Z</time>
      </trkpt>
      <trkpt lat="43.12911001034080982208251953125" lon="-2.08587273024022579193115234375">
        <ele>78</ele>
        <time>2019-05-21T14:49:14.000Z</time>
      </trkpt>
      <trkpt lat="43.1291147880256175994873046875" lon="-2.08570777438580989837646484375">
        <ele>78.40000152587890625</ele>
        <time>2019-05-21T14:49:16.000Z</time>
      </trkpt>
      <trkpt lat="43.12911939807236194610595703125" lon="-2.08510176278650760650634765625">
        <ele>77.59999847412109375</ele>
        <time>2019-05-21T14:49:24.000Z</time>
      </trkpt>
      <trkpt lat="43.129105903208255767822265625" lon="-2.08495013415813446044921875">
        <ele>77.59999847412109375</ele>
        <time>2019-05-21T14:49:26.000Z</time>
      </trkpt>
      <trkpt lat="43.12890079803764820098876953125" lon="-2.084262482821941375732421875">
        <ele>80</ele>
        <time>2019-05-21T14:49:36.000Z</time>
      </trkpt>
      <trkpt lat="43.12857759185135364532470703125" lon="-2.0836594887077808380126953125">
        <ele>81.8000030517578125</ele>
        <time>2019-05-21T14:49:46.000Z</time>
      </trkpt>
      <trkpt lat="43.128471560776233673095703125" lon="-2.08343912847340106964111328125">
        <ele>81.8000030517578125</ele>
        <time>2019-05-21T14:49:50.000Z</time>
      </trkpt>
      <trkpt lat="43.1284435652196407318115234375" lon="-2.0832417346537113189697265625">
        <ele>82</ele>
        <time>2019-05-21T14:49:54.000Z</time>
      </trkpt>
      <trkpt lat="43.12849142588675022125244140625" lon="-2.08318884484469890594482421875">
        <ele>82.8000030517578125</ele>
        <time>2019-05-21T14:49:56.000Z</time>
      </trkpt>
      <trkpt lat="43.12868739478290081024169921875" lon="-2.08312480710446834564208984375">
        <ele>84.59999847412109375</ele>
        <time>2019-05-21T14:50:01.000Z</time>
      </trkpt>
      <trkpt lat="43.12877842225134372711181640625" lon="-2.08306965418159961700439453125">
        <ele>85.59999847412109375</ele>
        <time>2019-05-21T14:50:04.000Z</time>
      </trkpt>
      <trkpt lat="43.12878462485969066619873046875" lon="-2.08297527395188808441162109375">
        <ele>86.40000152587890625</ele>
        <time>2019-05-21T14:50:06.000Z</time>
      </trkpt>
      <trkpt lat="43.12878814525902271270751953125" lon="-2.08285876549780368804931640625">
        <ele>87.1999969482421875</ele>
        <time>2019-05-21T14:50:08.000Z</time>
      </trkpt>
      <trkpt lat="43.12878311611711978912353515625" lon="-2.08265424706041812896728515625">
        <ele>87.1999969482421875</ele>
        <time>2019-05-21T14:50:11.000Z</time>
      </trkpt>
      <trkpt lat="43.12877590768039226531982421875" lon="-2.0824415981769561767578125">
        <ele>87.40000152587890625</ele>
        <time>2019-05-21T14:50:14.000Z</time>
      </trkpt>
      <trkpt lat="43.12877632677555084228515625" lon="-2.0823703519999980926513671875">
        <ele>87.59999847412109375</ele>
        <time>2019-05-21T14:50:15.000Z</time>
      </trkpt>
      <trkpt lat="43.12877858988940715789794921875" lon="-2.082299105823040008544921875">
        <ele>88</ele>
        <time>2019-05-21T14:50:16.000Z</time>
      </trkpt>
      <trkpt lat="43.12878035008907318115234375" lon="-2.0822308771312236785888671875">
        <ele>88.1999969482421875</ele>
        <time>2019-05-21T14:50:17.000Z</time>
      </trkpt>
      <trkpt lat="43.1287875585258007049560546875" lon="-2.08209936507046222686767578125">
        <ele>88.8000030517578125</ele>
        <time>2019-05-21T14:50:19.000Z</time>
      </trkpt>
      <trkpt lat="43.1287966109812259674072265625" lon="-2.081851176917552947998046875">
        <ele>89.1999969482421875</ele>
        <time>2019-05-21T14:50:23.000Z</time>
      </trkpt>
      <trkpt lat="43.12879736535251140594482421875" lon="-2.081788815557956695556640625">
        <ele>89.40000152587890625</ele>
        <time>2019-05-21T14:50:24.000Z</time>
      </trkpt>
      <trkpt lat="43.12880440615117549896240234375" lon="-2.0816635899245738983154296875">
        <ele>89.59999847412109375</ele>
        <time>2019-05-21T14:50:26.000Z</time>
      </trkpt>
      <trkpt lat="43.12880842946469783782958984375" lon="-2.08160215057432651519775390625">
        <ele>89.8000030517578125</ele>
        <time>2019-05-21T14:50:27.000Z</time>
      </trkpt>
      <trkpt lat="43.12881387770175933837890625" lon="-2.08154213614761829376220703125">
        <ele>89.40000152587890625</ele>
        <time>2019-05-21T14:50:28.000Z</time>
      </trkpt>
      <trkpt lat="43.12890683300793170928955078125" lon="-2.08102472126483917236328125">
        <ele>88.1999969482421875</ele>
        <time>2019-05-21T14:50:36.000Z</time>
      </trkpt>
      <trkpt lat="43.1289189867675304412841796875" lon="-2.08096043206751346588134765625">
        <ele>88.40000152587890625</ele>
        <time>2019-05-21T14:50:37.000Z</time>
      </trkpt>
      <trkpt lat="43.12892896123230457305908203125" lon="-2.08089488558471202850341796875">
        <ele>88.59999847412109375</ele>
        <time>2019-05-21T14:50:38.000Z</time>
      </trkpt>
      <trkpt lat="43.12894270755350589752197265625" lon="-2.08077016286551952362060546875">
        <ele>89</ele>
        <time>2019-05-21T14:50:40.000Z</time>
      </trkpt>
      <trkpt lat="43.1289488263428211212158203125" lon="-2.0807097293436527252197265625">
        <ele>88.8000030517578125</ele>
        <time>2019-05-21T14:50:41.000Z</time>
      </trkpt>
      <trkpt lat="43.12895393930375576019287109375" lon="-2.08064711652696132659912109375">
        <ele>88.59999847412109375</ele>
        <time>2019-05-21T14:50:42.000Z</time>
      </trkpt>
      <trkpt lat="43.1289602257311344146728515625" lon="-2.0805863477289676666259765625">
        <ele>88.40000152587890625</ele>
        <time>2019-05-21T14:50:43.000Z</time>
      </trkpt>
      <trkpt lat="43.12898713164031505584716796875" lon="-2.08040856756269931793212890625">
        <ele>88</ele>
        <time>2019-05-21T14:50:46.000Z</time>
      </trkpt>
      <trkpt lat="43.129006326198577880859375" lon="-2.08028937689960002899169921875">
        <ele>87.8000030517578125</ele>
        <time>2019-05-21T14:50:48.000Z</time>
      </trkpt>
      <trkpt lat="43.12901395373046398162841796875" lon="-2.0802292786538600921630859375">
        <ele>87.59999847412109375</ele>
        <time>2019-05-21T14:50:49.000Z</time>
      </trkpt>
      <trkpt lat="43.1290443800389766693115234375" lon="-2.07994655705988407135009765625">
        <ele>87.40000152587890625</ele>
        <time>2019-05-21T14:50:54.000Z</time>
      </trkpt>
      <trkpt lat="43.1290487386286258697509765625" lon="-2.07986290566623210906982421875">
        <ele>87.8000030517578125</ele>
        <time>2019-05-21T14:50:56.000Z</time>
      </trkpt>
      <trkpt lat="43.12905904836952686309814453125" lon="-2.07976131699979305267333984375">
        <ele>88</ele>
        <time>2019-05-21T14:51:00.000Z</time>
      </trkpt>
      <trkpt lat="43.12905351631343364715576171875" lon="-2.079739607870578765869140625">
        <ele>88.1999969482421875</ele>
        <time>2019-05-21T14:51:01.000Z</time>
      </trkpt>
      <trkpt lat="43.1290183961391448974609375" lon="-2.0796494185924530029296875">
        <ele>88.40000152587890625</ele>
        <time>2019-05-21T14:51:04.000Z</time>
      </trkpt>
      <trkpt lat="43.12898864038288593292236328125" lon="-2.07963223569095134735107421875">
        <ele>88.40000152587890625</ele>
        <time>2019-05-21T14:51:05.000Z</time>
      </trkpt>
      <trkpt lat="43.128960393369197845458984375" lon="-2.079612873494625091552734375">
        <ele>88.40000152587890625</ele>
        <time>2019-05-21T14:51:06.000Z</time>
      </trkpt>
      <trkpt lat="43.128770627081394195556640625" lon="-2.07944758236408233642578125">
        <ele>88.1999969482421875</ele>
        <time>2019-05-21T14:51:12.000Z</time>
      </trkpt>
      <trkpt lat="43.12865923158824443817138671875" lon="-2.0793602429330348968505859375">
        <ele>87.8000030517578125</ele>
        <time>2019-05-21T14:51:15.000Z</time>
      </trkpt>
      <trkpt lat="43.12860525213181972503662109375" lon="-2.07933627068996429443359375">
        <ele>87.59999847412109375</ele>
        <time>2019-05-21T14:51:16.000Z</time>
      </trkpt>
      <trkpt lat="43.12855076976120471954345703125" lon="-2.0793220214545726776123046875">
        <ele>87.1999969482421875</ele>
        <time>2019-05-21T14:51:17.000Z</time>
      </trkpt>
      <trkpt lat="43.128250278532505035400390625" lon="-2.07931607030332088470458984375">
        <ele>86.8000030517578125</ele>
        <time>2019-05-21T14:51:22.000Z</time>
      </trkpt>
      <trkpt lat="43.12814340926706790924072265625" lon="-2.0793679542839527130126953125">
        <ele>86.59999847412109375</ele>
        <time>2019-05-21T14:51:24.000Z</time>
      </trkpt>
      <trkpt lat="43.12810175120830535888671875" lon="-2.079395949840545654296875">
        <ele>86.59999847412109375</ele>
        <time>2019-05-21T14:51:25.000Z</time>
      </trkpt>
    </trkseg>
  </trk>
</gpx>
